GEFSSGP_500_meanwind_078.txt.gz
Wind_Speed
54 54 52 51 51 52 49 45 42 42 41 40 39 36 34 31 29 27 23 21 19 17 16 14 12 11 10 9 8 7 6 6 5 4 4 3 2 2 2 3 3 3 3 3 4 5 6 6 7
55 55 54 53 53 52 49 46 44 43 44 42 39 37 35 32 31 28 24 23 21 18 17 15 13 12 11 10 9 8 7 7 6 5 5 4 3 2 2 3 3 3 3 4 4 5 6 6 7
56 56 55 55 54 52 47 46 46 45 44 43 40 39 38 35 32 29 26 24 22 20 18 16 14 13 11 11 10 9 8 8 7 6 5 5 3 3 3 3 3 3 3 4 4 5 5 6 7
56 57 57 57 54 50 47 46 47 46 44 43 42 41 39 36 33 30 28 26 23 21 19 17 15 13 12 12 11 10 10 9 8 7 6 5 4 4 3 3 3 3 3 4 4 5 6 6 7
57 57 58 58 54 50 48 48 47 46 46 44 43 42 41 38 35 32 30 28 25 22 20 18 16 15 14 13 12 12 11 10 9 8 7 6 5 4 4 3 3 4 4 4 5 5 6 7 8
57 57 57 57 53 51 51 51 47 47 47 46 44 42 41 39 37 35 33 29 27 24 21 19 18 16 15 14 14 13 12 11 10 9 8 7 6 5 4 4 4 4 4 5 5 6 7 8 9
56 56 55 53 52 52 53 52 49 48 48 47 45 42 42 41 39 37 34 31 28 26 23 21 19 18 17 16 15 14 13 12 11 10 9 8 7 6 6 5 5 5 5 6 7 7 8 9 10
56 55 55 54 53 52 52 52 51 49 48 48 47 44 42 41 40 38 34 32 29 27 25 23 21 20 19 18 17 16 15 14 13 11 10 9 8 8 7 7 6 6 7 7 8 9 10 11 12
57 57 56 53 52 51 52 52 52 51 51 49 48 44 42 41 39 39 36 34 31 29 26 24 23 22 21 20 19 18 17 15 14 13 12 11 10 9 9 8 8 8 8 9 9 10 11 12 13
58 57 53 51 50 49 50 53 52 52 52 50 49 46 43 43 41 39 38 35 33 30 28 26 24 23 22 22 21 20 19 17 16 14 13 12 11 11 10 10 10 10 10 10 11 12 13 14 15
58 56 52 52 51 49 50 51 52 52 52 51 50 48 45 44 43 41 40 38 34 32 30 28 26 24 24 23 23 22 21 19 18 16 15 14 13 13 12 12 12 12 12 12 13 14 15 16 17
56 56 53 52 52 50 49 49 50 52 52 52 51 49 48 45 44 43 41 39 36 34 31 29 28 26 25 25 25 24 23 21 20 19 17 16 15 15 14 14 14 14 14 15 15 16 16 18 19
56 56 56 55 53 50 48 49 49 50 51 52 51 50 49 48 46 45 42 41 38 35 33 31 30 28 26 26 26 26 25 24 22 21 20 19 18 17 16 16 16 16 16 17 18 18 19 20 21
55 56 57 55 53 51 49 47 48 50 50 50 51 51 50 49 48 46 44 41 39 37 35 34 32 30 29 28 28 28 27 26 25 24 23 21 21 20 19 18 19 19 19 19 20 21 21 22 23
54 56 56 55 53 51 50 47 48 48 49 51 51 51 51 50 48 47 45 43 40 38 37 36 35 33 31 30 30 29 29 29 27 27 26 24 23 23 22 22 22 22 22 22 23 23 24 25 26
53 56 56 55 53 51 49 46 46 48 48 50 52 52 51 50 48 47 46 44 42 41 39 38 37 35 34 33 32 32 31 31 30 29 29 27 26 25 25 25 25 24 25 25 25 26 27 28 29
50 52 54 54 52 51 49 47 45 48 50 49 51 52 53 51 50 48 47 45 44 43 41 40 38 37 36 35 34 34 33 33 33 32 31 30 30 29 28 28 28 27 27 28 28 29 30 30 31
47 48 50 51 49 49 49 47 46 48 50 49 50 52 53 52 51 49 48 47 46 44 43 42 40 39 38 37 36 36 35 35 35 35 34 33 33 32 32 31 31 31 31 31 32 32 33 34 34
42 44 47 48 47 47 47 46 46 47 48 49 50 51 52 52 52 51 48 47 46 45 43 42 42 40 39 39 38 37 37 37 37 37 37 37 36 36 35 35 34 34 34 34 35 35 36 36 37
41 43 44 45 45 44 45 48 46 46 47 48 48 49 50 50 51 51 50 49 48 47 45 44 42 42 41 41 40 40 40 40 39 39 40 40 39 39 38 38 37 37 37 37 38 38 39 39 40
39 41 41 39 41 42 44 45 46 45 47 47 47 48 47 48 48 49 50 49 48 48 47 45 44 44 43 43 42 42 42 42 42 42 42 42 41 41 41 41 41 41 41 41 41 42 42 42 43
34 37 39 38 38 38 40 41 41 42 45 46 46 46 46 45 46 48 49 49 49 48 48 47 46 45 45 45 45 45 45 44 44 44 44 44 44 44 45 45 45 45 45 44 45 45 45 45 45
30 34 35 35 36 36 37 39 38 39 42 44 45 45 46 46 46 47 48 48 48 49 49 48 48 47 46 46 46 46 47 47 46 46 46 46 46 47 48 48 48 48 47 47 47 47 47 47 47
27 30 32 32 35 35 35 36 37 37 39 40 43 44 45 47 46 47 48 48 47 48 49 50 49 48 49 48 47 47 48 48 48 49 49 48 48 48 49 50 50 50 49 48 48 48 48 48 48
26 28 30 31 33 33 33 35 35 36 38 38 40 42 43 45 46 46 46 46 47 48 48 49 50 50 51 51 51 51 50 50 49 50 50 51 50 50 50 51 51 51 50 50 49 49 49 49 49
25 26 26 27 28 30 31 33 32 34 35 36 37 39 41 43 44 44 44 45 46 47 48 49 49 50 51 52 52 53 52 52 51 52 52 52 52 52 52 52 51 51 51 50 50 49 49 49 49
24 25 25 25 25 26 27 29 30 30 31 32 34 36 38 39 41 43 43 43 44 45 47 48 48 49 49 49 50 50 51 51 52 52 51 51 52 52 52 52 51 51 50 50 49 49 48 48 47
22 24 25 25 25 25 25 26 28 29 29 29 30 33 34 36 38 39 41 42 43 44 45 45 46 48 48 48 49 50 51 51 51 51 51 51 51 51 50 50 50 49 49 49 49 48 48 47 46
21 23 25 26 26 25 24 25 26 26 27 27 28 29 31 33 34 36 37 39 40 42 43 44 44 45 46 47 48 49 50 51 51 51 51 51 50 50 50 50 49 49 49 49 48 48 47 47 46
20 22 24 26 25 24 24 24 23 23 24 25 26 27 29 31 32 33 35 37 39 40 41 42 43 44 45 46 47 48 49 50 51 51 51 51 51 51 51 51 50 50 50 49 48 48 47 46 46

GEFSSGP_500_meanwind_084.txt.gz
Wind_Speed
59 60 60 60 61 61 59 55 51 49 48 47 46 43 40 38 34 32 29 26 24 21 19 17 15 13 11 10 10 9 9 8 8 7 6 6 6 5 5 5 5 4 4 4 4 3 3 3 3
59 60 61 61 63 63 59 54 51 50 49 49 48 45 42 39 35 33 31 28 26 23 20 18 16 14 13 12 11 11 10 9 9 9 8 7 7 6 6 6 5 5 5 4 4 4 4 3 3
58 60 60 62 63 62 57 53 50 50 50 50 50 47 43 39 36 35 33 30 28 25 22 20 18 16 14 13 13 12 11 11 10 10 9 9 8 8 7 6 6 6 5 5 5 4 4 4 4
58 59 60 62 62 58 55 53 51 51 52 51 50 48 45 41 37 35 33 32 29 27 24 22 19 17 16 15 14 13 13 12 12 11 11 10 9 9 8 7 7 6 6 6 5 5 4 4 4
58 59 61 61 59 57 54 54 53 52 53 52 50 48 45 42 39 37 35 32 30 28 26 23 21 19 17 16 15 14 14 13 13 13 12 11 11 10 9 8 8 7 7 6 6 5 5 4 4
58 60 61 60 57 55 54 54 55 53 52 51 50 48 47 43 41 39 37 35 32 30 27 25 22 20 19 18 17 16 15 15 15 14 14 13 12 11 10 9 9 8 8 7 7 6 6 5 5
58 60 59 57 55 55 54 53 53 54 52 51 50 48 46 43 42 41 39 37 34 32 29 26 24 22 20 19 18 17 16 16 16 16 15 14 13 12 12 11 10 9 9 8 8 7 7 6 6
57 58 59 57 56 54 53 53 52 53 53 51 51 49 46 44 41 41 39 38 36 34 31 28 25 23 22 20 19 18 18 17 17 17 16 15 15 14 13 12 12 11 10 10 9 8 8 7 7
57 58 59 56 55 53 52 53 52 52 52 52 52 51 46 45 42 39 39 38 37 35 32 30 27 25 23 22 20 19 19 19 18 18 17 16 16 15 14 13 13 12 11 11 10 10 9 9 9
56 58 56 55 54 53 53 52 53 53 52 53 52 50 49 44 43 40 37 37 37 35 33 31 29 26 24 23 22 21 20 20 20 19 18 18 17 16 15 15 14 13 13 12 12 11 11 11 11
54 55 54 55 54 53 52 52 52 52 52 52 51 50 49 46 42 41 38 36 37 37 35 33 30 28 25 24 23 22 21 21 21 21 20 19 19 18 17 16 15 15 14 13 13 13 13 13 13
53 54 54 54 54 52 52 52 52 52 51 50 51 50 48 46 44 41 40 39 38 37 35 34 31 28 26 25 24 23 22 22 22 22 21 21 21 20 19 18 17 16 16 15 15 15 15 15 16
52 53 54 54 54 51 51 51 51 50 49 49 49 48 48 46 46 44 42 39 38 37 34 33 32 30 28 26 25 24 24 23 23 23 23 22 22 21 21 20 19 18 18 17 17 17 17 18 18
52 54 54 53 53 51 50 50 50 50 49 49 49 47 46 47 46 46 44 42 40 38 36 34 33 32 30 29 27 26 25 24 24 24 24 23 23 23 23 22 21 21 20 20 19 20 20 20 21
51 54 54 53 53 51 50 50 49 49 49 49 49 48 48 46 45 45 44 43 41 39 39 36 35 33 32 30 29 28 27 26 26 25 25 25 25 25 25 24 24 23 23 23 22 22 23 23 23
48 52 53 53 50 50 50 49 48 49 49 49 49 48 47 45 44 45 44 43 43 42 40 38 37 36 34 32 32 31 29 28 27 27 27 27 27 27 26 26 26 26 26 26 26 26 26 26 26
46 48 51 52 49 50 50 49 47 47 48 49 49 48 48 46 44 44 44 43 43 43 42 40 39 39 36 34 33 32 30 30 29 29 29 29 29 29 29 28 28 28 28 28 28 29 29 29 29
44 46 47 48 48 47 48 49 47 48 48 47 47 48 48 47 45 44 44 44 43 42 42 42 40 40 38 36 35 33 32 32 31 31 31 30 30 31 31 31 31 31 31 31 31 32 32 32 32
38 42 42 43 44 44 45 46 46 46 49 47 46 46 46 47 47 46 44 44 43 43 43 43 43 40 38 36 35 35 34 33 33 34 33 33 33 33 33 33 33 33 34 34 35 35 35 35 35
36 40 40 41 41 43 44 45 44 43 46 46 44 45 45 45 46 46 45 44 43 43 42 42 42 42 40 38 36 37 37 36 35 35 35 35 35 35 35 36 36 36 36 37 37 38 38 38 39
33 35 37 37 37 39 42 43 44 42 42 43 44 43 43 44 45 44 45 44 44 44 44 42 40 40 39 39 38 37 38 37 37 37 37 37 37 37 37 38 38 39 39 39 40 41 41 41 41
27 31 33 34 34 35 38 40 43 44 40 39 39 40 41 42 42 43 44 44 44 44 43 43 42 42 41 39 39 37 37 38 38 39 38 38 39 40 40 40 41 41 42 42 43 43 43 43 43
23 26 29 32 32 34 35 37 39 44 42 39 38 38 39 38 39 40 42 43 43 43 43 43 42 43 43 42 41 40 39 40 40 39 39 40 40 40 41 41 42 42 43 44 44 45 45 45 45
21 23 25 28 30 32 33 34 35 37 38 37 37 36 37 37 37 37 40 42 43 43 43 43 43 43 44 44 44 43 42 42 42 43 43 42 42 43 43 42 43 44 45 45 45 46 46 47 47
20 22 23 25 27 29 30 30 31 31 33 35 36 36 35 36 38 38 37 38 40 41 42 43 43 44 44 44 45 45 45 45 44 44 44 44 45 44 45 45 46 46 47 47 48 48 49 49 49
19 21 22 22 22 24 26 26 27 28 30 32 34 35 36 36 37 38 38 38 39 40 41 42 43 44 44 45 46 46 46 46 46 46 46 46 47 47 47 48 49 49 50 50 50 50 50 50 50
19 20 20 20 20 21 23 23 24 25 27 29 31 33 35 36 36 36 38 39 39 40 41 42 43 44 45 46 47 47 47 46 46 47 47 48 48 49 49 50 50 51 51 51 51 50 50 49 49
16 18 18 19 19 20 21 22 23 24 25 28 30 31 33 33 34 35 36 37 39 40 41 42 43 44 45 45 46 47 47 47 47 46 47 48 49 49 49 49 49 49 50 50 50 50 50 49 49
14 16 18 18 19 19 20 21 21 22 24 26 28 30 32 33 34 35 36 37 38 39 40 42 42 43 43 44 45 46 46 47 47 48 48 49 48 49 49 49 49 49 49 50 50 50 50 50 49
15 16 17 19 19 19 20 20 21 22 23 25 26 28 30 32 33 35 36 37 37 38 39 40 41 42 43 43 44 45 46 46 47 48 48 48 48 48 48 48 48 48 49 49 49 49 49 49 49

GEFSSGP_500_meanwind_090.txt.gz
Wind_Speed
51 53 56 58 62 65 66 64 61 58 56 54 53 51 50 47 44 41 38 34 31 28 25 22 20 18 17 15 14 13 12 11 10 9 8 7 6 6 5 5 5 6 6 6 5 5 5 5 4
51 52 56 60 64 67 66 63 60 58 56 55 55 53 51 49 46 42 39 36 33 30 27 25 23 20 18 17 15 14 13 12 11 10 9 8 8 7 6 6 6 6 6 6 6 6 5 5 5
51 53 55 61 66 67 64 61 58 57 58 56 56 55 52 50 47 44 41 38 35 32 29 27 25 22 20 19 17 16 15 14 13 12 11 10 9 8 7 7 7 7 7 7 6 6 6 5 5
49 54 57 61 65 64 61 58 56 58 59 58 57 56 54 50 48 45 42 40 37 34 32 29 27 24 22 21 19 18 16 15 14 13 12 11 10 9 9 8 8 8 7 7 7 7 6 6 6
49 53 59 61 63 60 57 57 58 59 60 59 58 56 54 52 49 47 45 42 39 36 34 31 29 27 24 23 21 20 18 17 16 14 14 13 12 11 10 9 9 9 8 8 8 8 7 7 7
48 51 59 60 58 56 54 55 58 60 60 59 58 56 55 52 49 48 46 44 41 39 36 34 31 29 27 25 23 22 20 19 17 16 15 14 13 12 11 11 10 10 10 9 9 9 8 8 8
47 51 54 55 56 55 54 54 57 59 59 58 58 56 55 52 50 48 47 45 43 40 38 36 33 31 29 27 25 23 22 20 19 18 16 15 15 14 13 12 12 12 11 11 10 10 10 10 10
45 50 52 52 53 54 53 54 54 56 58 57 58 57 54 52 51 49 48 47 45 42 40 38 35 33 31 29 27 25 23 22 20 19 18 17 16 15 15 14 13 13 12 12 12 12 11 11 11
45 49 52 51 50 50 51 53 54 54 57 57 58 58 54 54 52 51 48 47 46 44 42 40 37 35 32 30 28 26 25 23 22 21 19 18 18 17 16 15 15 14 14 14 13 13 13 13 12
45 47 47 48 48 48 50 52 52 53 55 56 55 56 55 53 51 51 49 48 46 45 42 41 39 36 34 32 30 28 26 24 23 22 21 20 19 18 18 17 17 16 16 16 15 15 14 14 14
44 44 43 46 48 49 50 51 52 53 55 54 53 53 53 52 50 50 47 48 46 44 43 41 40 38 35 33 31 29 27 25 24 23 22 22 21 20 20 19 19 18 18 17 17 16 16 16 16
42 42 43 44 47 49 50 49 51 51 53 53 52 52 51 50 47 47 47 49 47 46 44 43 41 39 37 34 32 30 28 27 26 25 24 23 23 22 21 21 20 20 19 19 19 18 18 18 18
40 40 41 43 46 49 49 47 49 49 51 51 50 51 51 49 46 46 46 47 47 46 45 44 43 41 39 36 33 31 30 28 27 26 25 24 24 23 23 22 22 22 22 21 21 20 20 20 20
37 38 40 42 45 47 47 46 47 48 49 49 49 50 50 49 47 46 47 44 45 46 45 44 42 41 39 37 35 33 32 30 29 27 26 25 25 24 24 24 24 24 23 23 23 23 23 23 23
33 36 39 41 45 46 46 47 47 47 48 49 49 48 49 49 46 44 43 43 42 44 44 44 42 40 38 37 36 35 33 32 31 29 27 26 26 26 26 26 25 25 25 25 25 25 26 26 26
30 34 38 41 43 45 45 45 46 47 47 47 47 47 48 49 47 45 42 41 40 40 40 42 41 39 38 38 37 36 34 33 32 31 30 29 28 27 27 27 27 27 27 27 27 28 28 28 28
27 32 35 39 42 43 44 44 44 46 46 46 48 47 46 45 45 43 40 39 39 39 38 39 39 38 37 37 37 37 36 35 34 33 32 31 30 30 29 29 29 29 29 29 30 30 30 30 31
24 28 33 36 38 40 43 43 44 44 46 46 47 47 44 43 42 41 39 38 38 38 36 38 37 37 38 38 38 37 37 37 36 35 34 34 33 32 31 31 31 31 31 32 32 32 33 33 34
21 24 29 32 36 37 39 40 42 40 45 45 45 46 46 43 42 40 39 37 36 37 36 37 37 37 37 37 37 38 37 37 37 37 36 35 35 34 34 33 33 33 34 34 34 35 35 36 36
18 22 25 28 32 34 36 37 39 38 41 44 43 44 44 43 42 41 38 36 36 36 37 36 36 37 37 37 38 38 38 39 38 38 37 37 36 37 37 36 36 36 36 36 37 37 38 38 39
14 19 21 23 28 31 32 33 34 38 39 41 42 42 43 43 42 40 39 38 36 35 35 36 37 37 37 37 38 39 39 39 39 38 37 38 38 36 36 36 37 37 37 38 38 38 38 39 40
12 16 18 20 24 27 29 30 31 34 39 41 41 41 40 41 42 41 39 39 38 36 36 37 37 37 37 37 36 37 39 39 38 38 39 38 38 38 37 38 38 39 39 39 40 40 40 41 41
11 14 15 17 19 22 25 27 29 30 35 38 40 39 38 39 41 41 39 40 40 39 38 39 39 38 38 38 37 36 37 38 39 38 38 40 40 39 39 39 40 41 41 41 41 41 42 43 43
11 12 14 15 16 18 20 23 24 26 27 33 36 38 37 37 38 39 39 39 40 39 38 38 38 38 37 38 38 38 38 38 38 38 37 37 38 39 39 39 41 41 41 42 42 42 43 44 44
10 11 12 15 14 14 17 19 20 23 24 28 32 34 35 35 36 36 38 39 40 39 39 39 38 38 37 38 38 38 38 38 38 37 37 37 37 39 39 39 40 41 41 42 43 44 44 44 45
9 10 11 12 12 12 15 16 17 20 22 24 28 30 33 33 35 36 37 38 39 39 40 40 40 39 39 39 39 38 38 37 37 38 39 39 39 40 41 41 41 42 43 43 43 44 44 45 46
8 8 10 9 10 10 11 13 15 17 20 23 26 29 31 32 33 34 35 36 38 39 40 41 41 41 41 40 40 39 39 39 39 40 41 41 42 42 42 43 44 44 44 45 45 45 46 46 46
7 8 9 9 9 10 10 12 13 16 19 22 25 28 30 31 32 32 34 35 37 38 39 39 40 42 42 42 42 41 41 41 42 42 43 44 44 44 45 45 44 44 45 45 46 46 46 46 46
6 8 8 9 9 10 10 11 13 14 17 20 24 27 29 31 32 33 33 34 35 37 38 39 39 40 41 41 41 41 42 43 44 44 45 45 45 45 45 46 46 46 46 46 46 46 46 47 47
6 7 7 8 8 9 9 10 12 13 15 17 20 23 27 29 31 32 34 35 35 37 38 39 39 40 40 41 41 42 43 43 44 45 45 46 46 47 47 48 47 47 47 47 46 46 46 46 46

GEFSSGP_500_meanwind_096.txt.gz
Wind_Speed
52 51 50 50 53 55 54 52 52 52 51 51 51 51 51 52 50 50 47 43 40 37 34 31 28 26 23 22 20 19 17 16 16 15 13 12 11 10 8 7 6 5 4 4 3 3 3 3 3
52 51 51 52 54 57 54 52 53 52 52 52 53 52 53 53 52 50 48 45 42 39 36 33 31 28 26 24 22 20 19 18 17 16 14 13 12 11 10 9 7 6 5 5 4 4 4 4 4
52 51 52 54 56 56 54 53 53 53 53 53 53 54 55 55 53 51 49 47 44 41 39 36 33 30 28 26 24 22 21 20 19 18 16 15 14 12 11 10 9 7 7 6 5 5 5 5 5
51 52 54 56 56 54 54 54 55 53 54 54 55 56 56 55 54 52 50 48 46 44 41 38 35 32 30 28 26 24 23 22 21 19 18 17 16 14 13 12 10 9 8 7 7 6 6 6 5
51 52 54 56 55 53 54 54 54 53 54 55 57 57 57 56 55 53 52 50 48 46 44 41 37 35 32 30 28 26 25 23 22 21 20 19 17 16 15 13 12 11 10 9 8 7 7 7 7
49 52 54 55 54 52 54 53 54 54 54 56 58 58 58 57 56 55 54 53 50 48 46 43 40 38 35 33 30 29 27 25 24 23 22 20 19 18 16 15 14 13 12 11 10 9 9 8 8
48 49 52 54 52 51 51 52 54 54 53 55 58 59 59 59 58 56 55 54 52 49 48 45 43 40 37 35 33 31 29 28 26 25 23 22 21 19 18 17 15 14 13 12 11 11 10 10 10
46 48 50 51 50 50 49 51 53 54 55 54 57 59 59 59 58 57 57 56 55 51 49 48 45 42 40 37 35 33 32 30 28 27 26 24 23 21 20 19 17 16 15 14 13 13 12 12 12
44 46 46 45 47 47 47 48 51 53 55 57 58 59 60 59 60 57 56 55 55 53 50 49 47 45 42 40 37 35 34 32 31 29 28 26 25 24 22 21 20 18 17 16 15 15 14 14 14
41 43 41 41 43 45 46 47 48 50 55 56 58 58 60 60 60 58 56 56 55 55 53 50 48 47 45 42 40 38 36 34 32 31 30 28 27 25 24 23 21 20 19 18 18 17 16 16 16
38 38 38 40 41 41 43 46 47 49 52 55 57 56 58 60 60 60 56 58 57 56 55 52 50 48 46 44 42 40 38 36 34 33 32 30 28 27 26 24 23 22 21 20 20 19 19 18 18
34 35 36 39 40 40 39 42 45 48 50 52 55 56 57 57 59 63 59 56 57 56 53 52 52 50 48 46 44 42 40 38 36 34 33 31 30 29 27 26 25 24 23 22 21 21 21 20 20
30 31 33 35 36 36 39 40 41 44 47 51 53 54 54 56 55 59 61 58 56 56 52 52 52 52 48 47 46 44 42 40 38 36 35 33 32 30 29 28 27 26 25 24 23 23 23 23 22
24 24 28 30 30 32 36 38 39 41 44 49 52 52 52 54 54 55 57 58 56 53 52 52 52 51 50 47 46 45 43 42 40 38 37 35 34 32 31 30 29 28 27 26 25 25 25 25 25
18 20 23 25 27 29 33 36 36 38 42 46 50 51 51 52 53 52 52 53 52 52 52 52 52 51 51 49 47 46 44 42 41 39 38 37 35 34 33 32 31 30 29 28 28 27 27 27 27
14 16 20 22 26 28 31 33 36 38 41 44 48 49 49 49 50 51 50 48 49 50 49 50 51 51 50 49 48 47 46 43 41 40 39 38 37 35 34 33 32 32 31 31 30 29 29 29 29
11 14 17 20 22 26 29 30 36 38 40 41 45 48 47 46 46 48 47 45 45 46 47 49 49 50 49 48 48 47 47 45 43 41 41 39 37 36 36 35 34 34 33 33 33 32 32 32 32
9 13 14 17 19 23 25 27 32 36 39 40 42 44 45 44 44 45 44 43 43 43 44 46 47 48 48 48 48 48 48 46 44 42 41 39 38 37 37 37 37 36 36 35 35 35 35 34 34
7 9 10 12 17 21 24 25 28 32 36 37 40 41 43 43 42 42 41 40 40 40 39 41 43 45 47 48 47 47 48 46 45 44 43 41 40 39 38 37 37 38 38 37 37 37 37 36 36
4 6 7 11 15 18 21 23 25 29 33 35 37 39 40 42 41 39 38 36 37 36 35 36 38 43 45 46 45 45 46 46 45 44 44 43 42 41 40 40 39 39 39 39 39 39 38 38 38
3 5 7 10 13 17 18 19 22 28 31 32 33 36 39 40 38 37 35 36 36 33 32 33 36 38 41 44 44 43 45 46 46 45 44 44 44 43 43 42 41 41 41 41 40 40 39 38 38
6 6 8 9 11 13 15 15 19 24 27 28 29 33 37 37 36 35 33 34 33 31 31 32 34 35 38 41 44 43 44 45 45 45 45 45 45 44 43 43 42 41 41 41 41 41 40 39 39
9 9 8 10 11 11 12 13 16 21 24 25 27 28 32 34 34 34 33 31 32 30 31 32 34 35 36 40 42 43 44 44 45 45 45 45 45 44 44 43 43 43 43 42 42 41 41 40 41
10 10 10 11 10 10 11 11 14 17 18 21 23 25 28 30 30 30 30 30 30 29 30 30 32 35 36 37 40 41 42 42 43 43 44 44 45 44 44 44 43 43 42 41 41 41 42 41 41
10 11 10 10 11 11 11 11 13 14 16 17 19 22 26 29 29 28 27 27 29 30 29 30 31 34 35 35 37 41 42 41 41 42 42 43 44 43 43 43 44 43 43 42 42 41 40 40 40
11 11 11 12 12 12 11 10 11 11 13 15 17 19 21 24 25 26 26 25 27 28 28 29 30 32 33 34 36 38 40 41 41 41 42 42 42 43 44 44 43 43 43 42 41 40 40 40 40
11 11 11 11 12 11 10 10 10 11 11 12 14 16 18 21 23 24 25 26 27 28 28 28 29 31 32 32 33 36 37 38 39 39 40 41 43 44 45 44 43 42 41 40 40 40 41 41 42
10 11 10 11 12 12 11 10 10 10 11 12 12 13 15 17 18 20 22 24 26 28 28 29 29 30 32 33 34 35 36 37 37 38 38 38 38 39 41 42 42 41 41 41 42 42 42 42 43
11 11 10 10 11 12 11 9 9 9 9 10 13 13 14 16 17 18 20 22 24 27 28 29 30 31 32 34 36 37 37 37 37 38 38 39 39 39 40 40 41 42 43 42 42 43 42 42 43
11 12 11 11 11 11 11 10 9 8 8 8 10 12 14 15 16 18 19 21 23 25 27 29 30 32 34 35 37 38 39 39 40 40 41 41 42 41 42 42 42 42 43 43 43 42 42 42 43

GEFSSGP_500_meanwind_102.txt.gz
Wind_Speed
45 46 47 48 50 51 49 44 42 41 40 40 40 40 40 40 41 43 42 40 38 38 38 37 35 33 31 28 26 24 22 21 20 19 17 16 15 14 13 12 10 9 8 7 6 5 5 4 4
48 48 50 52 53 54 50 46 46 44 44 43 43 43 43 43 43 44 43 41 39 39 40 39 38 36 33 31 28 26 24 22 21 20 19 18 17 15 14 13 12 10 9 8 8 7 6 6 5
50 51 53 55 56 54 51 49 49 48 47 47 46 45 45 45 45 44 43 42 40 40 42 42 40 38 36 33 31 29 26 24 23 22 21 20 18 17 16 15 14 12 11 10 9 8 7 7 7
52 53 55 57 57 53 52 52 51 51 50 49 49 48 47 47 46 46 45 44 42 42 43 43 43 41 39 36 33 31 29 27 25 24 22 21 20 19 17 16 15 14 12 11 11 10 9 9 8
53 54 56 57 56 54 54 54 53 53 52 51 51 51 50 49 48 47 47 46 44 43 44 45 45 43 41 39 36 33 31 29 27 25 24 23 22 21 19 18 17 16 14 13 12 12 11 10 10
53 55 57 57 56 55 56 55 55 55 55 54 53 53 51 51 50 49 48 47 46 45 45 47 47 45 43 41 39 36 33 31 30 28 26 25 24 22 21 20 19 17 16 15 14 13 13 12 11
53 54 55 55 55 55 56 55 55 56 56 56 55 55 52 52 51 50 49 49 49 47 46 48 48 47 45 43 41 38 36 33 32 30 28 27 26 24 23 21 20 19 18 17 16 15 14 14 13
53 54 54 54 55 55 54 55 54 55 55 54 55 55 54 53 52 51 50 50 51 50 49 49 50 48 47 45 43 41 38 36 34 32 31 29 28 26 25 23 22 21 20 19 18 17 16 16 15
52 53 52 51 51 51 51 53 54 54 55 53 54 56 54 54 53 51 50 50 50 51 51 52 51 50 48 47 45 43 41 39 37 34 33 31 30 28 26 25 24 23 22 21 20 19 18 18 17
49 49 47 47 47 48 50 51 51 52 54 54 53 54 53 52 53 52 51 50 51 52 51 52 53 52 50 48 47 45 43 41 39 37 35 33 32 29 28 27 26 25 24 23 22 21 20 19 19
42 42 41 42 44 46 47 48 48 51 53 53 52 52 52 51 52 51 51 51 52 53 53 53 53 53 51 49 49 47 46 43 41 39 37 35 33 31 30 29 28 27 26 25 24 23 22 21 21
36 36 38 39 41 42 44 47 47 49 49 51 51 52 52 50 51 51 52 51 53 54 54 54 53 53 52 50 50 49 48 45 43 41 39 37 35 33 32 31 30 29 28 27 26 25 24 23 23
31 33 34 35 37 39 41 45 47 47 47 50 51 51 52 51 51 51 52 54 55 56 56 55 54 53 53 52 51 50 50 47 45 43 41 39 37 36 34 33 32 31 30 29 28 27 26 25 24
26 27 29 31 33 35 38 40 43 43 43 46 49 49 50 51 50 51 51 53 55 57 57 56 56 55 54 53 52 51 50 50 48 45 43 41 39 38 36 35 34 33 32 31 30 28 27 26 26
22 24 25 27 28 29 34 35 36 37 40 42 45 46 48 49 49 50 51 53 53 56 57 57 56 55 54 54 54 52 50 50 48 47 45 43 41 40 38 37 36 34 33 33 32 30 29 29 28
19 20 21 21 22 24 28 28 28 32 34 36 40 43 45 48 48 48 50 53 53 54 56 56 54 54 54 54 53 52 50 49 49 49 47 45 43 41 40 39 38 36 35 35 34 33 32 31 30
14 15 15 15 17 19 22 21 22 26 29 32 36 39 41 43 46 47 49 50 50 51 54 56 55 52 52 51 50 50 49 49 49 49 48 46 45 43 42 41 39 37 35 34 34 33 32 32 31
10 11 11 12 14 15 16 16 17 22 25 29 32 35 38 39 41 43 45 46 47 47 49 53 54 51 50 51 50 49 48 47 48 48 48 48 46 44 42 41 39 37 36 35 35 34 34 34 33
7 8 8 9 11 11 12 13 14 18 21 25 29 32 34 36 37 38 40 42 44 46 47 49 51 49 48 49 47 47 46 46 47 47 47 46 46 45 43 42 41 40 39 38 37 37 36 36 36
5 5 6 5 7 8 9 10 11 12 15 19 24 27 30 33 34 35 36 39 42 42 43 44 45 46 46 46 45 46 45 44 45 47 46 46 46 45 45 44 44 43 41 41 40 39 39 38 38
2 2 2 2 2 3 4 6 9 9 11 16 20 23 26 28 30 30 31 35 36 39 38 38 39 39 40 42 42 44 46 44 43 44 44 45 46 45 44 43 43 44 43 41 41 41 41 41 41
2 3 2 3 3 3 3 3 4 6 9 12 14 18 20 23 25 27 29 30 31 35 34 34 33 33 35 36 37 40 42 42 42 43 44 45 45 45 44 43 43 44 44 42 42 42 43 43 43
4 5 5 4 4 3 4 3 6 6 7 9 10 12 15 18 21 25 25 25 27 30 30 32 31 30 31 34 34 36 38 39 39 41 43 45 45 45 45 46 46 46 45 44 43 44 45 44 44
6 6 6 5 4 4 4 4 5 6 7 7 8 9 10 13 16 19 20 20 23 26 26 26 29 27 27 31 33 35 36 36 38 40 41 42 43 45 45 44 45 46 46 46 46 45 45 44 43
7 7 7 6 5 5 5 4 5 7 7 7 7 7 8 10 12 13 15 17 21 24 24 25 26 26 27 31 32 34 35 35 37 37 38 40 41 43 45 45 45 46 47 47 47 46 46 45 44
7 7 7 7 6 7 6 5 5 7 9 9 8 6 7 10 11 10 12 16 19 21 23 23 24 25 26 28 31 34 34 34 36 37 37 38 40 42 44 45 45 45 45 45 45 45 45 46 45
8 9 9 9 8 8 8 8 8 8 9 9 7 6 6 6 7 7 9 13 16 18 19 20 21 22 24 25 28 32 33 34 35 36 36 38 41 41 42 43 45 44 43 44 44 45 46 46 45
9 9 9 9 9 9 9 9 8 8 8 7 8 7 7 6 5 5 6 9 12 13 15 17 18 18 19 22 25 28 30 34 36 37 39 38 39 41 42 43 43 43 44 44 45 46 46 47 46
10 9 10 9 9 10 10 10 9 9 8 8 8 8 6 5 4 3 5 6 8 11 13 14 17 19 20 22 25 26 28 30 34 36 37 37 38 40 41 42 42 43 44 46 46 45 46 46 46
9 9 10 10 10 11 11 11 10 9 9 8 7 6 6 5 5 5 5 7 8 11 13 14 15 17 19 22 24 26 26 28 30 32 34 36 37 39 40 42 43 43 44 45 46 47 47 47 47

GEFSSGP_500_meanwind_108.txt.gz
Wind_Speed
45 46 46 46 47 48 45 40 37 35 35 36 36 36 35 35 33 33 31 29 28 27 27 27 27 29 30 30 29 27 25 23 21 19 18 17 15 15 14 14 12 12 11 10 9 8 7 7 6
46 47 48 48 50 50 46 41 39 38 39 40 40 39 39 38 36 34 32 31 29 28 28 28 28 29 31 32 32 30 28 25 24 22 20 19 18 17 16 15 14 13 12 11 11 10 9 8 8
47 48 49 51 51 49 46 42 42 42 43 43 43 42 42 41 39 37 35 33 31 30 30 30 30 30 32 33 34 33 31 28 26 24 23 21 20 19 18 17 16 15 14 13 12 11 10 9 9
47 48 51 53 52 48 46 45 45 45 46 45 45 46 45 43 42 40 38 36 34 32 32 32 32 32 32 33 34 35 34 31 29 27 25 24 22 21 20 19 18 16 15 15 14 13 12 11 11
46 48 51 52 51 49 48 48 49 48 48 48 48 48 48 46 45 43 41 39 37 35 34 33 33 35 35 34 35 36 36 34 32 30 28 26 24 23 22 20 19 18 17 16 15 15 14 13 12
45 47 50 51 49 49 50 50 51 51 51 50 51 50 49 48 47 45 44 43 40 38 36 36 35 36 36 37 36 37 37 37 35 33 30 29 27 25 23 22 21 20 19 18 17 16 16 15 14
45 46 48 49 49 50 50 52 53 53 53 52 52 52 51 51 50 48 46 45 43 41 39 38 37 37 38 38 39 39 39 38 38 35 33 31 29 27 25 24 23 22 21 20 19 18 17 17 16
44 45 46 47 48 49 51 53 54 55 55 55 55 55 53 53 52 51 49 47 45 43 41 41 40 39 39 40 40 41 40 40 39 38 36 33 31 29 27 25 24 23 22 21 20 20 19 19 18
44 45 44 45 47 49 51 53 55 56 56 56 57 57 56 54 54 53 51 49 47 45 44 43 42 41 41 41 42 42 42 42 41 40 38 36 33 31 29 27 26 25 24 23 22 22 21 20 20
44 44 43 45 48 49 51 53 54 56 57 57 57 57 57 56 56 55 54 51 49 47 46 45 45 43 42 42 43 43 43 43 42 41 40 38 36 34 31 29 28 27 26 25 24 23 23 22 22
43 43 43 44 47 49 50 52 53 55 55 56 57 57 57 56 57 57 55 53 51 50 49 47 47 46 44 43 44 45 44 44 44 43 42 40 38 36 33 31 30 29 28 27 26 25 25 24 24
40 40 41 41 44 45 47 49 50 52 52 54 56 56 56 55 56 56 56 54 52 52 51 50 48 48 47 45 46 46 46 46 46 45 43 42 40 38 36 33 32 31 30 29 28 27 27 26 26
36 36 37 38 40 41 43 44 47 48 50 53 55 55 54 54 55 55 55 55 54 52 52 52 50 50 49 47 47 47 47 47 47 46 44 43 42 41 39 36 34 33 32 31 30 30 29 28 28
32 33 34 35 36 38 39 40 42 43 46 49 52 53 53 53 53 54 54 56 55 52 52 52 51 50 50 48 47 48 48 48 48 46 46 45 43 42 41 39 37 35 34 33 32 31 30 30 30
29 30 30 31 33 35 36 36 37 40 44 44 47 49 51 51 53 53 54 54 55 53 52 52 52 50 50 50 49 48 48 48 48 47 47 46 45 44 44 42 39 38 36 35 34 33 32 32 32
25 26 26 27 29 31 31 30 32 36 39 40 43 46 49 50 51 52 53 53 54 53 52 52 51 51 51 51 51 50 49 49 48 48 47 47 46 46 45 43 41 39 38 37 36 35 34 34 33
21 22 22 22 24 25 25 25 27 31 34 36 39 42 44 47 49 51 52 52 52 51 50 51 49 49 51 53 52 52 50 50 49 48 47 47 47 47 47 45 43 42 40 40 39 38 37 36 36
16 16 16 17 18 19 20 20 21 23 27 29 32 36 38 42 45 48 49 49 49 48 49 49 49 48 50 51 52 52 52 52 50 49 49 47 47 47 47 46 45 44 42 42 41 39 38 37 37
12 12 12 12 13 13 13 14 15 18 22 25 26 28 30 34 39 44 45 46 47 46 47 48 47 47 48 50 50 51 51 50 49 49 49 47 48 48 48 47 46 45 44 43 42 41 40 39 39
9 9 10 10 10 9 8 9 10 13 15 17 20 22 24 27 32 37 39 41 43 42 44 47 47 47 48 48 48 50 51 51 50 50 49 47 47 46 47 48 47 46 44 44 43 42 41 40 40
7 7 6 7 7 6 5 5 6 6 8 10 12 14 17 19 24 28 33 36 38 39 41 44 46 46 45 46 47 48 49 50 49 50 49 48 46 46 46 46 47 47 46 46 44 44 43 42 43
4 4 3 3 4 4 4 3 4 3 3 4 6 8 11 14 18 20 24 29 32 36 39 41 43 44 45 44 43 43 44 45 46 46 45 46 45 45 45 45 46 47 47 47 46 46 46 46 46
4 4 3 4 4 4 4 4 5 3 3 3 3 3 6 10 13 17 21 24 27 31 34 38 39 38 40 41 41 41 40 41 43 44 43 43 44 43 43 44 46 47 47 47 48 48 48 48 47
6 6 6 5 5 4 5 5 5 5 5 6 4 4 6 7 10 12 16 20 23 25 28 32 34 35 36 37 37 37 38 39 39 40 41 40 40 41 42 43 44 45 47 49 50 49 49 49 48
6 6 6 6 5 5 5 7 7 7 7 7 7 8 8 8 9 9 11 15 19 21 24 26 27 28 29 31 32 32 35 35 36 37 37 38 39 42 42 43 43 44 47 49 49 51 51 50 50
7 7 6 6 7 7 7 8 7 8 9 9 9 9 10 10 9 10 11 11 13 16 18 21 23 24 25 28 29 28 30 33 35 36 36 38 39 41 41 42 42 44 46 47 48 48 49 50 51
8 7 6 7 9 9 9 8 8 9 10 10 10 10 11 11 10 10 11 10 11 13 15 18 21 22 23 26 26 26 27 30 33 35 35 36 37 38 41 41 42 43 44 45 47 48 49 49 50
9 7 7 9 9 10 10 9 10 10 9 10 9 9 11 11 10 11 11 11 11 12 13 15 17 17 19 23 24 23 25 28 31 33 33 32 34 36 39 39 40 42 45 46 47 49 50 50 50
8 8 8 9 11 11 10 11 12 11 11 11 10 10 11 10 10 12 12 11 10 11 10 12 13 14 16 18 19 20 23 25 27 28 30 31 32 35 37 39 41 43 46 46 48 49 49 50 49
8 9 9 9 11 11 11 11 11 10 11 11 10 10 11 11 11 11 10 9 9 9 9 9 9 10 12 14 16 17 19 22 24 26 27 30 33 35 37 40 42 43 45 47 48 49 50 50 50

GEFSSGP_500_meanwind_114.txt.gz
Wind_Speed
42 43 44 44 46 47 45 42 38 36 37 37 37 37 35 34 33 32 30 28 27 26 25 25 25 25 25 24 24 25 25 23 21 19 17 15 14 13 12 11 10 9 8 8 8 7 7 7 6
43 44 45 46 48 47 45 42 40 40 40 40 40 39 38 37 36 34 32 30 29 28 26 26 26 26 25 25 25 25 25 25 24 22 20 18 17 15 14 13 12 11 10 9 9 9 9 8 7
42 43 45 47 48 46 44 43 42 43 43 42 42 42 41 40 38 36 35 33 32 30 29 27 27 27 27 26 26 26 26 26 25 25 23 21 19 18 16 15 14 13 12 11 11 10 10 10 9
41 42 45 47 46 44 44 44 44 44 44 44 44 44 43 42 40 39 37 36 35 33 32 30 29 29 28 28 27 27 27 27 27 26 26 24 22 21 19 18 16 15 14 13 12 12 12 11 11
41 42 43 44 43 43 43 45 45 45 45 45 45 45 45 44 43 41 40 39 37 36 34 33 31 30 30 30 29 29 29 29 29 28 28 27 25 23 22 20 19 17 16 15 14 14 14 13 12
42 42 43 43 42 42 43 45 46 45 45 46 47 47 46 45 45 44 43 41 40 39 37 36 34 33 32 32 31 30 30 30 30 30 29 28 28 26 24 23 21 19 18 17 16 16 16 15 14
43 43 43 42 42 43 43 45 46 45 46 47 48 48 47 47 47 46 45 44 43 42 40 38 37 36 35 34 33 31 31 31 32 32 31 30 29 28 27 25 23 22 20 19 18 18 18 17 16
44 44 43 42 43 43 44 45 46 47 47 48 49 49 48 48 49 49 48 47 45 44 43 42 40 39 37 35 35 33 32 32 33 33 33 32 31 30 30 28 26 24 23 21 20 19 20 19 18
43 44 43 43 44 44 44 45 46 47 48 49 50 50 49 50 51 51 50 49 48 47 46 44 43 42 40 39 37 36 35 34 33 34 35 34 33 32 32 30 29 26 25 24 22 22 22 21 20
43 43 43 44 45 45 44 45 46 47 48 49 51 52 51 51 52 52 52 51 51 49 48 47 46 45 43 42 41 39 38 37 36 36 37 37 36 35 34 33 31 29 27 26 25 24 24 23 23
43 43 43 45 45 46 46 46 47 48 48 50 52 53 53 53 54 54 54 53 53 52 51 50 49 47 46 45 43 42 40 39 38 37 38 38 38 36 36 34 33 31 30 29 28 26 26 25 25
42 43 44 45 46 46 47 47 47 48 47 50 52 53 54 54 54 55 56 55 55 54 53 52 51 50 48 47 46 44 42 41 41 40 39 39 39 38 37 36 35 34 33 31 30 28 28 28 27
41 41 42 43 44 45 46 47 47 46 49 50 51 52 53 53 54 55 56 57 57 56 56 55 54 53 51 49 48 46 45 45 43 42 41 40 40 40 39 39 38 37 35 34 32 31 30 29 28
38 38 39 40 42 43 44 44 46 45 47 48 49 50 52 53 54 55 56 57 58 58 57 56 55 55 54 52 50 49 48 46 44 43 42 41 40 40 40 40 40 39 38 36 35 33 32 31 31
34 35 36 37 38 38 40 40 42 44 46 47 48 49 50 52 53 54 54 56 57 58 58 57 57 56 55 54 52 50 50 49 46 45 44 43 41 41 41 41 41 41 40 39 38 36 35 34 33
32 32 33 34 35 35 37 36 39 41 42 43 45 47 49 50 52 53 54 54 55 57 58 58 58 57 56 55 53 52 52 51 49 47 45 43 43 42 42 42 42 42 41 41 39 38 37 36 36
28 28 29 31 32 33 35 34 36 37 38 39 40 42 44 46 49 51 53 53 53 54 56 57 57 57 56 56 54 54 52 52 50 49 46 45 44 44 44 43 43 43 43 42 41 40 39 38 37
24 25 27 28 29 30 31 30 32 33 35 35 36 38 40 41 43 47 50 51 51 53 54 55 56 56 56 55 54 53 51 51 50 50 48 47 46 45 45 45 44 43 43 43 43 41 40 39 39
20 21 22 24 24 25 26 26 26 27 30 31 32 33 35 37 39 42 45 47 49 51 52 53 54 54 55 55 53 51 50 50 50 50 50 49 48 47 46 45 44 43 43 43 44 43 42 42 42
17 17 18 18 20 21 21 21 22 23 25 26 27 29 31 33 35 37 40 42 44 47 49 51 52 53 54 55 54 53 52 51 50 51 50 49 48 46 45 44 44 43 44 44 44 44 44 44 44
13 14 14 14 15 15 15 15 16 18 19 20 22 24 26 27 29 32 34 36 39 41 45 48 50 51 52 54 54 55 53 53 52 52 50 49 49 48 47 45 44 44 45 45 45 46 46 47 47
10 11 10 10 10 10 11 10 11 11 13 15 16 18 19 21 23 25 28 30 32 34 38 42 44 47 49 51 52 52 51 51 51 51 50 50 51 50 49 47 46 45 45 46 46 46 47 47 47
7 7 7 6 6 7 7 6 5 7 8 10 11 12 14 16 17 20 22 24 26 28 30 33 36 39 43 46 48 48 49 49 49 50 50 50 50 50 49 47 47 47 46 45 46 46 45 46 47
4 4 4 4 4 4 4 3 2 3 3 4 6 7 8 9 11 14 18 20 21 22 24 26 30 34 37 41 44 45 45 46 47 48 49 47 48 48 47 47 46 45 45 45 44 44 45 45 45
3 3 2 2 2 2 2 1 1 0 1 1 1 3 4 4 4 7 12 16 18 19 21 23 24 27 31 34 37 38 40 41 42 43 43 43 43 43 43 43 43 43 43 44 44 44 45 44 45
3 2 2 2 3 4 3 3 3 3 3 2 1 1 1 1 2 5 8 11 14 15 16 18 18 20 24 27 30 31 32 34 35 37 38 41 41 41 42 43 44 44 44 45 43 43 44 44 45
3 2 2 3 4 4 4 4 4 4 4 3 3 2 2 3 4 6 7 8 10 11 13 14 15 16 18 20 23 25 26 28 30 32 35 37 38 39 40 40 41 42 43 43 43 44 45 46 46
2 2 3 3 4 4 5 4 5 5 5 4 4 4 4 5 6 6 7 7 7 9 10 11 12 12 13 15 17 19 21 23 25 28 30 32 33 35 36 37 38 39 41 43 44 45 46 46 48
3 3 4 5 5 5 5 5 5 5 6 5 5 6 7 8 7 7 7 7 7 8 7 8 9 10 10 10 13 15 17 19 22 24 26 28 30 32 33 35 36 37 39 41 42 44 46 48 50
4 4 5 5 5 4 4 5 5 5 5 5 5 7 7 8 8 8 8 7 7 6 6 7 8 9 10 10 12 14 16 18 20 22 24 26 28 30 32 33 34 36 38 41 44 45 47 49 50

GEFSSGP_500_meanwind_120.txt.gz
Wind_Speed
39 39 39 40 41 42 41 39 37 36 36 35 35 34 33 33 32 32 29 26 25 24 23 22 21 20 20 20 20 20 21 21 21 21 19 18 17 15 14 13 11 10 9 8 7 6 5 5 5
40 40 40 40 42 42 42 40 39 38 38 38 38 37 36 36 35 34 32 29 28 27 26 25 24 23 22 21 22 22 22 22 22 22 21 21 20 18 16 15 14 12 11 10 9 8 7 7 7
40 40 41 41 41 41 41 40 41 41 41 40 40 40 40 38 37 36 35 33 31 30 29 27 26 25 24 23 23 23 23 23 23 23 23 23 22 21 19 17 16 15 13 12 11 10 9 9 9
39 40 40 41 40 40 41 40 41 42 42 42 42 42 41 40 39 38 38 36 34 33 31 30 29 28 26 25 24 24 24 25 24 24 24 23 23 22 21 20 19 17 16 15 13 12 12 11 11
39 40 40 40 39 40 41 41 40 41 41 42 43 44 43 42 41 41 40 39 38 36 35 33 32 30 29 28 27 26 26 26 26 25 25 24 24 24 23 22 21 20 18 17 16 15 14 13 13
40 40 40 39 39 39 40 40 40 41 41 41 43 44 44 43 43 43 43 42 41 40 38 37 35 33 32 30 29 28 27 27 27 27 26 26 25 25 25 24 23 22 21 19 18 17 16 16 16
40 40 39 39 39 40 40 40 41 41 41 41 42 43 43 44 44 44 44 44 44 43 41 40 39 37 35 34 32 31 29 29 28 28 27 27 27 26 26 26 25 24 23 22 21 20 19 19 18
40 40 39 39 40 41 41 41 42 42 42 42 43 43 44 44 45 45 45 45 45 45 44 43 42 40 38 37 35 34 33 32 30 30 29 29 29 28 28 27 27 26 26 25 24 23 22 21 21
41 41 40 40 40 40 41 42 42 43 44 44 45 45 45 45 45 45 45 45 46 45 46 46 45 43 42 40 39 38 36 35 33 32 32 31 31 30 30 29 29 28 28 27 26 25 25 24 23
40 40 40 40 40 41 41 42 43 43 44 45 46 47 46 46 46 47 47 47 47 47 47 47 46 46 45 43 42 40 39 38 36 35 34 33 32 32 32 32 31 30 30 29 28 28 27 27 26
40 39 39 40 41 41 42 42 43 44 45 46 47 48 48 48 48 48 49 49 49 48 48 48 48 48 47 46 45 44 42 41 39 38 36 35 34 34 34 33 33 33 32 31 31 30 30 29 28
39 39 39 40 40 41 42 43 44 45 46 47 48 48 49 50 50 50 50 50 50 50 50 49 49 49 49 48 47 46 46 44 42 41 40 38 37 36 36 35 35 35 35 34 33 32 32 32 31
39 39 39 39 40 41 41 42 44 45 46 47 48 49 50 50 51 51 51 51 51 52 52 52 51 50 50 50 49 49 48 47 45 44 43 42 40 39 38 37 37 37 37 36 35 35 34 33 32
37 38 38 39 40 40 41 41 42 43 45 46 47 48 49 50 51 51 52 52 52 53 53 53 53 53 52 51 51 51 50 49 48 46 45 44 43 42 41 40 39 39 38 38 38 37 37 36 35
34 34 35 36 37 39 39 39 40 42 43 44 45 46 48 50 51 52 52 53 53 53 54 54 55 55 54 54 53 53 52 51 50 48 48 47 45 44 44 42 41 41 41 40 40 40 39 39 38
30 32 33 34 35 37 38 37 39 40 42 42 43 45 47 48 50 50 51 52 53 53 54 55 56 56 57 56 56 55 54 53 52 50 50 49 47 46 45 43 43 43 43 42 41 41 41 40 39
27 29 30 32 33 34 35 35 37 39 40 40 41 43 44 46 47 48 49 50 52 53 53 54 55 56 57 58 57 56 55 54 53 52 51 50 49 48 47 45 44 44 43 43 42 42 41 41 41
24 25 27 29 30 32 33 34 35 37 37 38 39 40 42 43 45 46 47 49 51 53 53 53 54 54 56 58 59 58 56 55 55 53 51 51 51 50 49 48 47 45 45 44 43 42 42 43 42
21 22 24 26 28 29 30 31 32 34 35 36 36 37 38 40 42 44 45 47 49 51 52 52 52 53 55 56 57 58 58 57 56 55 53 52 53 52 51 50 49 48 46 45 44 44 43 42 43
18 19 20 21 24 25 26 28 29 30 31 32 32 33 34 36 38 40 41 43 46 47 49 49 49 50 52 54 56 56 58 58 57 56 54 53 54 54 52 51 50 49 48 46 45 44 44 44 43
15 16 17 18 19 20 22 23 24 25 25 26 28 29 30 32 33 34 36 39 42 44 45 46 48 48 49 51 52 53 55 57 56 55 55 55 54 54 53 52 51 49 47 46 45 44 44 45 44
13 13 14 15 15 16 17 17 19 19 19 20 22 23 24 26 27 29 31 33 36 39 42 43 45 46 47 48 50 52 52 54 53 53 54 54 54 54 52 51 50 50 49 48 48 47 45 44 44
10 10 11 11 11 11 12 13 14 14 14 15 15 17 18 20 22 24 26 27 30 33 36 39 41 43 44 45 46 47 49 49 50 51 52 53 54 53 52 51 50 49 48 47 48 48 47 45 45
6 7 7 7 6 6 7 8 9 10 11 11 11 12 13 15 15 17 19 21 24 28 31 33 35 38 40 42 43 45 46 46 47 48 49 50 50 50 50 50 49 49 48 47 46 46 47 46 46
3 2 3 3 3 3 3 4 4 5 6 8 8 8 8 9 9 11 12 14 16 20 24 26 29 32 34 36 36 39 42 43 44 45 46 47 48 48 49 49 49 48 48 47 46 47 46 45 44
1 1 1 1 1 0 1 1 1 1 3 3 3 4 5 6 5 6 7 9 11 13 16 19 22 26 29 29 31 33 37 39 41 42 43 44 45 47 47 48 49 48 47 46 45 44 43 44 44
1 1 1 1 1 1 1 1 2 2 2 1 1 2 3 3 4 4 4 5 6 8 11 13 16 19 22 24 27 29 31 35 37 38 39 40 42 42 43 44 45 46 45 45 44 44 45 45 46
2 2 1 2 2 1 2 1 1 2 2 3 2 1 0 1 2 3 4 4 5 6 8 9 11 13 15 18 21 22 24 27 30 32 34 36 36 37 38 39 41 42 43 44 45 45 46 47 47
3 3 2 2 2 2 2 2 2 3 3 3 3 2 2 2 2 3 3 3 4 5 7 8 8 10 12 14 17 21 21 22 23 26 27 29 31 33 34 35 37 38 39 40 42 44 45 46 48
5 5 4 4 3 3 3 4 3 4 4 4 3 2 2 2 2 1 2 2 2 4 4 5 6 8 10 12 14 17 18 18 19 21 22 24 27 28 30 32 33 35 36 38 41 42 44 46 47

GEFSSGP_500_meanwind_126.txt.gz
Wind_Speed
39 39 38 38 38 38 37 36 36 35 35 33 32 31 31 32 31 31 28 25 24 23 22 22 21 21 20 20 19 19 19 19 18 18 18 17 16 15 14 13 13 12 12 11 10 9 8 8 8
40 40 40 39 39 38 37 38 38 37 36 35 34 34 34 34 33 33 30 28 27 26 25 24 24 23 22 22 21 20 20 19 19 19 19 19 18 17 16 16 15 14 14 13 12 11 11 10 9
41 41 41 40 39 38 38 39 39 38 37 36 36 37 37 37 35 34 33 31 30 29 28 27 26 25 24 23 23 22 22 21 21 20 20 20 19 19 18 17 17 16 15 15 14 14 13 12 11
42 42 42 41 39 38 39 40 38 39 39 37 38 39 39 38 37 37 36 35 34 32 31 30 29 27 26 25 24 24 23 23 22 22 21 21 20 20 20 20 19 18 17 17 16 16 15 14 13
44 43 43 41 40 40 40 40 38 39 39 38 39 39 39 39 39 38 38 37 36 35 34 33 32 31 29 28 27 26 25 24 24 23 23 23 22 22 21 21 21 20 20 19 18 18 17 16 16
43 43 42 41 40 40 40 40 39 39 39 39 39 40 40 40 40 39 39 39 39 38 37 36 35 34 33 31 30 28 27 26 25 25 24 24 23 23 23 22 22 22 22 21 20 19 19 19 18
42 41 41 40 40 40 40 39 39 39 39 39 39 40 40 40 40 39 40 40 40 40 40 39 38 37 36 35 33 32 30 29 28 27 26 25 25 24 24 24 24 23 23 23 22 22 21 21 20
41 41 41 40 40 40 39 38 37 38 39 39 39 39 40 39 39 39 39 40 41 41 41 41 41 40 39 38 36 34 33 32 31 30 29 28 26 26 25 25 26 25 25 24 24 24 24 23 23
40 41 40 41 41 40 40 39 37 38 38 38 39 40 40 39 40 40 40 40 41 41 42 42 42 42 41 41 39 38 36 35 34 33 31 30 29 28 28 27 27 27 27 26 26 25 25 25 25
40 40 40 41 41 41 41 40 39 39 39 39 40 40 41 40 41 41 40 41 41 41 42 42 43 43 43 42 41 41 39 39 37 36 35 33 32 32 31 30 29 29 28 28 28 28 28 27 26
40 40 40 41 41 41 41 40 40 40 40 41 41 41 42 42 42 42 42 42 43 43 43 43 44 44 44 44 43 43 42 41 40 39 38 36 36 35 33 33 32 31 30 30 30 30 30 29 29
39 40 40 40 41 41 41 40 40 41 41 41 41 41 42 42 43 43 44 44 45 45 45 45 45 46 45 45 45 44 44 43 43 42 40 39 39 38 36 35 35 34 33 32 32 32 32 31 31
38 39 39 39 40 40 41 41 41 41 42 42 42 42 43 43 43 44 44 45 46 46 47 46 46 47 47 47 47 46 45 45 44 43 42 42 41 40 39 38 37 37 36 35 34 33 33 33 33
36 37 38 39 39 39 40 40 41 41 42 43 43 43 43 43 44 44 45 45 46 47 48 48 48 48 48 48 48 47 47 46 46 45 44 43 42 41 41 40 39 39 38 37 37 36 36 35 35
33 34 36 37 38 38 39 40 40 40 41 42 43 43 43 44 45 45 46 46 47 48 49 49 50 49 49 49 49 49 48 48 47 46 46 45 44 44 43 42 41 41 40 40 39 38 38 37 37
30 32 34 35 36 36 37 37 37 38 40 41 43 44 45 45 45 46 46 47 48 48 49 50 51 51 51 51 51 51 51 50 49 48 48 47 46 46 45 44 43 43 43 42 41 40 39 38 39
27 29 30 32 33 34 35 35 36 37 38 39 41 43 44 45 46 47 47 48 48 48 49 50 51 51 51 52 52 52 52 52 51 51 50 50 49 48 48 47 45 44 44 44 43 42 41 41 40
24 25 27 28 30 32 33 34 34 35 37 38 39 40 42 43 44 46 47 48 48 49 49 50 50 51 52 52 52 52 52 53 53 52 52 52 52 51 50 49 47 45 45 44 44 43 43 43 43
22 23 25 27 28 30 31 32 33 34 36 37 38 39 39 40 41 43 45 46 47 48 49 50 50 51 52 52 52 52 52 52 52 53 53 53 53 52 52 52 50 48 47 46 45 45 45 45 44
19 20 22 24 25 27 28 29 31 32 34 35 36 37 37 38 39 40 40 42 44 45 46 48 49 50 50 51 51 51 51 52 52 53 53 53 54 54 53 53 52 51 50 49 48 47 47 47 45
15 16 17 19 21 23 25 26 28 30 32 32 33 34 34 35 36 36 36 37 38 40 42 44 46 47 48 49 50 51 50 50 51 52 53 54 54 54 55 54 53 53 53 52 51 49 48 47 46
12 13 14 15 17 18 20 22 23 26 27 28 28 29 30 31 32 32 33 33 34 35 37 39 42 44 47 48 49 50 50 49 49 49 51 53 55 54 54 53 53 53 52 51 51 50 50 49 48
10 10 12 13 14 15 16 18 18 20 22 23 24 24 24 25 27 28 29 30 30 32 34 36 38 40 42 44 46 47 47 48 48 47 48 49 50 50 50 51 51 51 51 51 52 51 51 50 49
8 9 10 11 11 12 13 14 14 14 16 18 19 20 21 21 22 23 25 26 27 28 30 32 34 36 38 39 41 42 43 43 43 43 43 44 46 47 47 47 47 48 49 50 51 52 52 50 49
6 7 8 9 10 10 10 12 13 13 13 14 15 17 18 18 19 20 21 22 23 24 25 26 28 30 32 33 35 37 39 39 40 41 41 42 44 45 45 46 46 46 48 48 49 50 50 50 49
4 5 6 7 8 9 8 10 10 11 11 11 12 13 14 14 15 16 16 17 18 19 20 21 23 25 27 29 31 33 36 36 37 39 39 40 42 44 45 46 46 45 46 47 49 50 49 49 49
2 3 4 5 6 6 7 8 8 8 8 9 10 10 10 11 11 12 12 13 14 16 17 18 19 20 22 24 26 28 30 32 33 36 37 39 40 41 41 42 43 43 44 45 46 48 48 48 47
2 3 4 4 4 6 7 7 8 7 7 8 9 9 8 8 9 9 10 11 12 13 13 14 15 16 18 20 21 23 24 26 28 32 35 36 37 38 39 39 40 41 43 43 44 44 44 45 46
4 4 4 4 5 5 6 7 8 7 8 8 8 8 7 7 7 7 8 8 8 8 8 10 11 13 14 15 16 18 18 20 22 25 27 29 31 32 34 35 36 37 39 40 40 41 42 42 43
4 4 5 5 5 6 6 7 8 7 8 8 8 7 8 8 7 6 7 6 7 7 6 7 8 8 10 11 13 14 15 16 17 19 21 24 27 29 30 32 32 33 34 35 36 37 39 40 41

GEFSSGP_500_meanwind_132.txt.gz
Wind_Speed
41 39 38 38 38 38 36 34 32 31 31 30 29 28 28 27 27 26 23 20 19 19 19 19 18 18 18 18 17 17 17 17 17 16 16 15 15 14 13 13 12 12 11 11 11 11 10 10 9
43 41 40 39 39 38 36 34 33 32 32 32 31 30 30 29 29 27 25 23 22 21 21 20 20 20 20 20 19 19 18 18 18 18 18 17 17 16 15 15 14 14 13 13 13 12 12 12 11
44 43 42 41 40 38 37 36 35 34 34 33 32 32 31 31 30 29 27 26 25 24 23 23 22 22 21 21 21 20 20 20 20 19 19 19 19 18 17 17 16 15 15 15 14 14 13 13 13
45 44 44 43 41 38 38 37 36 36 35 34 33 33 33 32 31 31 30 29 28 27 27 26 25 24 24 23 22 22 22 21 21 21 20 20 20 19 19 18 18 18 17 17 16 16 15 15 15
45 45 44 43 41 39 39 38 37 37 36 35 35 34 34 33 33 32 32 31 30 30 29 29 28 27 26 25 24 23 23 23 23 22 22 21 21 20 20 20 19 19 19 19 19 18 17 17 16
45 45 45 43 42 40 39 39 37 37 36 36 36 35 34 34 34 33 33 32 32 31 32 32 31 30 29 28 27 26 25 25 24 24 23 22 22 22 21 21 21 21 20 20 20 20 20 19 18
44 44 44 43 42 41 39 39 38 37 37 36 36 36 35 35 35 34 33 33 33 33 33 33 33 33 32 31 30 29 28 27 27 26 26 25 24 24 23 23 22 22 22 22 22 22 22 21 21
43 43 43 42 41 40 39 39 39 38 37 36 36 35 35 35 35 35 35 34 34 34 34 34 35 35 35 34 33 32 31 30 30 29 29 28 27 26 26 25 24 24 23 23 23 24 23 23 23
41 42 42 41 40 39 39 39 39 38 37 36 36 36 35 35 35 35 35 35 35 35 34 35 35 36 36 36 36 35 34 33 33 32 31 31 30 29 28 27 27 26 25 25 25 25 25 25 24
40 40 40 40 39 39 38 38 38 38 37 37 36 36 36 36 36 36 36 36 35 35 35 35 36 36 37 37 37 37 37 36 35 35 34 34 33 32 31 30 30 29 29 28 27 27 27 27 26
38 38 39 39 39 39 39 38 38 38 38 37 37 37 37 36 36 36 36 37 37 36 36 36 37 37 37 37 38 38 38 38 38 37 37 36 36 35 33 33 33 32 32 31 30 29 29 29 28
36 36 37 38 38 39 38 38 38 38 38 38 38 38 37 37 37 37 37 38 38 38 38 38 38 38 39 39 39 39 39 40 40 40 39 38 38 37 37 36 36 35 34 34 33 33 32 31 31
35 35 36 36 37 38 38 38 38 38 39 39 38 38 38 38 38 38 39 39 39 39 39 39 39 40 41 41 41 41 40 41 41 41 40 40 39 39 39 39 38 38 37 37 36 36 35 34 33
33 34 35 36 36 36 37 38 38 38 39 39 39 39 39 39 39 39 39 40 40 40 41 41 41 41 42 42 43 43 43 42 42 42 42 42 41 41 41 41 40 39 39 39 38 37 38 37 36
31 32 33 34 35 35 36 36 37 38 38 38 39 39 39 40 40 40 40 41 41 42 42 43 43 43 43 43 44 44 44 44 43 43 43 43 43 43 42 42 42 41 41 40 40 39 39 39 38
28 30 30 31 33 34 35 35 36 36 37 38 38 39 40 40 40 41 41 42 43 43 43 44 45 45 45 45 45 45 45 45 45 45 44 44 44 45 44 44 43 43 43 42 41 41 41 41 40
24 26 27 28 30 31 33 33 34 35 36 36 37 38 40 40 41 42 42 43 44 44 45 45 46 47 47 47 47 47 47 47 47 47 46 46 46 45 45 45 45 45 45 44 43 43 43 43 42
20 22 24 26 27 28 30 31 32 33 35 35 36 38 39 40 41 41 42 44 45 45 46 46 47 47 48 48 48 49 48 48 48 48 48 48 48 47 46 46 46 46 46 45 45 45 45 44 44
18 19 21 23 25 25 27 28 29 31 33 34 35 37 38 39 40 40 41 42 43 44 45 46 47 47 47 48 49 49 49 49 49 49 50 50 49 49 49 48 47 48 47 46 47 47 47 46 45
17 17 17 18 20 22 24 25 27 29 31 33 34 35 36 37 37 38 40 41 42 42 43 44 46 47 47 48 49 50 50 50 51 51 51 51 51 51 51 49 48 49 49 49 48 49 48 46 46
15 15 15 16 17 19 21 23 24 26 28 30 31 32 33 34 35 36 37 39 40 41 42 42 43 45 46 47 49 50 51 51 51 52 52 52 53 53 53 52 51 50 50 51 51 50 49 49 49
12 14 14 15 16 18 19 20 21 23 24 25 27 28 30 31 32 33 34 35 36 37 39 40 41 42 43 45 46 47 49 50 51 51 52 52 52 53 54 54 54 53 51 51 50 50 50 50 50
10 12 13 14 15 17 18 19 19 20 21 22 23 24 25 27 28 29 31 32 33 34 36 38 39 39 40 42 43 43 45 47 48 49 49 49 49 49 51 51 51 51 51 51 50 50 50 50 51
8 9 10 10 12 13 15 16 15 16 17 18 19 20 22 24 25 26 28 29 30 30 32 33 35 36 37 38 39 40 42 43 44 46 46 47 46 46 46 47 48 49 50 50 49 49 49 49 50
7 8 8 8 8 9 10 11 12 12 14 15 16 17 18 20 21 23 25 25 26 27 27 29 30 31 32 34 35 36 37 38 39 41 43 44 45 44 44 44 45 46 48 48 48 48 48 48 49
6 6 7 7 7 8 9 10 9 11 12 12 13 14 15 17 18 19 20 21 22 23 24 24 25 26 27 28 30 31 32 34 35 37 39 40 40 41 42 42 43 45 45 47 48 48 48 48 48
4 5 6 7 7 8 8 9 9 9 10 11 11 12 13 14 15 16 17 17 17 18 20 21 21 23 25 26 27 28 29 31 32 34 35 37 38 39 40 41 41 42 43 44 45 47 48 49 50
3 4 5 6 7 7 7 7 8 9 9 9 9 9 10 10 12 12 14 15 15 15 16 18 19 20 22 24 25 26 27 28 30 31 32 34 36 37 37 38 39 40 40 42 44 46 47 47 49
3 4 5 6 7 7 7 7 7 7 7 7 8 8 9 9 10 11 11 12 12 12 13 14 15 16 17 19 21 22 24 26 27 28 29 30 31 33 33 34 37 38 39 40 41 42 43 44 44
4 4 6 6 7 7 7 6 7 7 7 7 7 7 8 8 8 8 9 10 10 9 9 9 11 12 13 14 16 17 18 20 21 22 23 24 26 27 29 30 32 33 34 35 36 37 39 40 40

GEFSSGP_500_meanwind_138.txt.gz
Wind_Speed
43 43 43 42 42 42 39 36 34 32 31 29 29 28 27 26 25 24 22 20 19 19 18 18 17 17 17 17 16 15 14 14 13 13 12 12 11 11 11 11 11 11 10 10 9 9 9 9 9
44 43 44 44 43 42 40 37 36 34 33 31 31 30 29 28 27 25 24 22 21 21 20 20 19 19 18 18 18 17 17 16 15 15 14 13 13 13 13 13 13 13 12 12 11 11 11 10 10
44 44 44 45 44 41 39 38 37 35 34 33 32 31 31 30 29 28 26 25 24 23 23 22 21 21 20 20 19 18 18 17 17 17 16 16 15 15 14 14 14 14 14 14 13 13 13 13 12
44 45 45 45 43 41 40 39 37 36 36 34 33 33 32 31 31 30 29 27 27 26 25 25 24 23 22 22 21 21 20 19 19 19 18 18 18 17 17 16 15 15 15 14 15 15 15 15 15
44 45 45 44 43 41 40 39 38 37 36 35 34 34 33 32 32 31 30 30 29 28 28 27 27 26 25 24 23 22 22 21 21 20 20 20 20 19 19 18 18 17 17 16 16 16 16 16 17
44 45 44 43 43 41 40 39 38 37 36 35 34 34 33 33 33 32 31 30 30 30 30 29 29 28 27 27 26 25 24 23 23 22 22 21 21 21 21 21 20 20 19 19 18 18 18 18 18
44 44 43 42 42 41 40 39 38 37 36 35 34 34 33 33 33 32 32 31 31 31 30 30 30 30 30 29 28 27 27 26 25 25 24 23 23 23 22 22 22 22 21 21 21 21 20 20 20
43 43 42 42 42 41 40 39 38 37 36 35 34 34 34 33 33 33 32 32 31 31 31 31 31 31 31 31 30 30 29 28 28 27 27 26 25 25 25 24 24 24 24 23 23 23 23 23 23
42 42 42 41 41 41 40 39 38 37 36 35 35 35 35 35 34 34 34 33 32 32 32 32 32 32 32 32 32 31 31 30 30 30 30 29 28 28 28 27 27 26 26 26 25 25 25 25 25
41 41 40 40 41 41 40 39 38 37 36 36 35 35 35 35 35 35 35 34 34 33 33 33 33 33 33 33 33 33 32 32 32 32 32 32 32 31 31 30 30 30 29 29 28 28 27 27 27
40 39 38 39 39 40 40 39 38 38 37 36 36 36 36 36 36 35 35 35 35 35 34 34 34 34 34 34 34 34 34 34 34 35 35 34 34 34 33 33 33 33 32 32 31 31 30 30 29
38 38 37 37 38 38 39 39 38 38 38 37 36 36 36 37 36 36 36 36 36 36 36 36 36 36 36 36 36 36 36 36 36 36 36 37 36 36 36 36 35 35 35 34 34 34 33 33 32
35 35 36 36 36 37 38 39 39 38 38 37 37 37 37 37 37 37 37 37 37 37 37 37 37 37 37 37 37 37 37 37 37 37 38 38 37 37 37 37 37 36 36 36 36 36 36 35 34
33 33 34 35 35 36 36 38 38 38 37 37 37 37 37 37 37 38 37 37 38 38 38 38 38 38 38 39 39 38 38 38 38 38 39 39 39 39 39 39 38 38 38 38 38 38 38 37 37
29 31 32 33 34 34 35 36 37 38 37 37 37 37 37 37 37 37 37 37 38 38 38 39 39 39 40 39 39 39 39 39 39 39 40 40 41 41 41 40 40 40 39 39 39 39 40 39 39
26 29 30 31 32 32 33 34 36 37 37 37 37 37 36 36 37 37 37 38 38 39 39 40 40 40 41 41 41 41 41 41 42 42 42 42 41 42 42 42 42 42 41 41 41 41 41 41 40
24 26 29 30 31 31 32 32 33 35 36 36 37 37 37 37 38 38 38 38 39 40 40 40 41 42 43 43 44 44 44 43 43 44 44 44 43 43 43 43 43 44 44 43 43 43 43 42 42
22 23 25 28 29 30 30 30 31 33 34 35 36 36 37 37 38 39 39 39 40 40 41 41 42 43 43 44 45 46 46 46 46 46 46 46 46 46 45 45 45 45 45 45 45 45 45 44 44
19 20 22 24 27 28 29 29 30 31 32 33 35 36 36 37 37 38 39 39 40 41 41 42 43 43 44 45 46 47 47 48 48 48 48 48 48 48 48 48 49 48 48 48 47 47 46 46 46
17 18 19 21 23 25 27 28 28 29 30 31 33 34 35 36 36 37 38 39 39 40 41 42 43 44 46 46 46 45 46 47 48 49 49 49 50 50 51 51 51 51 50 50 49 50 49 47 47
15 16 18 18 20 22 24 25 26 27 28 30 31 32 33 34 35 36 36 37 38 39 40 41 42 43 44 44 45 45 45 46 47 47 48 49 50 50 51 51 51 51 52 51 51 51 51 49 49
12 14 15 17 18 20 22 23 24 25 27 28 29 30 31 32 32 32 33 34 35 37 38 39 40 41 41 43 43 44 43 44 45 46 47 47 48 49 49 49 50 51 52 52 52 51 51 51 51
11 12 13 15 17 18 19 22 22 23 24 25 26 27 28 29 30 30 31 32 34 35 36 36 37 38 40 40 41 41 42 42 42 43 44 45 46 47 47 48 49 49 50 51 51 52 51 50 50
10 10 12 13 15 16 17 19 18 20 22 23 24 24 25 27 28 29 31 32 32 33 34 35 36 36 37 37 38 39 39 40 41 41 42 43 44 45 46 46 47 47 48 49 50 51 51 50 51
8 10 11 12 13 14 15 17 16 18 19 21 22 23 24 25 27 29 29 30 31 31 32 33 32 32 33 34 34 35 37 38 38 39 39 40 41 42 43 44 44 44 45 46 47 49 50 50 50
6 9 10 12 12 13 14 15 15 17 19 20 21 22 23 25 26 27 28 28 29 30 30 29 29 29 30 31 32 33 34 35 36 36 37 37 37 38 39 40 40 40 40 41 44 46 47 47 48
6 8 9 11 12 13 14 14 15 16 18 18 19 19 20 21 23 24 25 26 27 27 27 28 28 28 29 29 30 30 31 32 33 34 35 35 35 36 37 36 37 38 39 40 40 41 43 45 45
7 8 9 11 12 12 12 13 14 15 16 17 17 18 19 20 21 22 23 24 24 25 25 26 27 28 28 28 28 28 28 29 30 30 31 32 33 34 34 34 36 36 37 37 38 40 41 42 43
8 8 9 10 11 12 11 11 13 14 14 15 16 17 18 19 20 20 21 22 22 22 23 23 23 24 24 25 25 26 26 27 27 27 28 29 30 31 32 33 34 35 35 36 37 37 38 39 40
8 9 10 11 12 13 13 12 12 13 14 14 15 16 17 18 18 18 19 19 20 21 21 21 21 21 22 23 23 24 24 24 24 24 26 28 29 30 31 32 32 33 33 33 33 34 35 36 37

GEFSSGP_500_meanwind_144.txt.gz
Wind_Speed
44 43 42 41 41 41 40 39 36 35 33 32 30 28 26 25 24 23 22 21 20 19 18 17 17 16 16 15 15 14 14 13 13 13 12 12 11 11 10 10 10 10 10 10 10 10 10 10 9
45 44 43 43 42 42 40 39 37 36 35 33 32 30 28 27 25 24 22 22 21 21 20 19 18 18 17 17 17 16 15 15 15 14 14 13 13 12 12 12 11 11 11 11 11 12 12 12 12
45 45 44 44 43 42 40 39 39 37 36 34 33 32 30 29 27 25 24 23 22 22 21 21 20 19 19 19 18 18 17 17 16 16 16 15 15 14 14 13 13 13 13 12 13 13 13 14 14
44 45 45 45 43 42 41 39 39 38 36 35 34 33 32 30 28 27 26 25 24 23 23 22 22 21 21 20 20 20 19 19 18 18 17 17 16 16 16 16 15 15 15 15 14 14 15 15 15
44 44 44 44 44 42 41 40 39 38 37 35 35 33 32 31 30 29 28 27 26 25 24 24 23 23 23 22 22 22 21 21 20 20 20 19 19 18 18 18 18 18 18 18 17 17 16 17 17
43 44 44 43 43 42 41 40 39 38 36 35 35 34 33 32 31 30 29 29 27 27 26 26 26 25 25 25 24 23 23 23 23 22 22 22 22 21 21 21 21 20 20 20 20 20 19 19 19
43 43 43 42 42 41 41 40 38 37 36 35 35 34 33 33 32 31 30 30 29 29 28 27 27 27 27 26 26 26 25 25 25 25 25 25 24 24 23 23 23 23 23 22 22 22 22 22 21
42 42 41 41 41 41 40 40 39 37 36 35 35 34 33 32 32 32 31 31 30 30 30 29 29 29 29 28 28 28 28 27 27 27 27 27 27 26 26 25 25 25 24 25 25 24 24 24 24
39 41 41 40 39 39 39 38 38 37 36 35 34 34 33 32 32 32 32 31 31 31 31 31 30 30 30 29 29 29 29 29 29 29 29 29 29 28 28 28 28 27 27 27 27 27 26 26 27
38 38 39 39 38 37 37 37 37 36 36 35 34 34 33 33 33 33 32 32 31 31 31 31 30 30 30 30 30 30 30 30 29 30 30 30 31 30 30 30 30 30 30 29 29 29 29 29 29
36 36 36 37 37 36 36 36 36 36 35 34 34 34 33 33 33 33 32 32 32 31 32 32 32 32 32 31 32 31 31 31 31 31 31 31 31 32 32 31 32 32 31 31 31 31 31 31 31
35 34 33 34 35 34 34 35 35 36 35 34 34 34 33 33 33 32 33 33 33 33 33 33 33 33 33 33 33 34 33 33 33 33 33 33 33 33 33 33 34 34 34 33 33 33 33 33 33
32 33 32 31 32 33 33 34 34 35 35 34 34 33 33 33 33 33 33 33 34 34 34 35 34 34 34 34 35 35 35 34 34 34 35 35 34 34 35 35 35 35 35 35 35 35 35 35 35
30 32 31 30 31 31 32 33 33 34 34 34 34 33 33 33 33 33 33 34 34 34 34 35 35 35 35 35 35 35 35 35 35 36 36 36 36 35 36 36 36 36 37 37 37 37 38 38 38
28 29 29 29 29 30 31 32 32 33 34 34 33 33 33 34 33 33 33 33 33 34 34 34 35 35 36 36 36 36 37 37 37 38 38 38 38 38 38 38 38 38 38 39 39 39 39 39 40
25 26 27 28 28 29 30 30 32 32 33 34 34 34 33 33 33 33 33 33 33 33 34 34 35 36 36 36 37 37 38 38 39 40 40 40 40 41 41 41 40 40 40 40 41 41 41 41 42
23 25 25 25 26 28 29 29 31 32 32 33 34 34 33 33 33 33 33 33 33 33 33 34 35 36 36 37 38 39 40 40 41 41 41 41 42 42 42 42 42 42 42 43 43 44 43 43 43
20 23 24 24 25 26 28 29 29 30 31 31 32 33 33 33 33 33 33 33 33 33 33 34 35 36 37 38 39 40 41 42 42 42 42 42 42 43 43 44 44 44 43 44 45 45 44 45 45
16 20 22 22 23 24 26 27 28 29 29 29 30 31 32 32 33 33 33 33 34 35 35 35 36 37 37 38 39 40 41 42 43 43 43 43 44 44 44 44 44 45 45 45 45 46 46 46 46
13 16 19 21 21 22 24 25 25 26 27 28 29 30 30 31 32 33 33 33 34 34 35 35 36 36 37 37 38 39 40 41 42 42 43 43 44 45 45 45 45 45 45 46 47 47 47 48 48
11 13 16 18 20 21 22 23 24 24 26 26 27 28 30 31 32 33 33 33 33 33 34 34 35 35 35 36 37 38 39 39 40 41 42 43 43 43 43 43 45 46 46 46 47 48 49 49 49
9 11 13 15 16 18 20 21 22 24 25 26 26 27 29 30 31 32 32 33 33 33 33 33 34 34 34 35 36 36 37 38 38 39 39 40 41 41 41 42 43 44 45 45 46 46 47 48 48
7 8 10 11 13 15 17 19 20 22 23 24 24 25 26 27 28 29 30 30 31 32 33 33 33 33 33 34 35 36 36 37 37 37 37 38 39 39 40 40 41 42 42 43 44 45 45 45 46
6 8 9 11 12 13 15 16 16 18 20 22 23 23 24 25 26 27 28 29 30 31 31 32 33 33 33 33 34 34 35 36 36 37 37 38 38 38 39 40 40 40 41 41 42 42 43 43 44
5 6 8 10 11 12 14 15 15 16 18 19 21 22 23 25 25 26 27 28 28 29 29 29 30 31 32 32 32 33 33 34 35 35 36 37 37 38 38 38 38 39 40 40 41 41 42 42 43
5 6 8 9 10 11 13 14 15 16 17 19 20 21 23 24 24 25 25 26 27 27 28 29 29 30 30 31 31 32 32 33 33 34 35 35 36 36 36 37 37 37 38 39 40 41 41 42 42
5 6 8 10 11 12 13 14 15 16 17 18 20 21 22 22 23 24 25 25 26 27 27 28 29 29 30 30 31 31 31 31 32 32 32 32 33 34 36 36 37 37 37 37 38 40 40 40 40
6 7 8 9 10 11 12 13 14 15 16 17 18 19 20 20 21 22 23 24 25 26 26 27 28 28 29 30 30 31 30 31 31 31 31 32 33 34 34 36 36 37 37 37 38 38 39 40 40
7 8 9 10 10 11 11 11 13 14 15 16 16 17 18 18 18 19 21 22 23 24 25 26 27 28 29 30 30 30 31 30 30 30 30 30 31 32 32 33 34 34 35 35 36 37 37 38 38
8 9 10 11 11 12 12 11 12 12 13 13 14 15 16 17 17 18 19 20 21 23 24 25 27 28 29 29 30 30 30 31 30 30 30 30 30 30 31 32 32 33 33 33 34 35 35 35 36

GEFSSGP_500_meanwind_150.txt.gz
Wind_Speed
43 42 41 41 41 43 42 39 37 36 34 34 32 31 29 27 25 25 24 22 21 19 18 18 16 16 15 15 14 14 13 13 13 12 12 12 12 11 11 11 11 11 11 11 11 11 11 11 11
42 42 41 42 42 43 41 38 38 37 35 34 34 33 31 29 27 27 25 23 22 21 20 19 18 18 17 16 16 15 15 15 14 14 13 13 13 13 13 13 13 13 12 12 12 12 12 12 12
41 41 41 42 42 42 39 39 39 37 36 35 34 33 31 30 29 27 25 24 23 22 21 21 20 19 18 18 17 17 16 16 16 15 15 15 15 15 15 15 15 14 14 14 14 14 14 14 14
41 40 41 41 41 40 39 39 40 38 36 36 35 33 32 32 30 28 26 25 24 23 22 22 21 20 20 19 19 18 18 18 18 17 17 17 17 16 16 16 16 16 16 16 16 16 16 16 16
40 41 41 41 39 39 38 39 37 37 37 36 35 33 32 32 30 29 27 26 25 24 23 22 22 21 21 21 20 20 20 20 20 19 19 19 19 18 18 18 18 18 19 18 18 18 18 18 18
40 41 41 40 38 38 39 39 37 36 37 36 35 34 33 32 31 29 27 27 26 25 24 24 23 23 23 22 22 22 21 21 21 21 21 21 21 21 21 21 21 21 21 21 21 21 21 21 21
39 40 40 39 38 38 39 38 36 36 37 37 35 35 34 33 31 30 29 28 27 26 25 25 24 24 24 24 24 24 23 23 23 23 23 23 23 23 23 24 23 23 23 23 23 23 23 23 23
36 38 38 38 38 38 38 37 36 36 36 36 36 34 33 32 32 31 30 29 28 27 26 26 25 25 25 25 25 25 25 25 25 25 25 25 25 25 25 25 26 26 26 26 25 25 25 25 24
34 36 37 37 37 36 37 36 36 36 36 36 35 34 33 32 31 31 31 30 30 29 28 28 27 27 27 27 27 27 27 27 27 27 27 27 27 27 27 27 27 28 28 28 27 27 27 27 26
31 33 34 35 36 35 35 35 35 35 35 35 34 34 33 32 31 31 31 31 30 30 29 29 29 29 28 28 28 28 29 29 29 29 29 29 28 29 29 28 28 28 29 29 29 29 28 28 28
29 32 33 34 34 34 34 34 35 34 34 34 33 32 32 32 32 31 31 31 31 31 30 30 30 30 30 30 30 30 30 30 30 30 30 30 30 30 30 29 29 30 30 30 31 31 30 31 31
27 29 31 32 31 31 32 33 34 35 33 33 32 32 32 32 32 31 31 31 32 31 31 31 31 31 31 31 31 31 31 31 31 31 31 31 31 31 31 31 32 31 31 31 31 32 33 33 33
25 26 28 28 28 28 30 31 32 32 32 32 32 32 32 32 32 31 31 32 32 32 32 32 32 32 32 32 32 31 32 32 32 32 32 32 32 32 33 33 33 33 33 33 33 33 34 34 35
23 24 25 25 25 25 26 28 29 30 31 32 32 32 31 32 32 32 31 31 32 32 32 32 32 32 32 32 32 32 32 33 33 33 33 33 33 33 33 33 34 35 35 35 35 35 35 35 36
21 22 23 23 23 23 24 25 26 27 29 31 31 31 31 32 32 32 31 31 32 32 32 32 32 32 32 32 33 33 32 33 33 33 33 33 33 34 35 35 36 36 36 37 37 37 37 37 38
20 21 22 23 22 22 23 24 24 25 27 29 30 31 31 32 32 32 31 31 31 32 32 32 32 32 32 33 33 33 32 32 32 33 34 34 35 35 36 36 37 37 37 38 39 39 38 38 39
17 19 20 21 21 21 23 23 23 25 26 27 29 30 31 31 31 31 31 31 31 32 32 32 32 32 33 33 33 33 34 34 33 34 35 35 36 36 37 38 38 39 39 39 40 41 40 39 39
14 16 19 20 20 20 22 22 23 24 25 27 28 29 30 30 30 30 30 31 31 31 31 32 32 32 33 33 33 33 33 34 35 35 35 36 36 36 37 38 39 40 40 40 40 40 41 40 41
13 14 16 17 18 20 21 22 23 24 25 25 26 27 29 29 30 30 30 30 31 31 31 32 32 32 32 32 32 33 34 34 35 35 36 36 36 37 38 38 39 40 40 40 40 39 40 40 41
12 12 14 16 17 19 20 21 23 23 24 24 26 27 28 29 29 30 30 30 31 31 31 32 32 32 32 32 33 33 34 34 35 35 35 36 37 38 39 39 38 39 40 39 40 40 40 41 41
10 11 12 14 16 18 19 20 22 23 24 24 25 26 27 28 29 29 29 30 30 31 31 32 32 32 32 32 33 33 34 34 35 35 36 36 37 37 38 39 39 39 40 40 40 40 41 42 41
9 10 11 13 14 16 17 19 20 22 23 24 25 26 27 27 29 29 30 30 31 30 30 30 30 31 31 32 32 33 33 33 34 34 34 35 35 36 37 38 38 38 39 40 40 40 41 42 42
7 9 10 11 13 15 16 18 19 21 22 23 24 26 26 27 28 30 30 31 31 31 31 31 31 31 32 32 32 32 32 33 33 33 33 34 34 35 36 37 37 37 38 39 39 40 40 41 41
7 8 10 11 13 14 14 16 18 19 21 23 24 25 26 26 27 29 30 30 31 32 32 32 32 32 32 31 32 32 32 32 33 33 34 34 35 35 35 36 37 37 38 38 39 39 39 40 40
7 8 10 11 12 13 14 15 16 18 19 20 22 23 25 26 27 28 29 30 31 32 32 32 33 33 32 32 32 32 32 33 33 34 34 35 35 35 35 36 37 37 37 37 38 38 39 39 39
7 8 9 11 12 12 14 15 15 17 18 19 21 22 24 25 26 28 29 30 31 31 32 32 32 33 33 33 33 33 33 34 34 35 35 36 36 37 37 36 36 36 37 37 37 37 38 38 38
9 9 10 11 12 12 13 13 14 16 18 19 20 22 23 24 26 27 29 30 31 31 31 32 32 32 32 33 34 34 35 35 35 36 37 37 37 37 37 36 36 36 37 37 37 36 36 37 38
10 10 11 12 13 13 13 13 14 15 17 18 20 22 23 24 25 27 28 29 30 30 31 32 32 32 33 33 34 34 35 36 36 37 37 37 37 37 37 37 37 37 37 36 36 37 37 37 38
11 11 12 13 14 14 15 14 15 16 17 19 20 21 23 24 25 26 27 27 28 29 30 31 31 32 32 33 34 35 36 36 37 37 37 37 38 38 38 37 37 37 36 36 36 36 36 36 36
12 13 14 14 15 16 16 15 16 17 18 19 20 21 21 22 23 24 25 26 27 28 29 30 30 31 32 32 33 34 35 36 37 37 37 38 38 38 38 37 37 37 36 36 36 36 36 36 37

GEFSSGP_500_meanwind_156.txt.gz
Wind_Speed
42 42 41 41 41 43 42 39 36 35 34 32 31 30 28 27 26 25 22 21 20 18 17 16 15 14 14 13 13 12 12 12 12 12 12 12 12 12 11 11 11 11 11 11 11 12 12 12 12
43 42 41 42 43 42 41 38 36 36 35 33 32 31 29 28 27 25 24 22 21 20 18 18 17 16 15 15 14 14 14 14 13 13 13 13 13 13 13 13 13 13 13 13 13 13 13 14 14
42 42 41 42 43 41 39 37 36 37 36 34 32 32 30 29 28 25 24 23 22 21 20 19 18 18 17 16 16 16 15 15 14 14 14 14 14 14 14 14 14 15 15 15 15 15 15 15 15
42 42 41 42 42 40 38 36 37 37 36 35 33 33 31 29 28 26 24 24 23 22 21 20 19 19 18 17 17 17 16 16 16 16 16 16 16 16 16 16 16 17 17 17 17 17 17 17 17
41 41 42 42 41 40 38 37 37 37 36 35 33 32 31 29 28 27 25 24 23 23 22 21 20 20 19 18 18 18 17 17 17 17 18 18 18 18 18 18 19 19 19 19 19 19 20 20 20
39 41 41 42 40 39 38 37 36 37 36 34 33 32 31 31 29 28 26 24 24 23 23 22 22 21 20 20 20 19 19 19 19 19 19 20 20 20 20 20 20 20 21 21 21 21 21 22 22
38 39 40 40 39 38 38 37 36 36 36 34 32 31 31 31 30 29 28 26 25 24 23 23 23 22 22 22 22 22 22 21 21 21 22 22 22 22 22 21 21 21 22 22 23 23 23 23 23
36 37 37 38 37 37 37 37 36 36 35 34 32 30 30 31 31 29 28 27 26 25 25 24 24 24 23 23 24 23 23 23 23 23 23 23 23 23 23 23 23 23 24 24 24 24 25 25 25
32 34 36 36 35 35 35 36 35 36 34 33 32 31 30 30 30 29 28 28 27 26 26 25 24 24 24 24 24 24 24 24 24 24 24 24 25 25 25 25 25 25 25 25 25 26 26 26 27
30 31 33 35 33 33 34 35 35 34 33 32 33 32 30 29 28 28 28 28 28 27 26 26 25 24 24 25 24 24 25 25 25 25 25 25 26 26 26 26 26 26 26 26 26 26 27 27 27
28 30 31 33 32 32 32 33 34 32 31 32 32 31 30 29 28 28 28 28 28 28 27 26 26 26 25 25 25 25 25 25 26 26 26 26 26 27 27 27 27 27 27 28 28 28 29 29 29
26 28 30 30 30 30 30 32 32 31 30 31 32 31 30 30 28 28 28 28 28 27 27 28 27 27 26 26 26 26 26 26 26 26 27 27 27 28 28 28 28 29 29 30 30 31 30 31 31
24 26 27 27 27 28 28 30 30 30 29 31 31 30 30 30 28 28 28 28 28 29 28 27 27 28 28 28 28 27 26 27 27 28 28 28 28 28 29 29 30 31 31 32 32 32 32 33 33
23 24 25 24 25 26 26 27 27 28 28 29 30 30 30 30 28 27 27 27 27 28 28 28 28 28 29 29 28 28 27 28 28 28 29 29 29 29 30 30 31 32 32 33 33 33 34 34 34
20 22 21 22 22 22 24 26 26 27 28 28 29 28 28 28 28 28 28 27 28 28 28 28 28 29 29 29 28 29 29 29 29 29 29 29 29 29 31 31 31 32 33 33 34 34 35 35 35
18 19 20 21 21 21 21 23 26 27 27 27 27 26 26 26 27 27 27 28 28 28 28 28 28 28 28 28 28 28 29 29 29 29 29 30 30 30 31 32 32 32 32 33 33 34 35 36 36
16 18 18 18 18 19 20 20 22 24 24 25 26 26 25 25 25 26 26 27 28 28 28 28 29 29 28 28 28 29 29 29 29 29 30 30 30 31 31 31 32 32 32 33 33 33 34 35 36
14 15 16 17 16 16 18 19 20 22 23 24 25 25 25 25 25 25 26 26 27 28 28 29 29 29 29 29 29 29 29 29 28 29 30 31 31 31 31 31 32 32 32 33 33 35 35 36 36
11 13 14 14 15 16 17 19 20 20 22 23 23 23 24 24 24 24 25 26 27 28 28 29 29 29 30 30 30 30 31 31 30 30 31 31 31 32 32 32 32 32 33 34 34 35 35 35 36
10 11 13 13 14 15 16 18 19 20 20 21 23 23 23 24 24 24 25 26 27 28 28 29 30 30 30 31 32 31 31 31 32 32 32 33 33 32 32 31 32 32 33 34 34 35 35 36 36
9 9 10 12 14 15 15 17 18 19 20 21 22 23 24 24 25 26 26 26 27 28 29 29 30 31 31 32 32 32 32 32 33 33 32 32 33 33 33 33 32 33 33 34 35 35 36 36 37
8 8 9 11 13 15 16 16 17 18 19 20 21 22 24 24 25 26 27 28 28 29 30 31 31 31 32 32 33 33 33 33 33 33 34 34 33 33 33 34 33 34 34 35 35 36 37 37 37
7 8 9 10 12 14 15 16 16 18 19 20 21 22 24 25 26 27 28 29 29 30 30 31 32 32 33 34 34 34 34 34 34 34 35 34 34 35 34 34 34 34 35 36 37 38 38 38 38
5 6 8 10 12 13 14 15 16 17 19 20 21 22 24 26 27 28 29 30 30 30 31 31 32 33 33 34 34 34 35 35 35 34 34 35 35 36 36 36 35 35 35 36 37 38 39 39 39
5 6 7 9 11 12 13 14 15 17 18 20 21 23 24 25 26 27 28 29 29 30 30 31 31 32 33 34 34 35 35 35 35 35 35 35 36 36 36 37 37 37 37 38 39 39 39 39 39
6 7 8 10 11 12 13 15 15 16 17 19 21 22 23 24 24 25 27 28 29 29 30 31 32 32 33 34 35 35 35 35 35 36 36 36 36 37 37 37 38 39 40 40 39 39 40 39 39
7 8 9 11 11 12 13 14 15 15 16 17 19 20 21 22 23 25 26 28 29 30 31 31 32 33 34 34 35 35 35 36 36 37 37 37 38 38 38 38 39 39 40 40 40 40 39 39 38
8 9 10 11 12 13 13 14 15 15 16 17 18 19 20 22 24 25 26 27 29 30 31 32 33 34 34 35 35 35 36 36 37 37 38 38 39 39 40 40 40 40 40 40 40 40 39 38 38
10 10 11 12 13 13 14 14 14 15 16 17 18 19 20 22 24 25 27 28 29 30 31 31 32 33 34 35 35 36 36 36 37 37 38 38 39 40 40 41 41 40 40 41 40 40 39 39 39
12 12 13 14 15 15 16 16 16 16 17 18 19 21 22 23 25 26 28 29 30 31 31 32 32 32 33 34 34 35 35 36 36 37 38 38 39 39 40 40 40 41 41 41 41 41 41 41 41

GEFSSGP_500_meanwind_162.txt.gz
Wind_Speed
40 40 40 40 40 41 41 39 37 35 34 33 32 30 28 26 24 23 21 20 20 19 18 17 16 14 13 13 12 11 10 10 9 9 9 9 9 9 9 9 9 10 10 11 11 11 11 11 12
40 41 41 41 42 41 39 38 37 36 35 35 33 31 29 27 26 24 22 21 21 20 19 18 17 16 15 14 13 12 12 11 11 10 10 10 10 10 10 10 11 11 12 12 12 13 13 13 14
40 41 41 42 42 40 38 37 37 37 36 36 34 33 30 28 27 25 24 22 22 21 21 20 18 17 17 16 15 14 13 13 12 12 11 11 11 12 12 12 13 13 13 14 14 14 15 15 15
40 41 42 42 41 39 38 37 37 36 36 36 35 33 32 30 28 27 25 24 24 23 22 21 20 19 18 17 15 15 14 14 14 13 13 13 13 14 14 14 14 14 15 15 15 16 16 17 17
39 39 41 42 41 39 38 37 37 36 36 36 35 33 32 30 29 28 26 25 25 24 23 21 21 20 19 18 17 16 16 16 15 15 15 15 15 15 15 15 15 16 16 16 17 17 17 18 18
38 38 39 40 39 38 38 37 36 36 35 35 35 33 31 30 29 28 26 25 25 24 24 22 21 21 20 19 18 17 17 17 17 17 17 17 17 17 17 17 17 18 18 18 19 19 19 20 20
36 37 38 39 38 37 36 36 36 35 35 34 34 33 31 29 29 28 26 26 26 25 24 23 22 22 21 19 18 18 18 18 18 18 18 19 19 19 19 19 19 20 20 21 21 21 21 21 22
33 34 35 38 37 37 36 35 35 34 34 34 33 32 30 28 29 28 27 26 26 26 25 24 23 22 21 21 20 19 19 19 19 19 20 20 20 20 21 21 21 22 22 22 22 22 23 23 23
30 31 33 36 37 36 35 35 33 33 32 32 32 31 29 28 28 28 27 27 26 26 26 24 24 22 22 22 21 20 20 20 20 21 21 21 21 21 22 22 23 23 23 23 23 24 24 24 25
28 30 31 33 35 35 34 34 32 31 30 31 31 31 29 28 28 28 27 26 25 26 26 25 24 24 22 22 22 20 21 21 22 22 22 22 22 22 23 23 23 24 24 24 24 24 25 25 25
25 28 29 30 32 32 32 33 31 30 29 29 29 29 29 28 28 28 27 26 25 25 25 26 25 24 23 23 22 22 22 22 23 23 23 23 23 24 24 24 24 23 24 24 24 24 24 25 26
24 26 26 27 28 29 30 31 31 29 29 28 29 29 29 28 29 28 27 26 26 25 24 25 25 24 23 22 23 22 23 22 23 23 24 24 24 24 24 25 24 24 24 25 25 25 26 26 27
22 24 24 24 25 26 27 28 29 28 28 28 28 29 28 28 29 28 28 27 26 25 25 25 25 25 24 24 24 23 24 23 22 23 24 24 25 25 24 24 25 25 25 26 26 26 27 27 28
21 22 22 22 22 23 25 25 26 27 27 27 27 27 28 28 28 28 27 27 27 26 25 26 27 26 25 25 25 25 24 24 24 24 24 25 26 25 25 26 26 26 26 27 27 28 28 28 28
19 20 21 21 20 21 23 24 25 25 26 26 26 26 27 27 27 27 27 27 27 27 25 24 26 26 25 25 26 26 26 26 26 25 25 26 26 26 27 27 28 28 28 28 29 29 30 30 30
16 17 19 20 19 20 22 23 24 24 24 24 25 26 27 27 26 26 27 28 28 27 26 25 25 26 27 27 26 26 27 27 27 27 27 27 27 28 28 29 29 29 29 30 30 30 31 31 31
14 15 17 18 17 18 20 21 22 22 23 23 24 25 26 26 26 25 25 27 28 27 27 26 26 27 28 28 28 28 28 29 29 29 28 28 29 29 30 30 31 31 32 32 32 32 32 32 32
11 12 14 16 16 16 17 18 20 20 21 22 23 24 25 25 25 25 25 26 26 27 27 27 27 28 29 29 30 30 29 30 30 31 30 30 29 29 30 31 32 32 32 33 33 33 34 34 34
9 10 12 13 14 14 15 16 18 19 20 22 23 23 23 24 25 25 25 24 25 25 26 27 28 28 29 30 30 31 31 31 31 32 32 31 30 31 32 33 33 33 33 34 35 35 35 35 35
7 9 10 11 12 14 14 16 17 19 20 21 22 23 23 24 24 24 25 25 25 26 27 28 29 29 29 31 31 32 32 32 32 32 32 32 31 31 32 33 33 34 33 33 34 35 36 36 36
6 8 10 11 12 13 14 15 17 18 20 21 22 22 23 24 24 24 25 25 26 27 28 29 30 31 31 32 33 34 33 33 33 34 34 34 34 33 33 33 34 34 34 35 34 34 35 35 36
5 7 9 11 12 12 14 16 17 18 19 21 22 22 23 23 24 25 25 26 27 28 29 30 31 32 33 33 33 34 34 34 35 35 35 35 35 34 33 34 35 34 34 35 35 35 35 36 37
5 7 9 11 12 13 14 16 17 19 20 21 22 23 23 24 25 26 27 28 29 29 30 31 32 33 34 34 34 34 35 36 36 35 35 36 36 36 35 35 35 35 36 37 37 36 36 37 37
6 7 9 11 13 14 15 16 17 18 19 20 22 23 25 26 27 27 28 29 30 31 31 32 33 34 34 35 35 35 36 36 36 36 36 36 37 37 37 36 36 36 37 37 37 37 37 38 38
7 8 9 11 13 14 15 17 17 18 19 20 21 23 25 26 27 28 29 30 31 31 32 32 33 34 35 35 36 36 37 36 36 37 37 37 37 38 38 38 38 37 37 37 36 36 36 37 37
9 9 10 11 12 13 15 16 17 18 19 20 22 23 25 26 27 28 29 30 31 31 31 32 32 33 33 34 35 36 37 37 37 37 38 38 38 38 38 38 38 38 38 37 36 37 37 37 37
10 11 11 13 13 14 15 16 17 18 19 20 22 24 25 26 27 28 29 30 31 32 32 33 33 33 33 33 34 35 36 36 37 38 38 38 39 39 38 38 38 38 39 39 39 39 38 38 39
12 13 14 15 15 16 16 16 17 18 20 21 23 24 25 26 27 28 30 31 32 32 33 33 34 35 35 34 35 35 36 37 37 37 37 38 38 39 39 40 40 40 40 40 41 40 40 40 41
14 15 16 17 17 18 18 17 18 20 21 22 24 25 26 27 28 29 30 31 32 33 34 35 35 36 35 35 35 36 37 37 37 37 38 38 38 39 40 40 41 41 41 42 42 43 43 43 43
16 17 18 18 19 19 20 19 20 21 22 23 24 25 26 27 28 28 29 31 32 33 34 35 36 36 36 36 36 36 37 38 38 38 39 39 39 40 40 41 41 41 42 42 43 44 44 45 45

GEFSSGP_500_meanwind_168.txt.gz
Wind_Speed
41 41 40 40 40 42 41 39 37 36 34 33 32 30 28 28 26 26 23 21 20 19 17 16 15 15 14 13 13 12 12 11 11 10 10 9 9 9 9 8 8 8 8 8 8 9 9 9 9
40 41 41 42 43 43 41 39 37 36 35 34 33 31 29 29 28 26 24 22 21 20 19 18 17 16 15 15 14 13 13 12 12 12 11 10 10 10 10 10 9 9 10 10 10 10 10 11 11
39 41 42 42 43 42 40 39 37 36 35 34 33 32 30 29 28 27 25 23 22 21 20 19 19 18 17 16 15 15 14 14 13 13 12 12 11 11 11 11 11 11 11 12 12 11 11 12 12
38 40 42 43 42 39 39 39 37 36 35 34 34 33 31 30 29 27 25 24 23 23 21 20 19 19 18 17 17 16 16 15 14 14 14 13 12 12 12 13 13 13 13 13 13 13 13 14 14
37 39 42 43 41 40 40 39 37 36 35 34 34 33 32 30 29 28 27 25 24 24 23 22 21 20 19 19 18 17 17 16 16 15 15 14 14 14 14 14 14 15 15 15 15 15 15 16 16
36 38 41 43 41 40 39 39 37 36 36 35 34 34 33 31 30 29 28 27 26 25 25 24 23 22 21 20 19 19 18 18 17 16 16 15 15 15 15 16 16 16 17 17 17 17 17 17 17
34 37 39 40 41 40 38 38 37 36 36 35 34 34 33 32 31 30 29 28 27 25 26 26 25 24 23 22 21 20 19 19 18 18 17 17 17 17 17 17 18 18 18 18 18 18 18 18 18
32 34 36 38 38 39 37 36 36 36 36 35 35 34 32 32 31 31 30 29 28 26 25 27 27 25 25 24 22 21 21 20 20 19 18 18 18 18 18 18 18 19 19 19 19 19 19 20 20
29 32 33 35 35 36 36 35 34 34 34 34 34 33 32 31 31 31 30 30 29 28 26 26 26 26 26 25 24 23 22 22 21 20 19 19 19 19 19 19 19 19 20 20 20 20 21 21 21
26 29 31 31 33 35 35 33 33 33 33 33 33 32 32 31 31 31 31 31 30 29 27 27 26 26 26 26 25 24 24 23 22 21 20 20 20 20 20 20 20 21 21 21 21 21 22 22 22
23 25 27 28 30 32 33 32 32 33 32 31 31 30 32 32 31 31 31 31 31 29 27 27 26 26 26 27 26 26 25 24 23 21 21 20 20 20 20 20 21 21 21 21 21 22 22 23 23
20 22 25 26 28 29 31 31 31 31 31 30 30 30 31 31 31 31 31 32 31 29 28 26 26 27 27 27 26 26 26 25 24 23 22 21 21 21 21 21 22 22 22 22 22 23 24 24 24
17 21 24 25 25 27 29 30 30 30 30 30 30 31 31 31 30 31 31 32 31 29 28 27 26 27 27 27 27 26 26 24 24 23 23 23 22 22 22 23 23 23 24 24 24 24 24 25 25
15 19 22 23 23 25 28 29 30 29 30 30 29 30 30 30 31 31 31 31 31 30 30 29 29 28 27 27 27 26 25 24 24 24 23 23 23 23 23 24 24 25 26 26 26 26 26 26 26
14 16 19 21 21 23 25 27 29 28 28 29 29 29 30 30 30 31 30 30 30 30 30 30 29 28 28 28 27 26 25 25 24 25 24 24 24 24 25 25 26 27 27 28 28 28 28 28 28
13 15 16 19 20 20 23 24 26 26 26 27 27 28 30 29 30 29 29 30 30 30 30 30 29 28 28 27 26 26 26 25 25 26 26 25 26 26 26 27 28 28 29 29 30 30 30 30 30
10 13 15 17 18 19 20 21 23 24 24 24 25 27 28 29 29 29 29 29 29 30 29 29 30 28 27 27 27 28 27 27 27 28 28 27 27 27 28 29 29 29 30 30 31 31 31 32 32
8 10 13 16 17 18 18 18 19 21 22 22 23 25 27 28 28 28 28 28 28 28 29 29 30 29 27 26 27 28 28 29 28 29 29 30 29 28 28 29 29 29 30 31 32 32 32 33 33
6 8 10 12 13 14 16 18 18 19 20 20 21 23 26 26 27 28 28 28 28 28 29 29 29 28 28 27 27 28 27 28 30 30 31 31 31 30 30 30 30 30 31 32 32 33 34 34 34
6 7 8 10 10 11 13 15 17 18 17 18 19 20 22 24 24 25 26 26 27 27 28 28 28 28 28 27 26 26 27 29 31 32 32 33 33 33 31 31 32 32 33 33 33 33 34 34 35
5 6 8 8 9 11 13 14 16 17 17 18 19 20 21 22 23 24 24 24 25 27 28 29 27 27 28 28 28 27 28 29 31 31 31 32 33 34 33 33 33 34 34 34 34 34 34 35 35
4 6 7 7 9 10 13 14 16 17 17 18 20 21 22 23 24 25 25 25 26 27 29 29 29 28 29 29 29 29 30 31 32 33 32 33 34 35 35 34 34 34 35 35 35 35 35 35 35
3 5 6 6 8 10 12 14 16 17 18 19 20 21 23 24 25 26 26 27 27 28 28 29 30 30 30 30 31 31 32 32 33 34 36 36 36 36 36 36 36 36 35 35 35 36 36 36 35
4 5 5 7 8 10 12 14 15 17 18 19 21 22 24 25 26 27 28 28 29 29 29 30 30 31 31 31 32 33 33 33 34 35 36 36 37 38 37 36 36 35 35 34 34 36 37 37 36
5 6 7 8 9 10 11 13 14 16 18 19 20 22 24 25 27 28 28 28 28 29 30 31 32 32 33 32 32 32 33 34 35 35 36 37 38 38 38 37 36 36 35 35 35 36 37 37 37
7 7 8 9 11 11 13 14 14 16 18 20 21 22 24 25 27 28 28 28 28 29 30 31 32 32 33 33 33 33 33 34 35 36 37 37 38 38 38 38 37 38 38 37 37 37 38 38 38
8 9 10 11 12 13 14 14 15 17 18 20 21 23 24 25 27 27 28 29 29 30 31 32 33 33 33 34 34 34 34 35 36 37 37 37 37 38 39 39 40 40 41 40 40 40 39 39 39
10 10 11 12 13 14 15 15 16 17 18 20 21 23 24 26 27 28 29 30 30 31 32 33 34 35 35 35 35 36 36 37 37 37 37 38 39 39 40 40 41 42 42 42 42 42 42 41 41
12 12 13 13 14 15 16 16 16 18 19 21 22 23 24 26 27 28 30 31 31 32 33 34 35 36 37 38 38 38 38 38 38 38 39 39 40 40 41 41 41 41 42 43 43 43 43 43 42
13 14 14 15 16 16 17 16 17 18 20 21 23 24 25 26 28 29 30 31 32 33 33 34 35 36 37 38 39 40 40 39 39 39 39 39 40 41 41 41 42 42 43 43 44 44 45 45 45

GEFSSGP_500_meanwind_174.txt.gz
Wind_Speed
37 37 38 39 40 41 41 38 36 35 34 33 32 31 31 29 28 27 25 23 22 21 19 18 18 17 16 15 14 14 14 13 13 12 12 11 11 11 10 10 10 9 10 9 10 10 10 10 9
37 37 38 39 41 42 40 38 37 37 35 34 33 33 32 30 29 28 26 24 23 22 21 20 19 18 17 16 15 15 15 15 14 14 13 13 12 12 12 11 11 11 10 10 10 10 11 11 11
37 38 39 40 42 41 39 38 37 37 36 35 35 34 33 31 30 30 28 26 25 23 23 22 21 20 19 18 17 17 16 16 15 15 14 14 14 13 12 12 12 12 12 12 12 12 12 12 12
37 38 40 42 42 40 39 39 38 37 37 37 36 35 34 33 32 31 30 28 26 25 24 23 22 21 21 20 19 19 18 18 16 15 15 15 15 14 14 14 14 14 13 13 14 14 14 14 13
35 37 39 42 41 40 40 39 39 38 38 37 37 37 35 34 33 32 31 29 27 26 25 24 23 22 22 21 21 20 19 19 18 16 16 16 16 15 15 15 15 15 15 15 15 15 15 15 15
32 34 37 39 40 40 39 39 39 38 39 39 38 37 36 35 34 33 32 31 29 28 26 26 25 23 23 23 22 21 21 20 19 17 17 17 17 17 16 16 16 16 16 16 16 16 16 17 17
29 32 34 35 37 39 39 38 39 37 37 38 39 38 37 36 35 33 32 32 30 30 28 27 26 25 24 23 23 22 21 21 20 19 19 19 18 18 17 17 17 17 17 17 17 17 17 18 18
26 29 31 32 35 37 36 36 37 38 38 37 38 38 37 37 35 34 33 32 31 30 30 29 28 26 26 25 24 23 22 21 21 20 20 20 19 19 19 18 18 18 17 17 18 18 18 19 19
23 26 28 29 32 35 35 36 36 37 37 36 37 37 37 37 36 35 34 33 32 31 30 29 28 27 27 26 24 24 23 23 23 22 22 21 21 20 20 19 19 19 19 19 19 19 20 20 20
21 24 24 26 29 32 35 35 33 35 37 37 37 37 37 37 36 35 34 33 33 32 31 30 30 28 27 27 25 25 25 24 24 24 23 23 22 21 20 20 20 20 20 20 21 21 21 21 21
17 20 21 23 26 30 34 33 32 33 37 36 36 37 38 38 37 35 34 34 34 34 32 30 30 30 28 27 27 27 26 25 25 25 25 24 24 22 21 21 22 22 22 22 22 22 22 23 23
14 16 19 20 23 28 31 32 31 32 33 35 35 35 37 38 38 36 35 34 34 34 32 30 31 30 29 28 28 28 27 27 26 26 26 25 24 24 23 22 23 23 23 23 23 23 23 24 24
12 14 17 19 21 24 27 29 29 30 32 33 33 34 36 37 37 36 35 35 34 33 32 31 31 31 30 29 28 28 29 28 28 28 27 26 25 25 24 24 23 23 23 24 23 24 24 24 24
9 12 15 18 19 21 24 26 26 26 29 30 32 32 34 36 35 35 35 34 33 33 32 32 31 31 30 30 29 28 28 28 28 29 29 28 27 27 26 25 25 24 24 25 25 25 25 25 25
7 9 12 15 18 19 22 24 25 24 26 28 31 32 33 34 34 34 33 32 32 33 33 32 32 31 30 29 30 29 29 28 28 28 28 28 28 28 26 26 26 26 26 26 26 26 26 26 26
7 8 10 12 15 18 20 23 25 24 25 27 30 31 32 32 33 32 32 32 31 32 33 33 33 32 30 29 29 29 29 29 29 28 28 28 28 28 28 27 26 26 26 26 27 27 27 27 28
6 6 8 11 13 16 19 21 24 23 25 27 28 29 30 31 32 32 32 32 32 31 32 33 33 33 32 30 30 30 29 29 28 28 28 29 29 29 29 28 27 28 28 28 27 27 28 29 30
6 6 7 9 11 14 17 19 21 22 24 26 27 27 27 29 30 31 31 31 31 30 31 32 32 31 31 31 31 31 30 30 29 28 28 29 30 30 30 29 29 29 29 29 29 30 30 30 31
7 6 7 8 9 11 14 17 19 20 22 24 26 24 25 26 28 29 30 31 30 30 30 32 32 31 30 31 31 31 30 29 29 28 29 30 30 30 30 30 29 30 31 30 31 32 32 32 32
6 6 6 7 7 9 11 14 18 19 20 23 25 23 23 24 25 28 29 29 28 29 30 31 32 31 30 30 30 30 32 31 31 30 31 31 30 31 32 31 31 31 32 32 32 33 33 33 33
5 5 6 7 7 8 10 11 14 19 20 22 24 24 23 24 25 26 27 28 29 28 28 29 31 31 31 30 30 30 31 32 32 30 30 31 32 32 32 32 32 33 33 34 33 33 33 33 33
5 6 7 7 7 8 11 11 11 16 19 20 21 23 24 25 25 25 26 27 27 28 28 29 29 30 31 31 30 31 31 31 32 30 30 32 33 33 34 34 34 35 35 35 35 34 34 34 34
7 7 7 8 8 9 11 12 11 13 17 19 19 21 23 23 23 24 25 26 27 27 28 28 29 30 31 31 32 32 33 33 32 32 33 34 35 35 35 35 35 36 37 37 36 36 35 35 36
8 8 8 9 9 9 11 13 14 14 16 19 20 20 22 23 24 24 25 25 27 28 28 28 29 30 31 32 33 33 35 34 33 33 34 35 35 35 36 36 37 37 38 38 37 36 36 36 37
9 10 10 10 11 11 11 13 14 15 16 18 19 20 21 23 23 24 25 26 27 29 30 30 31 31 32 33 34 35 36 34 34 34 34 35 35 36 37 37 37 37 38 38 38 37 38 38 38
11 11 11 12 13 13 13 14 15 15 16 17 18 19 20 23 25 26 26 27 29 30 31 31 32 32 32 33 35 36 36 36 36 36 36 36 36 36 37 38 37 37 38 39 39 39 39 39 39
12 12 13 13 14 14 14 14 15 15 16 18 19 20 21 22 24 25 27 28 29 31 32 32 32 33 33 34 35 36 37 37 38 38 38 38 38 39 40 40 39 39 38 39 40 40 40 40 40
13 14 15 15 15 15 15 15 15 16 18 19 20 22 23 23 24 24 26 28 30 31 32 32 32 32 33 35 36 37 37 38 38 39 39 40 40 41 41 41 41 40 40 40 40 41 41 41 42
15 15 16 16 17 16 17 16 15 17 17 18 20 21 23 24 24 24 25 27 29 30 31 32 32 32 33 35 36 37 38 39 39 39 40 40 40 41 41 41 41 41 42 42 41 42 42 43 43
16 16 16 17 17 18 18 17 16 18 18 19 20 21 23 24 25 25 26 28 29 30 32 32 33 33 34 35 37 38 39 40 40 41 41 40 41 41 41 42 42 43 43 43 43 44 44 45 45

GEFSSGP_500_meanwind_180.txt.gz
Wind_Speed
33 34 35 36 37 38 37 35 34 33 33 32 32 32 31 29 27 26 24 22 20 19 18 18 17 16 16 15 14 14 13 13 14 14 13 13 12 11 11 11 11 10 10 10 10 10 11 11 11
33 34 35 37 39 39 37 36 35 34 33 33 34 34 33 32 30 28 26 24 22 21 20 19 19 18 18 17 16 16 15 15 15 15 15 14 14 13 12 12 12 12 12 11 12 12 12 12 11
33 33 34 37 39 39 38 37 36 36 35 35 36 36 35 34 32 30 29 27 24 23 22 21 21 20 19 18 18 17 17 16 16 16 16 15 15 14 14 14 13 13 13 13 13 13 13 13 12
31 32 33 36 37 38 38 37 38 38 37 37 37 37 37 35 33 31 30 29 27 25 25 24 23 22 21 20 19 18 18 17 17 17 17 16 16 15 15 15 14 14 14 14 14 14 14 14 14
28 30 32 34 34 35 37 38 38 39 38 38 39 38 38 37 34 33 32 32 30 28 27 26 25 24 22 21 20 20 19 18 18 18 18 18 17 16 16 16 15 15 15 15 15 15 15 15 15
26 28 30 31 31 32 35 37 39 39 39 39 39 40 39 37 35 34 33 33 32 30 30 28 27 25 24 22 21 21 20 20 19 19 19 19 18 17 17 16 16 16 16 16 16 16 16 16 16
25 26 28 29 29 30 32 35 37 39 38 39 39 40 39 38 36 35 34 33 33 32 31 30 29 27 26 24 23 22 21 21 21 20 20 20 19 19 19 18 18 17 17 17 17 17 17 17 18
23 25 26 26 27 28 30 32 35 38 38 38 39 40 39 39 37 37 35 33 34 33 33 32 31 29 27 25 24 24 23 22 22 21 21 21 21 20 20 19 19 19 19 18 18 18 18 18 19
21 23 24 25 25 26 27 29 32 36 36 38 39 40 39 39 39 38 37 35 34 34 33 33 32 31 29 27 25 25 24 24 23 22 22 21 22 22 21 21 21 20 20 20 20 20 19 19 19
20 21 21 22 24 24 26 27 30 33 35 37 38 39 38 38 38 38 38 37 35 35 34 33 32 32 30 29 27 26 26 25 24 23 23 23 23 23 23 22 22 22 21 21 21 21 21 21 20
18 19 20 20 21 22 23 25 27 31 34 35 37 37 36 37 37 38 37 37 36 36 34 33 33 33 31 30 28 27 27 26 26 25 24 24 24 24 24 24 23 23 23 22 22 22 22 22 22
16 17 18 18 18 20 21 22 25 29 31 33 34 37 37 36 36 36 35 35 36 36 35 35 33 33 32 31 30 27 27 27 27 27 26 26 25 25 25 25 25 25 24 24 24 24 24 24 24
15 15 15 16 17 18 20 21 22 26 29 32 34 36 38 37 37 36 36 35 36 36 35 35 34 33 32 32 31 30 29 28 28 28 28 27 27 27 27 26 26 26 26 25 25 26 26 26 26
13 14 14 15 16 16 18 19 21 22 26 30 32 34 35 36 36 36 36 36 36 35 34 33 33 33 33 32 32 32 30 29 28 29 29 29 29 28 28 28 28 28 27 27 26 26 26 26 26
12 12 13 14 15 15 17 17 19 21 24 28 30 32 33 33 34 35 36 35 36 36 35 34 33 34 33 32 32 32 32 31 30 29 29 29 29 30 30 30 30 29 29 28 27 27 27 26 27
12 11 12 12 13 13 15 15 16 19 22 25 28 30 32 33 33 35 36 35 34 35 36 35 34 34 34 33 33 33 32 32 31 30 29 30 31 31 30 30 30 31 30 30 28 27 28 28 29
11 10 10 10 11 12 13 13 16 18 21 24 27 29 30 32 33 34 35 34 33 34 34 34 34 34 34 34 34 34 33 33 32 32 30 30 30 31 31 30 30 31 31 30 30 29 30 29 29
9 9 9 9 10 11 11 11 14 18 21 24 26 27 28 29 29 32 33 32 32 32 33 33 33 34 34 34 34 34 33 33 32 32 32 31 31 31 31 31 31 32 32 32 32 31 31 31 31
8 8 8 8 9 10 10 10 13 17 20 22 24 24 25 27 27 30 31 31 30 31 32 32 32 32 34 34 34 33 32 31 31 31 33 32 31 32 33 33 33 34 34 34 34 34 33 33 33
8 8 8 8 8 9 10 10 12 15 18 21 23 23 23 26 27 29 30 31 30 30 30 30 30 31 32 33 33 32 31 31 31 31 32 33 33 33 33 34 34 34 35 35 35 35 35 35 34
8 8 8 8 8 9 10 10 12 11 14 19 21 21 20 23 25 27 28 30 29 28 28 27 28 29 30 31 31 32 31 31 32 32 32 33 34 34 35 35 35 35 36 36 35 36 36 35 35
9 8 8 8 9 9 10 11 11 12 13 17 19 20 19 20 24 27 27 27 28 28 27 27 27 28 28 30 31 32 32 32 33 33 34 34 34 34 35 36 35 36 36 36 36 35 36 36 36
9 9 9 8 8 9 10 11 11 12 13 15 17 17 18 19 22 25 26 26 27 27 27 27 27 28 29 30 31 32 33 33 34 34 34 34 35 35 36 36 36 37 37 37 38 38 37 37 38
10 9 10 9 9 10 10 11 11 11 12 14 16 17 18 18 22 23 23 24 26 27 27 27 28 28 28 29 31 32 33 33 34 34 34 35 36 37 37 37 37 37 38 38 38 39 39 39 40
10 10 10 10 10 11 11 11 10 11 12 13 14 16 18 18 20 22 23 24 25 27 28 28 28 28 29 29 29 31 32 34 35 35 35 36 36 37 37 38 38 38 38 39 40 40 40 41 41
11 11 11 11 11 11 11 11 10 11 11 13 14 16 18 18 20 21 22 23 24 26 28 28 29 29 29 29 29 30 32 34 35 36 36 37 37 37 38 39 38 39 39 40 41 41 42 42 43
12 12 12 13 13 13 12 12 12 11 11 12 14 16 18 18 19 21 22 23 24 25 28 30 30 30 30 31 31 31 32 33 34 36 36 37 37 38 39 39 39 39 40 41 42 43 43 44 43
13 13 14 14 15 15 14 14 13 12 12 13 14 16 18 20 20 21 22 23 24 26 28 30 30 31 32 33 34 33 33 33 33 35 35 37 37 38 38 40 40 41 41 41 43 44 43 43 43
16 15 15 15 16 16 16 15 13 13 13 14 15 16 18 20 21 22 23 23 24 26 28 29 30 31 32 33 34 35 34 33 33 34 35 36 37 38 39 40 41 42 42 42 43 43 43 42 43
17 17 18 18 17 17 17 16 15 14 15 16 17 17 18 19 20 21 22 23 24 26 27 28 29 30 31 32 33 34 34 35 35 35 36 38 39 40 41 41 41 41 41 41 42 43 43 44 44

GEFSSGP_500_meanwind_186.txt.gz
Wind_Speed
27 28 28 29 31 34 34 32 30 28 29 30 30 31 31 31 29 28 27 25 23 22 21 20 19 18 17 16 15 14 13 12 11 10 11 11 11 10 10 10 10 9 9 9 9 9 8 8 8
28 28 29 30 31 33 33 32 32 30 30 31 32 32 33 33 32 30 28 27 25 24 23 22 21 20 19 18 16 15 15 13 12 11 11 11 11 11 11 11 10 10 10 9 9 9 9 9 9
29 29 30 31 31 32 32 32 32 32 32 32 33 33 34 34 33 32 31 29 27 27 25 24 23 22 21 20 18 17 16 15 14 12 12 12 12 12 12 11 11 10 10 10 10 10 10 10 10
27 29 30 31 31 31 32 32 32 32 33 33 33 34 34 34 34 33 32 32 30 29 28 26 25 24 23 21 20 19 18 16 15 14 14 13 13 13 13 13 12 12 11 11 11 11 11 11 11
26 27 29 30 30 30 30 32 32 32 33 33 34 34 34 34 34 34 34 34 33 31 31 29 28 26 25 23 22 21 20 18 17 16 15 14 14 14 14 14 14 14 13 13 13 13 13 12 12
25 27 28 29 28 29 30 31 32 32 33 34 35 35 35 35 35 35 35 35 35 34 33 31 30 29 27 25 24 22 22 20 19 18 17 16 15 15 15 15 15 15 14 14 14 14 14 14 14
25 25 27 27 27 28 30 31 31 31 32 34 35 36 35 36 36 36 36 37 36 35 34 34 32 31 29 27 26 24 23 22 20 19 18 18 17 17 17 17 16 16 15 15 15 15 15 15 15
25 26 26 26 27 28 29 31 31 31 31 32 34 36 35 36 37 37 37 37 37 36 36 35 34 32 31 29 28 26 25 24 22 21 20 19 19 18 18 18 18 18 17 17 16 16 16 16 16
23 25 25 25 27 27 29 31 30 31 30 31 33 35 35 36 38 38 38 38 38 37 36 36 34 33 32 30 30 28 26 25 24 23 22 21 20 20 19 19 19 19 19 19 18 18 18 18 18
22 24 24 25 26 27 28 30 30 30 31 31 32 33 34 36 37 38 38 37 37 37 36 36 36 35 33 32 30 29 28 26 26 26 24 23 22 22 21 21 21 21 21 20 20 20 20 20 20
22 23 23 23 25 26 27 29 29 30 30 30 32 33 33 34 35 37 37 37 37 36 36 36 36 36 35 34 32 30 29 28 27 27 27 25 24 23 23 22 22 22 22 22 22 22 22 22 21
22 22 23 23 24 25 26 27 28 27 27 28 30 32 34 34 34 34 36 37 37 37 37 37 36 36 35 34 33 32 31 29 28 27 27 26 25 25 25 24 24 23 23 23 23 23 23 23 23
21 21 22 22 23 23 24 25 26 26 26 27 28 30 32 33 33 34 35 37 38 37 37 37 37 35 35 35 34 32 32 31 29 28 28 28 27 26 25 25 25 25 24 24 25 25 25 25 25
19 20 20 21 21 22 22 24 25 24 26 26 26 28 30 31 32 33 34 36 38 38 37 36 36 36 35 34 34 34 33 32 30 30 29 29 29 28 27 27 26 26 26 26 26 26 26 26 26
18 19 19 18 18 19 21 21 22 22 24 24 24 26 27 28 30 31 33 36 38 38 38 37 36 36 34 33 34 34 33 33 32 32 31 30 30 29 28 28 28 28 27 27 27 28 28 28 27
18 18 17 16 16 17 19 19 19 21 23 23 23 24 26 27 29 30 33 35 38 39 38 37 37 35 35 34 34 35 34 33 33 33 33 32 31 30 29 29 29 29 29 28 28 28 29 29 29
18 17 16 15 15 16 17 18 18 19 21 22 22 24 26 27 28 29 32 34 36 37 36 36 36 35 35 34 34 35 35 34 34 34 34 34 33 32 31 30 30 30 30 30 29 30 29 30 30
17 17 15 14 14 14 16 17 17 18 20 21 22 23 25 27 27 29 31 33 34 35 35 35 35 34 34 34 35 34 34 34 33 34 35 35 35 34 33 31 31 31 31 31 31 31 31 31 31
17 16 15 15 15 14 14 14 15 17 19 20 20 22 24 26 27 29 30 32 33 35 35 34 35 35 34 34 34 34 34 33 34 34 34 35 35 35 35 33 32 31 31 32 33 33 33 33 33
17 17 16 16 15 16 15 14 14 16 18 19 20 21 22 24 26 27 30 30 30 33 34 32 34 33 33 34 32 32 33 34 35 35 33 33 33 34 35 36 34 33 33 34 34 34 34 35 35
16 17 16 16 16 16 17 15 14 15 17 18 19 19 20 23 24 27 29 29 29 29 31 31 31 33 33 33 32 32 32 32 33 34 34 34 34 34 33 34 35 35 36 35 34 35 35 36 36
16 16 16 16 16 16 17 17 13 14 15 17 17 19 20 21 22 26 29 28 28 27 29 29 28 31 31 32 33 33 33 33 33 33 34 35 34 33 33 34 34 34 34 35 35 35 36 37 37
16 16 16 16 17 17 17 17 13 14 14 15 16 17 19 20 21 23 26 28 29 28 28 29 29 29 31 32 31 32 32 33 34 34 34 34 34 33 33 33 34 34 35 36 37 37 37 38 38
16 16 16 16 17 16 16 17 14 14 14 14 15 17 19 21 22 23 24 26 29 28 27 29 28 28 30 32 33 32 32 33 34 34 34 33 34 34 35 35 36 36 37 38 39 39 39 39 40
17 17 17 18 17 17 16 16 15 15 14 15 16 17 19 20 22 23 24 25 27 27 26 27 28 29 29 30 31 32 32 32 33 33 33 34 35 35 37 37 38 38 39 40 40 41 41 41 41
17 17 18 19 19 19 17 16 15 15 15 15 16 17 18 20 21 23 25 26 27 26 27 27 28 28 29 30 31 31 31 31 32 32 33 34 34 36 37 38 38 39 39 41 41 42 42 43 43
18 18 18 19 20 20 18 17 16 16 16 15 15 17 18 20 21 22 24 26 27 27 28 28 28 28 29 30 30 30 31 32 32 33 33 34 35 37 38 38 38 39 40 40 41 43 43 44 44
19 19 19 19 20 20 19 18 18 16 16 16 16 17 18 19 20 21 24 26 27 28 30 29 30 30 29 30 30 30 31 33 34 34 34 35 36 38 39 40 40 40 40 41 41 43 43 44 44
20 20 21 21 21 22 21 18 18 17 17 17 17 18 19 19 20 21 23 24 25 27 28 29 29 30 31 31 31 31 32 33 35 35 36 37 37 38 39 40 40 41 42 42 43 43 44 45 45
21 21 22 23 23 23 23 19 19 18 18 18 19 19 21 22 22 23 23 23 25 27 27 29 30 31 32 33 33 34 35 36 36 37 37 37 38 39 40 41 41 41 42 43 44 45 45 45 46

GEFSSGP_500_meanwind_192.txt.gz
Wind_Speed
25 25 25 26 27 28 27 25 25 24 24 24 25 26 26 27 27 28 26 24 24 24 23 21 20 20 19 18 17 17 15 14 13 12 12 12 11 11 10 10 9 8 8 7 7 7 6 6 6
25 25 26 27 28 29 28 27 27 26 25 25 25 26 27 28 28 28 28 26 25 25 24 23 23 22 21 20 19 19 17 16 15 14 13 13 12 12 11 10 10 9 9 8 8 7 7 7 7
25 25 26 27 28 29 29 29 29 28 27 26 26 27 28 28 29 29 29 28 27 27 26 26 25 24 23 22 21 21 20 18 17 16 15 15 14 13 13 12 11 10 10 10 9 9 8 8 8
25 26 27 28 28 28 29 30 30 30 29 28 28 28 28 28 29 30 30 29 29 29 29 28 27 27 26 25 24 23 22 20 19 18 16 16 16 15 15 14 13 12 11 11 10 10 10 9 9
25 26 27 28 28 28 29 30 30 30 30 29 29 29 29 28 29 30 31 30 30 30 31 30 29 29 28 27 26 25 24 22 21 19 19 18 17 16 16 16 15 13 13 12 12 11 11 11 10
25 26 27 27 27 28 29 29 30 30 31 30 30 30 29 29 29 30 31 32 31 32 32 32 31 31 30 29 28 27 26 25 23 22 20 19 18 18 17 17 16 15 14 14 13 13 12 12 12
24 25 26 26 26 28 29 29 30 30 31 31 31 31 29 29 29 30 31 32 33 33 33 33 32 32 32 31 30 29 27 26 25 24 22 21 20 20 19 18 18 17 16 15 14 13 14 14 14
22 24 25 26 26 26 27 28 29 30 31 32 32 32 31 30 30 31 31 32 33 33 33 34 33 33 33 33 32 31 30 28 26 25 25 23 22 21 20 20 19 18 18 17 16 15 15 15 15
22 24 24 24 26 26 27 28 29 30 31 31 32 32 32 31 31 32 32 32 33 33 33 34 34 34 33 33 33 32 31 30 28 27 26 25 24 23 22 21 21 20 19 19 18 17 17 17 17
22 23 24 24 25 25 26 27 29 30 30 31 32 33 33 32 32 32 33 33 33 33 33 33 33 34 34 34 33 32 32 30 30 28 27 27 26 25 23 22 22 22 21 20 19 19 18 18 18
21 22 23 24 25 26 25 26 28 30 30 31 32 32 33 33 32 32 32 33 33 33 34 34 34 34 34 34 33 33 32 31 31 30 28 28 27 26 25 24 23 23 23 22 21 20 20 20 19
21 21 22 23 24 26 27 26 27 28 29 30 31 32 33 33 33 32 33 33 33 33 34 34 34 35 34 34 34 33 33 32 32 31 30 29 28 28 27 26 24 24 24 23 23 22 22 21 21
21 21 22 22 23 25 26 26 26 27 27 29 31 31 33 33 32 32 33 33 33 34 35 35 34 34 34 35 35 35 34 33 32 32 31 30 29 29 28 28 27 26 25 25 24 24 24 23 23
20 21 20 21 21 22 24 24 24 24 26 27 29 31 31 32 32 31 32 33 33 34 35 36 35 35 35 35 35 35 35 34 33 32 32 31 31 30 29 29 29 28 27 27 26 26 26 25 25
20 20 19 19 20 19 21 22 23 23 25 26 28 29 30 32 32 31 32 33 33 34 35 36 36 36 36 37 35 35 36 35 34 33 32 31 31 31 31 30 30 30 30 29 28 27 27 27 27
20 20 19 19 19 19 20 21 22 23 25 25 27 28 30 31 31 31 32 33 33 34 36 36 37 37 36 37 37 36 37 36 35 34 33 32 32 32 32 32 31 31 31 31 30 29 28 28 28
20 19 19 19 20 20 20 20 21 23 24 24 25 26 28 30 30 31 32 32 33 34 36 37 38 37 37 37 38 38 37 37 37 36 34 32 32 33 33 33 33 33 32 32 32 31 30 29 29
20 20 19 19 19 19 20 20 20 21 23 23 23 24 26 28 29 30 31 32 33 34 36 37 38 37 37 37 38 38 38 38 37 36 36 34 33 33 33 34 34 34 34 33 32 32 31 30 30
20 20 20 19 20 20 19 20 20 20 21 22 22 23 25 26 28 29 30 32 32 33 35 36 37 37 36 37 38 38 38 37 37 36 36 36 34 33 33 34 35 35 35 34 34 33 32 32 32
19 20 20 19 20 20 19 18 18 19 19 20 20 20 24 26 27 28 29 31 32 33 34 35 36 37 36 37 38 37 37 37 37 37 37 36 36 35 34 34 35 36 36 35 36 35 34 33 34
19 20 19 19 19 20 19 17 17 17 16 17 18 19 20 24 26 27 28 29 32 33 34 35 37 37 37 37 38 36 37 36 36 37 37 37 37 36 35 34 34 35 35 36 37 37 36 36 36
19 19 19 19 19 19 19 17 16 16 15 16 17 18 19 21 24 26 27 28 29 31 33 34 36 37 35 35 36 35 35 35 35 36 37 37 37 37 36 36 35 36 36 36 37 37 38 37 37
19 19 19 19 19 18 18 18 16 15 15 15 17 18 18 19 21 24 26 27 28 29 30 33 35 36 35 34 35 34 34 35 34 35 36 37 37 36 36 36 36 36 36 37 38 38 39 39 38
19 19 19 19 19 19 17 18 16 16 16 15 17 17 18 18 19 21 23 26 27 28 29 30 33 34 35 34 34 34 34 34 35 36 36 36 36 36 36 36 37 37 37 37 38 39 39 40 40
19 19 20 20 19 18 17 18 17 16 17 17 17 17 18 19 19 20 22 25 26 27 29 29 31 33 34 34 34 34 34 34 35 36 36 35 36 37 37 37 37 37 38 38 37 38 40 41 41
20 20 20 20 21 20 18 18 18 17 17 18 19 18 18 19 19 20 22 25 27 27 28 28 29 31 33 34 35 35 34 35 36 36 36 37 36 37 37 38 38 38 38 38 39 39 40 41 41
21 20 20 21 21 21 20 18 17 17 17 18 19 19 19 19 20 20 21 24 26 27 27 27 29 30 33 34 35 35 35 36 37 36 36 37 37 37 38 39 39 39 39 39 40 41 41 41 42
22 21 21 21 22 22 21 20 18 16 17 18 19 20 19 19 20 21 21 23 24 26 26 28 28 29 31 34 35 35 35 35 36 36 36 37 37 37 39 40 40 40 40 40 40 41 42 43 43
23 22 22 23 23 23 23 22 20 18 18 18 19 19 19 20 20 20 21 23 25 26 27 28 28 29 30 31 33 33 34 35 37 38 37 38 39 39 39 38 38 39 40 41 42 42 43 44 44
26 25 24 24 24 24 25 23 21 19 19 19 19 19 19 20 20 21 22 24 25 26 27 27 29 30 31 31 33 33 34 36 38 39 39 40 40 40 39 39 39 40 42 43 43 44 45 45 46

GEFSSGP_500_meanwind_198.txt.gz
Wind_Speed
23 23 24 25 27 28 27 25 25 24 24 25 25 25 26 26 27 28 26 24 23 22 22 22 22 21 20 20 19 18 17 17 16 16 15 15 15 14 14 13 12 11 10 10 9 9 8 7 7
23 23 25 26 27 28 27 27 26 26 27 26 27 27 26 27 29 28 26 25 25 24 24 23 23 23 23 22 21 20 19 18 18 17 17 17 16 15 15 14 13 13 12 11 10 10 9 9 8
22 23 24 26 26 27 28 28 28 28 28 28 28 28 27 28 29 28 27 27 26 26 26 25 25 24 24 24 23 22 21 20 19 19 19 18 17 16 16 16 15 14 13 13 12 11 11 10 10
22 23 24 25 25 26 27 28 29 29 29 29 30 30 29 29 29 28 28 29 28 27 27 27 26 26 26 26 25 24 23 22 21 21 20 20 19 18 17 17 16 15 15 14 13 13 12 11 11
22 23 24 24 25 26 27 29 29 30 30 30 32 32 31 31 30 29 29 29 29 29 28 28 27 27 27 27 27 26 25 23 22 22 22 22 21 20 19 18 18 17 16 15 14 14 13 13 12
22 22 23 24 25 25 27 28 30 30 31 31 32 32 33 33 32 31 31 30 30 30 29 27 28 28 28 28 28 27 26 25 24 24 24 23 23 21 21 20 19 18 17 16 16 15 15 14 13
21 22 23 23 24 25 26 28 29 31 32 32 32 32 33 34 33 33 32 32 31 30 30 29 28 28 28 28 28 28 27 27 26 25 25 24 24 23 22 21 21 20 19 18 17 17 16 16 15
21 22 22 22 23 25 26 28 29 31 32 33 33 33 34 34 34 34 33 33 32 31 30 30 29 28 28 28 29 29 28 28 27 26 26 26 25 24 24 23 22 21 20 19 18 18 17 17 16
21 22 23 23 23 24 25 28 28 30 32 33 33 33 34 34 34 34 33 33 32 32 31 30 30 29 28 29 29 29 29 28 27 28 28 26 26 25 25 24 24 23 21 21 20 20 19 18 18
21 22 23 23 23 24 25 27 29 28 30 31 32 33 34 34 35 34 34 33 33 32 31 31 31 30 29 30 30 30 29 28 28 28 28 28 27 26 26 26 25 24 23 22 22 21 21 20 19
22 22 22 22 23 25 26 27 29 29 29 30 31 33 34 34 35 35 35 34 34 33 32 31 30 31 31 30 31 31 31 30 29 28 28 28 27 27 27 27 27 26 25 24 23 23 23 22 21
22 22 22 22 23 24 26 26 28 30 29 30 31 32 34 34 34 35 35 35 35 35 34 32 32 31 32 31 31 32 31 30 30 30 29 29 28 28 28 28 28 27 27 26 25 25 24 24 23
23 22 22 23 24 25 26 26 27 28 29 29 30 32 33 34 35 35 35 36 36 36 35 35 34 33 33 33 32 31 31 31 31 30 30 29 29 29 28 29 29 29 28 27 27 26 25 26 25
24 23 23 23 24 25 26 26 27 26 28 29 29 30 32 33 35 35 35 36 36 37 36 36 36 35 34 34 33 32 31 31 32 32 31 31 30 29 29 29 29 29 29 29 28 28 27 27 27
24 24 23 24 25 26 27 26 26 26 28 29 30 29 30 32 33 35 35 36 36 37 37 37 37 37 37 35 35 33 32 31 31 32 32 32 31 31 30 30 29 29 30 30 29 29 29 28 28
24 24 24 24 26 26 27 25 25 27 28 29 30 30 29 30 32 34 35 36 37 38 38 38 38 38 38 38 36 35 34 32 32 32 31 31 31 32 32 31 31 30 30 31 31 30 30 30 29
25 24 24 24 25 27 27 26 25 27 28 29 29 30 30 30 31 32 33 34 35 36 37 38 38 38 38 39 38 37 35 35 33 33 31 32 32 33 33 33 32 31 31 31 32 32 32 32 32
25 25 24 25 25 27 27 26 26 26 27 28 28 29 30 30 30 31 33 34 34 35 37 38 38 38 39 39 39 38 37 36 35 35 33 33 33 33 33 34 34 32 32 31 31 32 34 34 34
25 25 25 25 25 27 27 26 25 26 27 27 27 28 29 30 30 30 32 34 34 34 36 38 39 39 39 40 39 38 38 38 37 36 34 33 33 34 34 34 34 33 33 33 33 32 34 35 35
25 25 25 25 26 27 27 25 25 25 25 25 25 26 27 28 30 31 31 33 33 34 35 37 37 38 37 38 39 39 38 39 37 36 36 35 34 34 35 35 36 36 36 35 35 35 34 35 36
26 25 25 26 26 26 27 25 23 24 24 24 24 24 26 27 28 29 31 33 33 34 35 35 35 37 38 38 39 39 39 39 38 37 38 37 37 37 37 37 37 38 37 37 37 37 36 36 37
26 26 26 27 27 26 26 27 22 23 22 23 23 23 24 25 26 28 30 31 32 34 36 35 35 36 36 37 38 39 40 39 39 39 39 38 37 37 37 36 37 38 38 38 38 38 38 38 38
27 26 27 28 28 27 25 27 24 23 22 22 22 22 22 23 24 25 27 29 31 33 36 36 35 36 36 37 38 39 40 39 38 39 40 39 39 38 38 37 37 37 38 39 39 40 40 39 40
27 26 27 27 27 27 25 27 25 23 22 22 21 21 22 22 23 24 25 27 29 32 34 35 35 35 37 38 39 39 40 40 39 38 38 39 39 39 39 38 38 38 38 40 40 40 41 41 41
29 28 28 28 27 26 25 26 24 22 22 22 21 21 22 23 24 24 25 26 27 29 32 34 34 34 35 36 37 38 39 40 41 40 39 39 39 40 40 40 39 39 39 40 40 41 41 42 41
30 30 29 29 29 28 26 25 23 23 23 22 22 22 22 22 23 24 25 25 26 29 31 32 32 32 33 35 35 37 39 40 40 39 39 39 39 40 41 41 41 41 41 41 42 42 42 42 42
31 30 30 31 30 30 28 26 25 24 23 23 22 22 22 22 22 23 23 24 26 28 30 31 31 32 34 34 35 35 37 38 39 39 40 39 39 41 42 43 42 43 42 42 43 42 42 43 44
32 31 31 31 31 31 29 27 25 23 23 24 23 22 22 21 22 22 23 24 26 27 29 30 30 31 32 33 35 36 36 38 40 40 39 39 40 40 42 43 43 43 42 42 43 43 43 43 44
32 32 32 32 32 32 31 28 26 25 24 24 24 24 23 23 23 22 23 24 26 27 28 30 31 31 32 34 35 35 36 37 38 39 39 40 41 40 41 42 43 42 42 43 44 44 44 45 45
34 33 32 32 32 32 32 29 27 27 26 25 25 24 24 24 24 24 24 25 27 28 29 31 32 32 33 35 36 36 37 38 38 39 39 40 41 41 42 43 44 43 43 44 45 45 45 46 46

GEFSSGP_500_meanwind_204.txt.gz
Wind_Speed
21 21 21 22 24 25 24 23 23 23 23 24 24 24 24 24 24 24 23 21 20 20 20 20 19 19 18 18 18 18 18 17 17 16 16 15 15 15 14 14 14 14 13 12 12 11 10 10 10
21 21 22 23 24 24 23 24 24 24 24 25 25 25 25 25 25 24 23 22 21 21 22 22 21 21 21 20 20 20 19 19 18 18 17 17 17 16 16 16 16 15 15 14 14 13 12 11 10
21 21 22 23 23 23 23 23 24 24 25 25 26 26 27 26 25 25 24 23 22 22 23 23 23 23 22 22 22 22 21 20 20 19 19 18 18 18 17 17 17 17 16 16 15 15 13 13 12
20 21 22 23 22 22 23 23 24 25 25 26 26 27 27 27 26 26 25 25 24 23 23 24 24 24 23 24 24 23 22 22 21 21 20 20 19 19 19 18 18 18 18 17 17 16 15 14 13
20 21 22 23 23 23 24 23 24 25 25 26 26 27 27 28 28 27 27 27 26 25 25 25 25 25 24 24 24 24 23 23 23 22 22 21 20 20 20 20 19 19 19 19 19 18 17 16 15
20 21 21 22 23 23 24 24 24 25 25 25 26 27 27 27 28 29 28 28 28 27 27 27 26 26 25 24 25 25 25 24 23 23 23 23 22 21 20 21 21 20 20 20 20 20 19 18 17
20 20 21 21 22 22 22 24 25 25 25 25 27 28 28 28 29 29 30 30 30 29 28 28 28 27 27 26 25 25 25 25 25 24 24 24 24 23 22 22 22 22 22 21 21 21 20 19 18
20 21 21 21 22 22 21 23 24 25 25 26 27 28 28 29 30 30 30 31 31 31 30 30 30 29 28 27 27 26 26 26 26 25 25 24 24 24 23 24 24 24 23 23 23 22 21 21 20
22 22 22 22 22 22 22 23 24 25 25 26 27 28 29 29 30 31 32 32 33 33 32 32 32 31 29 28 28 27 27 27 27 26 26 26 25 25 25 25 25 25 25 24 24 24 23 22 21
22 23 22 23 23 23 23 24 24 25 25 26 27 28 29 29 30 31 32 32 33 33 33 33 34 33 32 31 30 29 28 28 28 28 28 27 27 26 25 25 26 26 26 26 25 26 25 24 23
23 23 23 24 24 24 24 25 25 25 26 27 27 28 28 29 31 32 32 31 32 33 33 34 34 34 34 33 32 31 30 30 29 29 29 28 28 28 27 26 26 27 27 26 26 26 27 26 25
24 23 24 24 25 25 25 26 26 26 26 27 27 28 29 29 30 31 32 32 33 34 34 34 35 35 35 34 34 32 32 31 30 30 30 30 29 29 28 28 27 27 27 27 27 27 27 28 27
25 24 24 24 25 25 25 25 26 26 27 27 27 28 29 30 30 32 33 34 34 34 34 35 35 36 36 35 35 33 32 32 31 31 31 31 31 30 29 29 28 28 28 28 28 28 28 28 28
26 25 25 24 25 26 26 26 26 25 27 27 28 28 29 30 30 32 33 34 34 35 34 36 36 36 37 37 36 35 34 33 32 32 32 32 31 30 29 29 29 29 29 29 29 29 29 29 29
27 26 26 25 26 26 27 26 26 26 28 27 28 28 29 29 30 31 33 34 34 35 34 36 36 36 37 38 38 37 36 35 34 33 33 33 32 30 30 30 31 30 30 30 30 30 30 30 30
28 27 26 25 26 27 27 26 26 27 28 28 28 29 29 30 30 30 32 34 35 35 35 36 37 36 37 39 39 39 38 37 36 35 34 34 33 31 31 31 31 32 31 31 31 32 32 32 32
28 28 27 26 27 27 28 27 27 28 29 28 29 29 30 30 30 30 31 33 35 35 36 36 37 37 37 39 40 40 40 39 37 37 37 36 35 33 31 31 32 32 33 33 33 33 33 33 33
29 30 28 27 27 28 28 27 26 28 29 28 29 29 29 30 30 30 30 31 34 35 35 37 38 38 38 39 40 42 41 41 40 39 39 38 36 34 32 32 31 31 33 34 34 34 34 34 33
31 31 29 28 28 28 28 27 26 28 27 28 28 28 27 27 28 29 30 31 33 35 35 35 37 38 39 39 40 41 41 42 41 41 40 40 38 36 34 34 33 33 33 34 35 35 35 34 34
32 32 30 29 29 30 29 27 26 27 27 27 27 26 26 27 27 28 30 31 32 34 36 36 38 39 39 39 40 41 42 42 42 41 40 41 40 38 37 36 36 35 34 35 36 37 37 37 37
33 32 30 30 31 31 31 29 26 26 27 27 27 26 26 26 27 28 30 31 32 33 35 36 38 39 40 40 41 40 41 42 43 42 42 41 41 39 38 38 38 38 37 37 37 38 38 39 40
33 32 32 32 32 32 32 32 26 25 26 26 27 26 25 26 27 28 29 31 32 33 34 35 37 38 39 40 42 41 41 41 43 43 44 43 43 42 40 39 39 39 39 39 39 38 39 40 41
33 33 33 33 33 33 32 33 27 25 26 25 25 25 26 26 26 27 28 30 32 33 34 34 36 37 38 40 41 42 41 40 41 42 44 44 44 44 42 40 40 40 40 40 40 39 40 40 41
34 33 33 34 34 35 31 32 30 26 26 26 26 26 26 26 25 26 27 29 31 32 32 33 35 37 38 40 41 41 41 40 41 42 42 43 43 43 43 41 41 41 42 42 42 41 41 41 42
34 33 34 35 35 35 32 33 31 27 27 26 26 26 26 26 25 25 26 27 29 30 31 32 34 35 37 38 40 41 40 41 42 42 43 44 44 43 43 43 43 43 43 43 43 43 43 43 44
34 34 35 35 36 35 34 33 30 28 28 27 27 26 26 26 26 25 26 27 28 29 30 31 33 34 35 37 40 40 39 39 41 42 43 44 44 44 44 45 44 43 44 45 45 45 45 45 45
35 35 35 35 37 36 35 33 30 29 28 27 27 27 26 26 26 25 26 27 27 28 29 30 31 32 33 35 38 40 40 38 40 42 44 44 44 44 44 45 44 45 45 46 46 46 46 45 45
35 34 33 35 36 36 35 33 31 30 29 27 27 27 26 25 25 25 25 25 26 27 29 30 30 31 33 34 36 39 40 39 40 42 43 44 45 45 45 44 44 44 45 46 46 46 46 45 44
34 35 35 36 36 37 36 34 32 31 29 28 28 27 26 26 25 25 25 25 26 27 28 30 31 31 32 34 35 37 38 40 41 42 42 43 45 45 46 46 45 44 43 43 43 44 45 45 44
35 35 36 37 37 36 36 33 30 31 29 29 28 28 28 27 27 26 26 26 26 27 28 30 31 31 32 33 34 35 36 37 39 41 42 43 44 44 45 45 44 44 43 43 43 44 45 46 46

GEFSSGP_500_meanwind_210.txt.gz
Wind_Speed
22 22 22 23 24 24 22 21 21 22 23 24 24 24 24 24 24 23 22 21 20 20 20 19 19 18 17 17 17 16 16 15 15 14 14 13 12 11 11 10 10 10 9 9 9 10 9 9 9
22 22 23 23 24 23 22 22 22 22 23 24 24 25 25 25 24 24 23 22 22 21 21 21 20 20 19 19 18 18 17 16 16 16 15 14 14 13 12 12 11 11 11 11 11 11 11 10 10
22 22 23 23 24 23 23 23 23 23 24 24 24 25 25 25 25 25 24 23 22 22 22 22 22 21 21 21 20 20 19 18 17 17 17 16 15 14 14 13 13 13 13 13 13 13 12 11 11
22 22 23 24 24 24 24 24 24 24 24 24 24 24 25 25 26 25 25 25 24 24 23 23 23 22 22 22 22 21 21 20 19 19 18 18 17 16 16 15 14 14 14 14 14 14 14 13 12
22 23 23 23 23 24 24 25 24 24 25 25 25 24 24 25 26 26 26 26 26 25 25 25 24 23 23 23 23 23 22 21 20 20 20 19 18 18 18 17 16 16 16 16 16 16 15 15 14
23 23 24 23 23 24 24 24 25 25 25 25 25 25 25 26 26 27 27 26 26 26 27 26 25 25 25 24 24 24 23 23 22 21 21 20 19 18 18 18 18 18 18 17 17 17 17 16 15
24 24 23 23 23 24 24 24 25 25 25 26 26 25 25 26 26 27 27 27 26 27 27 27 27 27 26 26 26 25 25 24 23 23 22 21 20 19 19 19 19 19 19 18 18 18 18 18 17
24 24 23 23 23 23 24 24 25 25 25 26 26 26 26 26 27 28 28 27 27 27 28 28 28 28 28 27 27 26 26 26 25 24 23 22 22 21 20 20 20 20 19 19 19 19 19 20 19
25 25 24 23 24 24 24 25 25 26 27 27 27 27 27 28 28 28 29 28 28 28 28 28 28 29 30 29 29 28 28 28 27 26 25 24 23 23 22 22 22 21 21 20 20 19 19 20 20
27 26 25 25 25 25 25 25 26 26 27 27 28 28 28 28 28 28 29 29 28 29 29 29 29 29 31 31 30 30 30 29 29 28 27 26 25 24 24 24 23 23 23 22 21 21 21 21 21
28 27 26 26 26 26 26 26 27 27 27 28 28 29 29 29 29 29 30 30 29 29 30 30 30 30 30 32 33 32 32 31 30 30 29 28 27 26 25 25 25 24 24 24 23 23 23 23 23
30 28 28 28 28 27 27 27 27 27 27 28 28 29 30 30 30 29 30 30 29 29 30 31 31 31 31 32 34 34 34 33 32 31 30 30 30 29 28 27 26 26 25 25 25 24 24 25 25
31 30 29 29 29 29 29 28 28 27 28 29 29 29 30 30 30 31 31 32 30 29 30 32 32 32 33 33 34 36 36 35 34 33 32 32 32 31 30 29 28 27 27 27 26 26 25 25 26
33 32 31 31 30 30 30 30 29 27 30 30 30 30 30 30 31 31 32 32 32 32 32 32 33 33 33 34 34 36 37 36 36 35 34 33 33 33 33 32 30 29 29 28 28 27 26 26 27
35 34 33 32 32 31 32 30 29 29 30 31 31 30 30 31 32 32 33 33 33 33 33 34 33 34 34 35 36 36 37 37 37 37 36 35 35 35 34 34 33 32 31 30 30 29 28 27 27
35 35 34 32 32 32 33 30 29 30 30 31 31 30 30 31 32 32 33 34 34 35 34 35 35 35 36 36 37 38 38 38 38 38 38 37 36 35 35 35 35 34 33 32 31 31 30 29 29
35 35 34 33 34 34 34 32 30 32 31 32 32 31 31 31 32 33 33 34 35 35 35 35 36 36 36 37 38 38 39 40 39 40 40 39 38 37 36 36 36 36 35 34 33 33 31 31 31
35 35 34 34 35 36 36 33 32 33 32 32 32 32 32 32 33 33 33 34 34 35 36 36 36 37 37 37 38 39 40 40 40 41 41 41 39 39 37 37 37 37 36 36 35 34 33 33 33
36 36 36 35 36 37 37 35 33 34 33 32 32 32 32 33 34 33 33 34 35 36 36 37 37 37 38 38 38 39 41 41 41 41 42 42 41 40 39 39 39 38 38 37 36 36 35 35 35
37 38 37 37 37 38 38 37 35 35 34 33 33 32 32 33 34 34 34 34 35 36 36 37 37 38 38 38 37 38 41 41 41 41 42 42 43 41 40 41 41 40 38 38 37 37 37 36 36
39 39 38 38 39 39 40 39 36 35 35 34 34 33 32 33 34 34 34 35 35 36 36 37 38 38 38 38 38 39 40 41 41 41 41 43 43 43 42 42 42 43 41 40 40 39 38 37 37
40 39 39 39 40 40 40 41 36 35 35 34 34 33 32 33 33 33 34 34 35 36 36 37 38 38 38 38 38 40 41 42 42 41 41 43 44 45 44 44 44 44 43 41 41 40 40 40 39
41 40 40 41 41 42 41 42 38 35 34 34 34 34 33 32 32 32 33 34 34 35 36 36 37 37 38 38 37 38 40 42 43 43 43 43 44 46 46 45 45 46 44 43 43 42 42 42 42
41 41 41 41 41 43 40 42 40 36 33 33 34 34 34 32 32 31 31 32 33 34 35 36 37 37 38 38 39 39 39 42 42 43 44 44 44 45 47 48 47 47 46 46 45 45 44 43 43
40 40 40 41 42 43 40 41 39 36 34 34 34 34 34 33 32 32 32 32 33 34 34 35 37 38 38 39 39 39 39 41 42 44 45 45 45 46 47 47 48 48 48 48 46 46 46 46 45
39 40 40 41 43 42 41 40 37 36 34 34 34 35 35 34 33 32 32 33 33 33 33 34 36 37 38 39 40 40 41 42 43 44 46 46 46 47 47 48 49 49 49 49 49 47 47 47 47
39 40 39 41 43 44 44 41 38 35 34 34 34 35 35 34 34 33 33 33 33 32 32 32 34 36 37 38 39 40 41 43 43 44 45 46 46 47 47 48 49 50 50 49 49 49 47 46 46
40 39 39 41 42 43 44 42 39 36 35 35 35 35 36 35 34 34 33 32 32 33 32 32 33 35 37 37 37 39 40 40 42 43 44 45 46 47 47 48 48 49 49 49 48 47 47 46 45
40 40 40 41 42 42 43 42 38 35 35 36 35 35 35 35 34 34 34 34 33 34 33 33 34 34 35 37 38 38 38 39 40 42 43 43 43 44 45 46 47 47 48 48 47 46 46 47 46
40 39 39 40 41 42 43 41 37 35 35 35 35 36 35 35 34 34 34 34 34 34 34 34 34 35 35 36 36 36 37 37 38 38 39 40 40 41 42 44 45 45 46 47 47 47 46 46 46

GEFSSGP_500_meanwind_216.txt.gz
Wind_Speed
22 22 23 23 24 24 22 21 21 21 22 23 23 22 22 23 23 24 23 22 22 22 21 20 20 19 18 17 16 16 16 16 15 15 14 14 14 13 13 12 11 11 10 9 9 9 8 7 7
23 23 24 24 25 24 22 21 22 23 23 24 24 24 24 24 24 24 24 24 24 23 23 22 21 21 20 19 18 18 18 18 17 17 16 15 15 15 14 14 13 12 12 11 10 10 9 8 8
24 24 24 25 25 23 23 22 23 23 24 24 25 25 25 24 25 25 25 25 25 25 24 24 23 22 21 21 20 20 20 19 19 18 18 17 16 16 16 15 15 14 13 12 11 11 10 10 9
24 25 25 25 24 24 24 24 24 24 25 25 25 26 25 25 26 25 26 26 26 26 25 25 25 24 23 23 22 21 21 21 20 20 19 19 18 18 17 17 16 15 15 14 13 12 12 11 11
24 25 25 25 25 25 25 25 26 26 26 26 26 26 26 26 27 27 27 27 27 27 27 26 26 25 24 24 23 22 22 22 22 22 21 21 20 19 19 18 17 16 15 15 15 15 14 13 13
25 25 26 25 25 25 26 26 26 26 26 26 27 27 26 26 27 27 27 27 28 28 28 28 28 27 26 25 24 24 23 23 23 23 23 22 22 21 20 20 19 18 18 17 16 16 15 15 14
25 25 25 25 25 26 26 26 27 27 27 26 26 26 26 27 27 27 27 28 28 28 29 28 29 29 28 27 26 25 24 24 24 24 24 24 23 23 22 21 21 20 20 19 18 18 17 16 16
25 25 25 25 25 26 26 26 27 27 26 27 26 26 27 27 27 27 28 28 29 29 29 29 29 29 29 29 28 27 27 26 26 26 25 25 25 24 23 22 21 21 21 20 19 19 18 17 17
27 27 26 25 25 26 26 26 26 26 27 27 27 27 27 28 28 28 28 28 29 30 30 30 30 30 29 29 30 30 29 28 27 28 27 27 27 26 25 24 23 21 22 22 21 20 20 19 18
29 29 27 27 26 26 26 26 26 26 26 27 27 28 28 28 28 29 28 29 30 30 31 31 31 31 30 30 29 30 30 30 29 29 29 29 28 28 28 27 26 24 23 23 22 22 22 21 21
31 30 29 29 28 27 26 26 26 26 26 27 28 28 29 29 29 29 29 30 30 30 31 31 32 32 31 31 31 30 29 30 30 30 30 30 30 30 29 29 28 28 26 25 24 23 23 22 22
32 31 30 30 30 29 28 28 28 27 27 29 29 30 30 30 30 30 31 31 31 31 31 33 32 33 33 32 32 32 31 31 30 30 31 31 31 31 31 31 31 30 29 27 27 26 25 24 23
34 32 32 32 32 31 30 30 29 28 29 30 30 30 30 30 30 30 30 31 31 32 32 32 33 33 34 34 33 33 33 33 32 32 32 32 32 33 33 33 32 31 31 30 28 28 27 27 26
35 34 34 34 34 33 32 32 31 29 31 31 31 30 31 30 31 30 30 30 30 31 33 33 33 33 34 34 34 34 33 34 34 34 33 33 33 34 34 34 34 33 33 32 31 30 29 29 28
37 36 36 36 36 35 34 33 32 31 32 31 31 31 31 31 31 30 31 31 31 32 32 32 33 34 34 35 35 35 35 35 35 34 35 35 35 35 35 35 36 35 34 33 33 32 32 31 30
38 38 38 37 37 36 36 34 33 34 33 32 32 32 32 31 31 31 31 32 32 33 33 32 33 33 34 35 36 37 36 35 34 35 35 36 36 36 36 36 37 38 37 36 34 34 33 33 32
40 40 39 38 38 38 38 36 34 35 35 34 34 33 33 32 32 32 32 33 33 34 34 33 34 34 34 35 36 38 38 36 36 36 37 37 37 38 38 38 38 39 40 39 37 36 35 34 34
40 40 40 40 40 40 40 38 36 36 36 35 35 34 33 33 33 33 32 34 34 34 35 34 34 35 36 36 37 38 38 38 38 37 38 38 38 38 39 40 40 40 39 39 38 38 37 37 36
42 42 42 41 41 41 41 40 38 38 38 37 36 36 35 34 34 34 34 34 35 36 35 35 35 36 37 37 38 38 39 40 39 39 39 39 40 40 40 40 41 41 40 39 39 39 39 38 38
43 43 42 42 42 42 42 42 39 39 39 38 37 36 35 35 35 35 35 35 35 36 36 36 37 37 38 38 39 39 40 41 41 40 40 40 41 42 42 41 42 41 41 41 41 40 40 39 39
43 43 42 43 43 44 45 44 41 40 40 39 38 37 36 36 35 36 36 36 35 35 36 37 38 38 38 38 39 39 40 41 41 41 41 41 41 42 43 42 43 43 41 40 40 41 41 41 41
44 43 43 43 43 44 44 46 42 42 41 40 39 38 37 37 36 36 37 36 36 36 37 37 38 38 38 38 38 38 39 40 41 41 41 42 42 43 44 43 44 44 43 42 42 41 42 42 42
44 43 43 43 44 44 44 46 43 42 42 40 39 39 38 38 38 37 37 37 37 37 37 38 38 38 38 38 38 38 38 39 41 41 41 41 41 41 43 43 45 45 45 45 44 43 44 44 45
43 43 44 44 44 46 43 45 44 41 40 40 39 39 39 39 39 39 38 38 38 37 38 38 39 39 40 39 39 39 39 40 41 41 42 42 42 42 43 44 45 45 45 46 46 45 45 45 46
43 43 44 45 46 47 44 45 44 41 39 38 38 39 39 39 40 40 39 38 38 38 38 38 38 39 40 40 40 40 40 40 41 42 43 43 44 44 44 45 46 46 46 46 47 47 47 47 47
42 42 43 44 46 46 46 45 43 41 39 37 37 38 38 38 39 40 39 38 39 39 39 38 38 38 39 39 39 40 40 40 42 42 43 44 44 44 45 46 47 48 48 49 49 49 49 49 49
41 41 41 43 45 45 46 45 43 41 38 36 36 37 37 37 37 38 39 38 38 38 39 39 39 38 38 38 38 39 40 40 41 42 43 43 44 44 46 46 47 47 48 49 50 50 50 50 50
40 40 39 41 43 44 45 44 43 40 38 36 36 36 36 36 36 37 38 37 37 37 37 38 38 38 38 38 39 39 40 40 41 41 41 41 43 44 45 46 46 46 46 47 48 49 50 51 51
38 39 40 40 41 41 42 43 40 39 39 36 35 36 36 37 37 36 37 38 38 38 37 37 37 37 38 38 38 39 39 40 40 41 40 41 42 43 44 45 45 45 45 46 47 48 48 49 50
35 36 38 38 39 40 40 40 38 38 38 38 37 36 36 37 37 37 37 38 37 37 38 38 37 37 38 38 38 38 39 39 39 40 40 40 41 42 43 43 43 44 44 45 46 46 46 48 49

GEFSSGP_500_meanwind_222.txt.gz
Wind_Speed
24 24 25 25 26 26 24 23 23 23 23 24 24 24 24 26 26 26 23 22 21 21 20 20 20 19 19 18 18 17 17 16 15 14 13 12 11 11 11 11 12 12 11 10 10 10 9 8 8
24 25 26 27 27 26 24 24 25 24 24 25 25 25 25 27 26 25 24 23 23 23 22 22 22 21 21 20 20 19 18 18 17 16 15 14 13 13 12 12 13 14 13 12 11 11 10 10 9
25 26 27 28 28 26 26 26 26 26 25 26 26 26 27 27 26 25 25 25 25 24 24 24 23 23 23 22 22 21 20 19 19 18 17 17 15 15 14 14 14 15 15 14 13 12 12 11 10
26 27 28 28 27 26 27 27 27 27 26 27 28 28 28 27 26 27 27 27 26 26 26 26 25 25 24 24 23 23 22 21 21 20 19 18 18 17 16 15 15 16 16 15 15 14 13 13 11
27 28 28 28 27 27 28 28 28 28 28 28 29 29 29 28 28 29 29 29 28 28 28 27 27 26 26 25 25 24 23 23 23 22 21 20 19 19 18 17 16 17 17 16 16 16 15 14 14
27 28 29 28 27 27 28 28 28 28 28 29 29 29 29 28 29 30 30 30 29 29 29 29 28 28 28 27 27 26 25 25 24 24 23 22 21 20 20 19 18 18 18 18 17 17 16 16 16
28 28 28 28 27 27 28 28 29 29 29 29 29 29 30 28 29 30 30 30 30 30 30 30 29 29 29 29 28 27 27 26 25 25 24 24 23 22 22 21 20 20 20 20 19 19 18 17 17
29 30 29 28 28 28 28 29 29 29 29 29 29 29 29 28 29 30 30 30 31 30 31 31 30 30 30 30 29 28 28 28 27 26 25 25 24 24 23 23 22 21 21 21 21 20 20 19 18
31 31 29 28 29 29 29 28 28 29 29 29 29 29 29 28 29 30 30 30 30 30 31 31 31 30 31 31 30 30 29 29 29 28 27 27 26 25 24 24 23 23 23 23 23 22 22 21 20
32 32 30 30 30 30 30 29 29 29 29 29 29 29 29 28 29 29 29 29 30 30 31 32 32 32 31 31 31 31 31 30 30 30 29 28 28 27 26 26 25 25 24 24 24 24 23 22 22
34 33 32 32 32 32 32 31 30 30 30 30 29 29 29 29 28 28 29 29 30 30 30 31 32 33 33 32 32 32 32 31 30 30 30 30 29 29 28 28 27 26 26 26 26 25 25 24 23
35 34 34 34 34 34 33 33 32 31 31 31 30 29 29 29 29 29 29 30 30 30 31 31 32 32 33 34 33 33 33 33 32 31 30 30 30 30 30 29 29 28 28 28 28 28 27 26 26
36 35 36 36 36 35 35 34 33 32 32 32 31 30 30 30 30 30 30 30 31 30 31 32 32 32 33 33 33 33 33 33 33 32 31 30 29 30 30 30 30 30 29 30 30 30 29 29 28
37 37 37 37 37 36 36 35 35 32 33 33 32 32 31 31 31 31 31 31 31 31 31 31 32 32 32 33 33 33 33 33 33 33 32 32 31 30 30 30 30 30 30 30 30 31 31 31 30
39 39 39 38 38 38 38 37 35 34 35 35 34 34 33 33 33 33 33 32 32 32 32 32 32 32 32 33 33 34 34 34 34 34 34 33 33 32 31 31 31 31 30 30 31 31 31 32 32
41 42 41 39 39 39 40 38 35 36 36 36 36 35 35 35 35 34 34 33 33 33 33 33 33 33 33 33 33 34 35 35 35 36 35 35 34 34 34 34 33 32 32 32 32 32 32 33 33
43 43 42 41 41 41 41 39 37 38 38 37 37 37 36 36 36 35 34 34 33 34 34 34 35 35 34 34 34 34 35 36 36 37 37 36 36 36 36 36 35 34 33 33 34 34 34 34 35
43 43 43 43 43 43 43 41 40 39 39 39 38 37 37 37 36 36 35 35 34 34 35 36 36 35 34 34 35 35 35 36 36 37 38 37 37 37 37 37 36 36 36 35 35 35 35 35 36
45 45 45 44 45 46 45 44 42 41 41 40 39 39 39 38 38 37 36 36 35 35 35 36 37 36 36 35 35 35 35 36 36 37 38 38 38 38 37 37 37 37 37 38 38 37 37 37 37
47 47 47 46 46 47 47 46 44 43 42 41 41 40 40 40 39 39 37 36 36 36 36 36 36 36 36 36 37 37 36 36 36 37 38 38 39 38 38 38 38 38 38 39 39 39 39 38 38
47 47 47 47 47 48 49 49 47 45 43 43 42 41 41 40 40 40 39 38 37 37 37 37 37 37 37 37 38 38 37 37 38 38 38 39 39 40 39 39 39 39 40 40 41 41 41 40 40
46 46 47 48 48 49 50 51 47 46 45 44 43 42 42 41 41 41 40 40 39 38 38 38 38 38 37 38 39 39 38 38 38 39 39 39 40 41 41 40 40 39 40 41 41 41 41 41 41
46 46 47 48 49 50 50 51 49 47 47 45 44 44 43 43 42 42 41 41 40 39 38 38 38 38 38 38 38 39 39 39 40 40 40 40 41 41 42 42 42 41 41 41 42 42 42 42 41
45 45 46 47 49 51 48 50 51 48 46 46 45 44 44 44 43 43 43 43 42 40 39 39 39 39 38 38 38 39 39 40 40 40 41 41 42 42 42 42 43 43 43 42 42 42 42 43 43
42 43 43 45 47 50 47 49 50 47 46 46 46 45 45 44 44 43 43 43 43 42 40 40 40 40 39 39 39 39 40 40 40 40 41 41 41 41 42 42 43 42 42 43 43 43 42 43 43
41 42 43 44 46 47 47 48 47 46 46 46 46 45 45 45 44 44 43 43 43 43 41 41 41 41 41 40 40 40 41 41 41 41 41 41 41 41 41 41 42 42 43 43 43 43 43 43 44
41 41 42 43 44 46 47 48 48 46 46 45 45 44 44 44 44 44 44 44 45 44 43 42 41 42 41 41 41 41 41 42 42 42 42 42 41 41 41 41 41 42 43 44 45 44 45 45 44
39 40 39 42 42 44 46 45 46 45 45 45 44 44 43 43 43 43 44 44 44 44 44 42 41 41 41 41 41 41 41 42 42 42 42 43 43 43 43 42 43 43 43 44 45 45 45 45 45
34 36 39 41 42 41 41 40 41 42 44 44 43 43 42 42 43 43 43 44 44 44 44 44 43 43 42 42 42 41 41 41 41 41 42 43 43 43 43 43 43 43 44 45 46 46 45 45 45
31 32 34 36 38 39 39 40 39 41 41 41 42 42 42 42 42 42 42 43 44 45 45 44 44 43 43 43 42 42 42 41 42 42 42 43 43 43 43 43 43 42 43 44 44 45 44 44 44

GEFSSGP_500_meanwind_228.txt.gz
Wind_Speed
25 26 26 26 27 27 25 24 23 23 23 23 23 24 24 23 23 22 19 19 19 18 18 18 18 17 17 16 16 16 15 14 14 13 13 12 11 10 9 9 9 9 10 10 10 9 9 8 8
26 26 27 27 28 27 25 25 24 24 25 25 25 25 25 24 23 22 21 20 20 20 20 19 19 19 19 19 18 18 17 16 16 15 15 14 13 12 11 10 10 10 11 11 11 11 10 10 9
27 27 28 28 28 26 26 25 25 26 26 26 26 26 26 24 23 23 22 22 22 22 21 21 21 21 21 20 20 20 19 19 18 17 17 16 15 14 13 12 12 12 12 12 12 12 12 11 11
28 28 29 29 28 27 27 26 27 28 27 27 28 28 26 25 24 24 24 23 24 23 23 23 23 22 22 22 22 22 21 21 20 19 19 18 17 16 16 15 14 14 14 14 14 13 13 12 12
28 29 29 29 27 27 27 27 28 28 28 28 29 28 27 26 26 26 25 25 25 25 25 25 24 24 23 23 23 23 23 23 22 22 21 20 20 19 18 17 16 15 15 15 15 14 14 14 13
29 30 30 28 28 28 28 28 28 29 29 30 30 29 28 27 27 27 27 27 27 27 27 27 26 25 25 25 24 24 24 24 24 23 23 22 22 21 20 19 18 17 16 16 16 15 15 15 15
30 30 30 29 28 28 28 29 29 29 29 30 30 30 29 29 28 28 28 28 28 28 28 28 28 28 27 26 26 25 25 25 25 25 24 24 23 23 22 21 20 19 18 17 17 17 17 17 16
31 31 30 29 29 28 29 29 30 30 29 30 30 30 29 29 29 29 29 29 29 30 30 30 30 29 29 28 27 27 27 27 27 26 26 25 25 24 24 23 22 21 21 20 19 18 19 19 18
32 32 30 29 29 29 29 30 30 30 30 30 30 30 30 30 29 29 29 29 29 30 30 30 30 30 30 29 28 28 28 28 28 27 27 26 26 25 25 24 24 23 23 22 21 20 20 21 20
34 32 30 30 31 30 30 31 31 31 31 31 30 30 30 30 30 29 28 28 28 28 29 30 30 30 30 30 30 29 29 29 29 28 28 28 27 26 26 25 25 25 24 23 23 22 22 22 22
35 33 32 32 32 32 32 32 33 33 32 31 31 31 31 30 30 30 30 29 29 29 29 29 30 30 30 30 30 30 30 30 29 29 29 29 28 28 27 27 26 26 25 25 24 24 23 23 23
36 35 34 34 34 34 34 34 34 34 32 32 32 32 31 31 31 30 30 30 29 29 29 29 29 30 30 31 31 31 31 31 30 30 30 30 29 28 28 28 28 28 28 27 26 26 25 24 25
38 37 36 36 36 36 36 36 35 34 33 34 33 33 32 32 31 31 31 31 30 29 29 29 30 30 30 31 31 31 31 31 31 31 31 30 30 29 29 28 29 29 29 29 29 28 27 27 27
40 39 38 38 37 37 37 37 37 34 35 35 35 34 34 33 32 32 32 31 31 30 29 30 30 30 30 31 32 32 32 32 32 32 32 31 31 31 31 30 30 29 29 29 28 28 28 28 28
42 42 41 39 39 39 39 39 36 34 36 36 35 35 35 34 34 33 33 33 32 31 30 30 31 31 31 31 31 32 32 33 33 33 33 32 32 32 32 31 31 30 30 30 29 29 29 29 29
44 44 44 41 40 40 42 40 37 37 38 37 36 36 36 35 35 35 34 34 33 33 31 31 32 32 32 32 32 32 32 33 33 33 33 33 33 33 33 33 33 32 31 31 31 30 31 31 31
46 46 45 43 42 43 43 41 38 39 39 39 37 37 37 37 36 36 35 35 35 34 33 32 32 33 34 34 34 33 33 33 33 34 34 34 34 34 34 34 34 34 33 32 33 32 32 32 32
47 47 46 45 44 45 45 44 41 41 41 40 39 39 38 38 38 37 37 36 36 35 34 34 33 34 34 35 35 34 34 34 34 34 34 34 34 35 35 35 35 35 35 34 34 33 33 34 33
47 48 48 47 47 47 47 46 44 43 43 42 41 41 40 39 39 39 39 38 37 37 36 35 34 34 34 34 34 34 34 35 35 35 35 35 35 36 36 36 36 36 36 36 35 35 35 35 35
48 49 49 49 49 49 49 49 47 45 44 44 43 42 42 41 41 40 40 39 39 38 37 36 36 35 35 35 35 36 36 36 36 36 36 36 36 37 37 37 37 37 37 37 37 36 36 36 37
48 49 49 49 50 50 51 51 50 47 46 45 44 43 43 42 41 41 41 40 39 39 38 37 36 36 36 37 37 37 37 37 36 36 37 37 38 38 38 39 39 39 39 39 39 39 38 38 38
48 47 49 49 50 50 51 52 51 49 48 48 46 44 43 43 42 42 42 41 40 39 39 39 38 37 36 37 38 38 37 37 36 37 38 39 39 39 39 40 40 40 39 39 40 40 40 40 40
46 46 47 49 50 51 51 52 51 50 49 48 47 46 45 44 43 43 42 42 41 41 41 40 38 38 38 38 39 39 39 38 38 38 39 39 40 40 39 39 40 40 40 39 40 40 40 40 40
44 45 46 47 48 51 51 52 52 49 47 47 47 47 46 46 45 44 43 43 42 42 42 41 39 38 38 39 40 40 39 39 39 39 39 39 39 39 39 39 40 40 40 40 40 40 40 40 40
43 44 45 46 48 49 48 51 51 48 47 46 46 46 47 47 47 46 44 44 43 43 43 42 40 40 39 39 39 40 40 40 40 39 39 39 39 39 39 39 40 40 41 40 41 41 41 41 41
40 42 43 45 47 46 46 49 49 47 47 47 47 46 46 46 47 47 46 44 44 44 44 43 42 41 40 40 40 40 41 41 41 40 40 40 40 40 40 40 40 40 41 42 42 42 42 42 42
36 38 39 42 45 44 45 46 47 47 46 47 47 46 45 46 46 46 46 45 45 45 45 46 44 42 42 42 41 41 42 42 41 41 41 40 40 41 41 40 41 41 42 42 43 43 43 43 43
33 35 36 38 40 43 43 43 43 45 45 44 44 45 45 45 46 46 46 46 46 45 45 45 46 44 43 43 42 42 42 42 42 42 42 42 41 42 42 42 42 42 42 43 43 43 43 44 44
29 33 36 37 37 38 40 42 42 41 43 43 43 42 43 44 45 46 46 46 46 46 46 45 45 45 44 44 43 42 43 44 44 44 43 43 42 43 43 43 43 43 43 43 43 43 43 44 44
28 30 33 35 36 38 39 40 38 39 40 42 43 43 42 43 44 45 45 45 45 46 46 46 46 45 45 45 44 44 43 44 44 44 43 43 43 43 43 44 44 44 44 44 44 44 44 44 44

GEFSSGP_500_meanwind_234.txt.gz
Wind_Speed
27 28 28 29 30 30 27 24 23 23 24 25 25 25 23 22 22 21 20 19 19 19 18 18 17 17 16 15 14 14 13 12 11 10 10 9 8 8 7 7 7 6 6 5 5 5 5 5 5
28 29 30 31 32 30 27 25 24 24 26 27 27 26 25 24 23 23 21 21 21 20 20 20 19 19 18 17 16 15 15 14 13 12 11 11 10 10 9 8 8 8 7 7 7 6 6 6 6
29 30 31 32 32 30 27 26 25 26 27 28 28 27 26 25 25 24 23 22 22 22 22 22 21 20 20 19 18 18 17 16 15 14 13 13 12 11 11 10 9 9 9 9 8 7 7 7 7
29 30 32 32 31 29 28 27 27 28 28 28 28 28 27 26 26 26 25 24 24 23 23 23 23 22 21 21 20 20 19 18 17 16 15 14 14 13 13 12 11 10 10 10 9 9 8 8 8
30 31 32 31 30 29 28 28 29 29 29 29 29 28 27 27 27 27 26 25 25 24 24 24 24 23 23 22 22 21 20 20 19 18 18 17 16 15 15 14 13 12 11 11 11 11 10 10 10
32 32 33 31 29 29 29 30 30 30 29 30 30 29 28 28 28 28 27 27 26 26 25 25 25 24 24 23 23 22 22 21 21 20 19 19 18 17 17 16 16 15 14 13 12 13 12 12 11
33 34 33 32 30 30 29 30 31 30 30 30 30 29 28 29 29 29 29 28 28 27 27 27 26 26 25 25 24 23 23 22 22 22 21 21 20 20 19 19 18 17 16 16 15 14 14 13 13
35 35 34 32 31 30 30 31 31 31 31 31 31 30 29 29 30 29 29 29 28 28 27 27 28 28 27 27 26 25 24 24 23 23 22 22 22 21 21 20 20 19 19 18 17 17 16 16 15
36 36 34 32 31 31 31 32 32 31 31 31 31 30 29 29 30 30 30 29 28 28 28 28 28 29 28 28 27 27 26 26 25 24 24 23 23 23 22 22 22 21 21 20 20 19 19 18 18
37 37 34 33 33 33 33 33 33 33 32 32 31 31 30 30 30 30 31 30 30 29 29 29 29 29 29 29 28 28 28 27 27 27 26 25 24 24 24 23 23 23 22 22 21 21 20 20 20
38 37 35 35 35 35 34 35 35 34 33 32 32 31 31 31 31 31 31 31 31 30 30 30 30 30 30 30 30 29 29 29 29 28 28 27 26 25 25 25 24 24 23 23 23 22 22 22 21
39 37 37 36 36 36 36 36 36 36 34 34 34 33 33 33 33 32 32 32 33 32 31 31 31 31 31 31 31 30 30 30 29 29 29 29 28 27 26 26 25 25 25 24 24 24 23 23 23
40 39 39 38 38 38 38 38 38 37 35 36 36 35 35 34 34 34 34 34 34 34 33 32 32 32 31 32 32 31 31 31 31 30 30 30 29 29 28 28 28 27 27 26 26 26 25 25 25
42 42 41 41 41 40 41 40 40 37 37 38 37 37 36 36 36 36 36 35 35 35 36 34 33 33 32 32 32 32 32 32 32 31 31 31 30 29 29 29 29 28 27 27 27 27 27 26 26
43 44 44 43 43 43 43 43 40 39 39 39 39 39 38 37 37 37 36 36 36 36 36 36 35 34 33 33 33 33 33 33 32 32 32 32 32 31 31 30 30 29 29 28 28 27 27 27 26
47 47 47 45 45 45 46 44 41 41 41 41 41 40 39 39 38 38 37 37 37 37 37 37 36 35 34 34 34 34 34 34 33 33 32 32 32 32 32 31 31 30 30 30 29 29 28 28 28
49 49 49 48 47 48 48 46 44 43 43 43 42 42 42 40 40 39 38 38 38 38 38 37 37 36 36 35 34 35 35 35 34 33 33 32 33 32 32 32 32 31 31 31 31 31 30 29 29
49 50 50 49 49 50 50 49 47 46 45 45 44 44 44 42 41 40 40 40 40 40 39 39 38 37 37 36 35 34 36 35 35 33 33 33 33 33 33 33 33 33 32 32 32 31 31 31 31
50 51 51 50 50 51 52 51 49 49 48 47 46 46 46 44 43 42 42 41 41 41 41 40 38 38 38 36 35 35 35 36 35 34 33 33 34 34 34 34 34 34 34 33 33 33 32 32 33
51 51 51 51 51 52 53 53 52 51 50 49 48 47 47 46 45 44 43 43 42 41 41 41 40 38 38 37 36 36 37 37 36 35 34 34 34 34 34 35 35 35 35 35 35 35 34 34 34
50 50 50 51 51 52 53 54 52 52 51 50 49 49 48 47 46 46 45 44 44 43 42 41 41 40 40 39 37 37 37 38 37 36 36 36 36 35 35 35 36 36 36 36 36 36 35 35 35
48 48 49 49 50 52 53 54 52 52 52 52 51 50 49 49 48 47 47 46 45 44 43 42 42 41 41 41 40 39 38 38 37 37 38 38 38 37 36 36 36 36 36 37 37 37 36 36 36
46 47 48 48 50 52 52 54 53 52 52 52 52 52 51 50 49 48 48 47 46 45 44 44 43 43 43 42 42 40 39 39 39 39 39 39 39 39 38 37 37 37 37 38 38 37 37 37 37
44 45 46 48 49 52 51 53 54 53 52 52 52 52 51 50 50 49 48 48 47 46 45 45 44 43 43 43 42 41 40 40 40 40 39 39 39 39 38 38 38 38 39 39 39 39 38 38 38
41 42 44 46 49 51 49 51 53 52 51 52 52 52 51 51 51 51 50 49 48 47 46 46 45 45 44 44 43 42 41 41 41 41 40 40 40 39 39 39 39 39 39 40 40 40 40 39 39
38 39 41 43 46 48 48 49 50 51 51 51 51 51 51 51 51 51 50 50 49 48 47 47 46 46 45 45 44 43 43 43 43 43 42 41 40 40 40 40 40 40 40 40 40 41 40 40 40
35 37 37 39 42 45 46 48 49 49 49 49 50 50 50 50 50 50 50 50 50 49 49 48 47 47 46 46 45 45 44 44 44 44 43 43 42 41 41 42 41 41 41 40 40 41 41 41 41
32 33 33 35 37 40 43 44 45 47 48 48 49 49 49 50 50 51 51 51 51 51 50 49 48 47 47 47 47 46 46 45 44 44 44 44 43 43 42 42 42 42 42 41 41 41 41 41 41
27 29 30 31 34 37 40 41 42 44 45 46 47 48 49 49 50 51 52 51 51 51 51 51 50 49 48 47 47 47 47 46 45 45 45 45 45 44 44 43 43 43 42 42 42 42 42 42 42
24 26 28 30 32 35 37 39 38 40 42 43 44 45 46 47 48 50 51 51 51 51 51 51 50 49 49 49 48 48 48 47 47 46 46 45 45 45 45 44 44 44 44 43 43 43 43 43 43

GEFSSGP_500_meanwind_240.txt.gz
Wind_Speed
27 28 28 29 31 31 29 25 23 23 23 24 24 24 23 22 22 22 20 19 19 18 18 18 18 18 17 17 17 16 15 14 13 13 12 11 11 11 10 10 9 9 8 8 9 8 8 8 8
27 28 30 31 32 32 29 26 25 24 25 25 25 25 25 24 23 23 22 21 21 20 20 20 20 19 19 18 18 17 17 16 15 14 13 13 12 12 11 11 10 10 9 9 8 9 8 9 8
28 29 30 31 32 30 29 27 26 27 27 27 27 27 26 26 25 24 24 23 23 23 22 22 21 21 20 19 19 18 18 17 17 16 15 14 14 13 12 12 12 11 10 9 9 9 9 9 9
29 30 31 32 31 30 29 28 28 29 29 29 29 28 26 26 26 25 25 25 24 24 24 24 23 23 22 22 21 20 20 19 18 18 17 16 15 15 14 13 13 12 11 10 10 9 9 9 9
30 31 32 32 31 30 30 30 30 31 30 30 30 29 28 27 27 27 26 26 26 26 26 25 25 25 24 24 23 22 21 21 20 19 19 18 17 17 15 15 14 14 13 12 11 11 10 10 10
31 32 33 33 31 31 31 31 31 32 32 31 31 30 29 29 29 29 28 27 27 27 27 26 26 26 26 25 25 24 23 23 22 21 21 20 19 19 18 17 16 16 14 14 13 13 12 12 11
32 33 33 32 32 32 31 32 31 32 32 32 32 32 31 30 30 30 30 29 29 28 28 27 27 27 27 27 26 26 25 25 24 23 22 21 21 20 20 19 18 18 17 16 15 14 14 14 13
34 34 34 33 33 33 32 33 32 32 33 33 33 33 32 31 31 31 31 31 30 30 29 29 28 28 28 28 27 27 27 26 25 25 24 23 23 22 22 21 20 19 19 18 18 17 16 15 15
36 36 35 34 34 33 33 34 34 34 34 33 33 33 33 32 33 32 32 32 32 31 31 30 29 28 28 28 28 28 27 27 27 26 26 25 24 24 23 23 22 22 21 21 20 20 19 18 17
37 37 35 35 35 35 35 35 35 35 35 34 34 34 34 34 33 33 33 32 32 32 32 31 31 30 29 29 29 29 29 28 28 27 27 27 26 25 24 24 24 23 23 23 23 22 21 20 20
39 38 36 36 36 37 37 37 37 37 36 36 35 35 34 34 34 34 33 33 33 33 33 33 33 32 31 31 30 30 30 30 29 29 28 28 27 27 26 25 25 25 25 25 24 24 23 22 21
40 39 38 38 38 38 38 38 38 38 38 37 37 37 36 35 35 35 35 34 34 34 34 34 34 34 33 32 32 32 31 31 30 30 30 30 29 28 28 27 26 26 26 26 26 25 24 23 22
41 40 40 40 40 40 40 40 40 39 39 39 39 39 38 37 36 36 36 36 36 35 35 35 34 35 34 34 33 33 32 32 31 31 31 31 31 30 29 29 28 27 27 27 27 26 25 24 24
42 42 42 42 42 42 42 42 42 40 41 42 41 41 40 39 38 38 38 37 37 36 36 36 35 35 35 35 34 34 34 33 33 32 32 32 32 31 31 29 29 28 28 27 27 27 27 26 25
43 44 44 44 44 44 44 45 44 43 43 43 43 43 42 41 41 40 40 39 38 38 37 37 37 36 36 37 36 35 35 35 34 34 33 33 33 33 32 32 30 30 29 29 28 28 28 28 27
45 46 46 46 46 46 46 46 45 45 45 45 44 45 44 44 43 42 42 41 40 40 39 39 38 38 37 37 38 36 35 35 34 35 34 34 34 33 33 32 32 31 31 30 30 29 29 28 28
47 48 47 47 47 47 48 47 47 47 46 46 46 46 46 46 45 44 44 43 42 42 41 40 40 39 38 38 38 38 36 35 35 35 35 35 34 34 34 33 32 32 32 31 31 30 30 29 28
46 47 48 48 48 49 49 48 48 48 48 48 47 47 47 47 47 46 46 45 44 44 43 42 41 40 40 39 39 39 38 36 35 36 36 36 36 35 35 35 33 33 33 32 32 32 31 31 30
44 45 47 48 48 49 49 49 48 48 49 49 49 49 48 49 49 48 47 47 46 46 45 44 43 42 41 40 40 39 39 37 36 36 38 38 37 36 36 36 34 34 34 34 33 33 33 32 32
41 42 44 46 47 48 49 50 49 49 49 49 49 49 49 49 49 49 49 49 48 47 47 46 45 44 43 41 40 40 40 39 38 38 39 39 38 37 37 36 36 35 35 35 34 34 34 34 33
39 40 41 43 45 47 48 50 50 50 50 49 50 50 50 50 50 51 50 50 49 49 48 47 46 45 45 44 42 42 42 41 40 39 39 39 38 37 37 37 37 36 36 36 36 35 35 34 34
38 39 40 41 43 45 46 49 50 50 50 50 50 51 50 50 50 50 50 51 50 50 49 48 47 47 46 45 44 43 42 41 40 39 40 40 40 39 38 38 37 37 37 37 36 36 36 35 35
37 38 39 40 42 44 45 48 49 50 50 50 50 51 51 51 51 50 50 50 51 51 50 50 49 48 47 46 45 43 43 42 41 41 41 42 41 40 38 38 38 37 37 37 36 36 37 36 36
36 37 38 39 40 43 44 46 48 49 49 50 51 52 52 52 52 51 51 51 51 51 51 50 50 49 48 47 46 45 44 43 43 42 43 43 42 41 40 39 39 38 38 38 37 37 37 37 37
33 34 34 36 38 40 41 43 46 47 47 49 50 51 52 52 52 52 52 52 52 52 51 51 51 50 50 49 48 46 46 45 44 44 44 44 43 42 42 41 40 39 39 39 38 38 38 38 38
31 32 33 35 37 38 38 41 43 44 45 46 48 49 51 51 52 52 52 52 52 52 52 52 51 51 50 50 49 48 47 46 46 45 45 44 44 44 43 43 42 41 40 39 39 39 39 39 39
28 29 30 32 35 35 36 38 40 41 41 43 45 46 48 49 51 51 52 51 51 52 52 52 52 51 50 50 49 49 49 48 47 47 47 46 45 45 45 44 43 43 41 39 39 39 39 39 39
25 25 26 28 31 33 34 35 37 38 39 41 42 43 45 46 48 50 51 51 51 52 52 52 52 51 51 51 51 50 50 49 48 47 47 47 47 46 45 45 44 44 43 41 40 39 40 40 41
21 23 24 25 26 29 32 34 35 36 37 39 40 41 42 44 46 48 49 50 51 52 52 53 53 52 52 52 51 51 50 50 49 48 47 47 47 47 46 46 46 45 43 42 41 41 41 41 42
20 21 22 23 24 26 29 32 32 34 35 37 39 41 42 43 46 47 48 49 51 52 52 53 53 53 53 52 52 51 51 51 50 49 48 48 48 48 47 47 47 46 45 44 44 43 43 43 43

GEFSSGP_500_meanwind_246.txt.gz
Wind_Speed
25 26 27 28 30 30 28 26 25 24 24 24 25 25 24 24 24 24 21 19 18 18 18 18 18 18 17 17 16 16 15 15 14 13 13 12 12 11 10 10 10 10 10 9 9 8 8 8 7
26 27 28 29 31 30 27 26 27 26 26 25 26 26 26 26 26 25 23 22 21 21 20 20 20 20 19 18 18 17 16 16 16 15 14 14 13 12 12 11 10 10 10 10 9 9 9 8 8
27 28 29 30 31 29 27 28 29 28 27 27 27 28 27 27 27 26 25 24 23 23 22 22 22 21 21 20 20 19 18 17 17 17 16 15 14 14 13 12 11 11 11 10 10 10 10 9 9
28 29 31 31 30 28 29 30 30 29 29 29 29 29 28 28 27 26 26 26 25 24 24 24 24 23 22 22 21 20 20 19 18 18 18 16 16 15 14 13 13 12 12 11 11 11 10 10 10
30 31 32 32 30 29 30 31 31 31 31 30 31 31 30 29 28 27 28 27 27 26 25 25 25 25 24 24 23 22 21 21 20 20 19 18 17 17 16 15 14 14 13 12 12 12 11 11 11
32 33 33 32 31 30 31 32 33 33 32 32 32 32 32 31 30 29 29 29 28 27 27 26 26 26 26 25 25 24 23 22 22 21 21 20 19 18 17 17 16 15 14 13 13 12 12 12 12
34 35 35 33 32 32 31 33 33 34 34 33 33 34 33 32 32 31 30 30 29 29 28 28 27 27 27 27 26 26 25 24 24 23 23 22 21 20 19 19 18 17 16 15 15 14 14 13 13
36 36 35 35 34 33 34 35 35 35 35 35 35 35 35 34 33 32 32 32 31 30 29 29 28 28 28 28 28 27 26 26 25 24 24 23 23 22 21 20 20 19 18 17 16 16 16 15 14
38 38 36 35 36 35 36 37 36 35 36 36 37 37 36 35 35 34 33 33 33 32 31 31 30 29 29 29 29 29 28 27 27 26 25 25 24 24 23 22 22 21 20 19 18 18 17 16 16
39 39 36 36 37 37 37 38 37 37 37 38 39 38 37 37 37 36 36 35 34 33 32 32 32 31 31 30 30 30 30 29 28 27 27 26 26 25 24 24 23 23 22 21 20 20 19 18 18
40 39 38 39 40 40 40 39 39 39 39 39 40 39 38 38 38 38 37 37 36 35 34 33 33 33 32 31 31 32 31 31 30 29 29 28 27 26 26 25 25 24 24 23 22 22 21 20 20
41 40 40 41 42 42 42 41 41 40 41 41 41 41 40 40 39 39 38 38 38 37 36 35 35 34 34 33 33 33 33 32 31 31 31 30 28 28 27 27 26 25 25 25 24 24 23 23 22
42 42 42 43 43 44 44 44 43 42 42 43 43 42 42 42 41 40 39 39 39 39 38 37 36 36 35 35 34 34 34 33 32 32 31 31 30 29 29 28 28 27 26 26 25 25 24 24 23
42 43 44 45 45 45 46 46 46 44 44 45 45 45 44 43 42 41 41 41 40 40 40 39 38 38 37 36 36 35 35 35 34 33 32 32 32 31 30 30 29 28 27 27 26 26 25 25 25
42 44 45 46 46 46 47 48 47 46 47 46 46 46 46 45 45 44 42 42 42 41 41 41 41 40 39 38 37 37 36 36 35 34 34 33 33 32 32 31 31 30 29 28 27 27 26 26 25
43 44 46 45 46 47 48 48 47 47 48 48 48 47 48 48 47 46 45 44 44 43 43 42 42 42 41 40 39 38 37 37 37 36 35 34 34 33 33 32 31 31 30 29 29 28 27 26 26
42 44 44 45 46 47 48 48 48 48 48 48 48 48 49 49 49 48 47 46 46 45 44 44 44 43 43 42 41 40 39 38 38 37 37 35 34 34 34 33 32 32 31 31 30 29 29 28 27
40 41 42 43 44 47 48 48 48 48 48 48 49 50 50 49 50 50 50 49 48 47 47 46 45 45 44 44 42 41 40 39 39 38 37 37 36 35 35 34 33 33 32 32 31 31 30 29 28
39 40 41 41 43 46 48 48 48 48 48 49 49 50 50 50 50 50 51 51 50 49 49 47 46 47 46 45 44 42 41 40 39 39 37 37 37 36 36 36 35 34 33 33 33 33 32 31 30
38 39 40 40 42 44 47 49 48 49 49 49 49 50 50 50 51 50 51 51 51 51 50 49 48 47 47 46 45 44 43 42 41 40 39 38 37 37 37 37 36 35 34 34 34 34 33 32 32
36 38 38 39 40 42 43 46 47 48 49 49 49 50 50 51 50 50 51 51 51 51 52 51 51 50 49 48 46 45 44 43 42 41 40 39 39 37 36 36 37 36 36 35 35 35 34 33 33
34 35 36 37 38 39 40 43 45 46 47 48 49 49 50 51 51 51 51 52 52 52 52 52 52 52 51 50 48 47 45 44 42 42 42 41 40 40 38 37 38 38 37 36 36 35 35 34 34
33 32 33 35 36 38 38 41 43 44 45 47 49 50 50 51 52 52 52 52 52 53 53 53 53 53 52 52 50 49 47 45 44 44 43 42 41 40 39 38 38 38 38 37 37 36 36 35 35
31 31 31 32 34 37 36 39 41 42 44 46 47 49 50 52 52 53 53 52 52 52 53 53 53 53 53 53 53 51 49 47 46 45 44 43 42 41 40 39 39 39 38 38 37 37 36 36 36
28 28 28 29 31 34 34 36 39 40 42 44 46 47 48 51 52 53 53 53 52 52 52 53 53 53 53 54 53 52 51 49 48 47 46 45 45 43 42 41 41 41 40 39 38 38 37 36 36
26 26 26 28 29 31 32 35 37 38 40 42 43 45 47 49 51 52 52 52 52 52 53 53 54 54 54 54 54 53 52 51 49 48 47 47 46 45 44 43 43 43 42 41 40 39 38 37 37
23 24 25 27 28 29 30 33 36 37 38 40 41 43 46 48 50 51 52 52 52 52 53 54 54 54 55 54 54 54 54 53 51 49 48 47 47 46 45 45 45 44 44 43 42 41 39 38 38
22 22 22 23 26 27 27 30 34 35 36 37 39 41 43 46 49 50 51 52 53 53 53 53 55 55 55 55 55 55 54 54 53 52 49 49 48 47 47 46 46 46 46 45 44 43 42 40 39
22 22 23 23 24 26 28 30 32 34 35 36 37 39 41 43 46 49 51 51 52 53 53 54 54 55 55 55 55 56 55 54 54 54 52 51 50 48 47 47 48 47 47 46 46 44 43 42 42
21 21 22 23 23 25 28 30 31 33 35 36 38 39 40 41 44 47 50 51 52 53 53 53 54 55 55 56 56 56 56 56 55 54 52 51 51 50 49 47 48 48 48 47 46 46 45 44 43

GEFSSGP_500_meanwind_252.txt.gz
Wind_Speed
22 23 23 25 26 27 26 25 23 23 23 23 23 25 25 25 24 22 18 18 17 16 16 16 16 16 15 15 15 15 14 14 14 13 12 12 11 11 10 10 9 9 8 8 8 8 7 7 6
24 24 25 26 27 27 25 24 24 24 24 24 24 26 26 26 25 23 21 20 19 18 18 18 18 17 17 17 17 16 16 16 16 15 14 13 12 12 12 11 11 10 10 9 9 9 8 8 7
25 26 27 27 27 26 25 25 25 26 26 26 26 26 26 26 25 24 23 22 21 20 20 20 20 19 19 19 18 18 17 17 17 16 16 15 14 14 13 13 12 12 11 11 10 10 9 9 8
27 28 28 28 27 26 26 26 26 27 27 27 27 27 27 26 26 25 25 24 23 22 22 21 21 21 20 20 20 19 19 19 19 18 17 16 16 15 14 14 14 13 13 12 11 11 10 10 9
28 29 30 29 28 26 26 27 28 29 29 29 29 29 28 27 27 27 26 25 25 24 23 23 22 22 22 21 21 21 21 20 20 19 18 18 17 16 16 16 15 14 14 14 13 12 11 11 10
31 31 31 30 29 28 28 29 30 30 30 30 30 30 29 29 28 28 28 27 27 26 26 24 23 23 23 22 22 22 22 21 21 21 20 20 19 18 18 17 17 16 16 15 14 14 13 12 11
32 32 32 31 30 30 30 31 31 31 31 31 31 31 31 30 30 29 29 29 28 28 27 26 25 24 24 24 23 23 23 23 23 23 22 22 21 20 19 19 18 17 17 16 16 15 14 13 12
33 34 34 33 32 31 31 32 32 32 32 33 33 33 32 32 31 31 31 31 30 29 29 28 27 26 26 26 25 25 24 24 24 24 24 23 23 22 21 20 20 19 19 18 17 16 15 15 13
35 36 35 34 33 32 33 34 34 34 34 34 34 34 33 33 32 32 33 32 32 31 30 30 29 28 27 27 27 27 26 26 26 25 25 24 24 23 23 22 21 20 20 20 19 18 17 17 16
37 37 36 36 35 35 35 36 36 36 36 36 36 36 35 35 34 34 34 34 33 33 32 32 31 30 30 29 29 28 28 28 27 27 26 26 26 25 24 24 23 22 22 21 21 20 19 19 18
37 37 37 38 38 37 38 38 38 39 39 38 38 37 37 37 36 36 36 36 35 34 35 34 34 33 32 32 31 31 30 29 29 28 28 28 27 27 26 26 25 24 24 23 22 21 21 21 20
38 37 37 38 40 40 40 40 41 41 40 40 40 39 39 39 38 38 38 37 37 37 37 37 36 35 34 34 33 33 32 32 31 30 30 29 29 29 28 28 27 27 26 25 24 23 22 22 22
38 37 38 39 40 41 42 42 42 42 42 42 43 42 42 42 41 40 40 40 39 39 38 38 38 37 36 35 35 34 34 34 33 32 32 31 31 30 30 29 28 28 28 27 26 25 24 24 23
38 38 39 40 41 42 43 43 44 43 44 44 44 45 44 44 44 43 43 42 41 41 40 40 39 39 38 37 37 37 36 35 34 34 34 33 33 32 31 30 30 29 29 29 28 27 26 26 25
38 38 39 40 41 43 44 45 44 44 45 44 45 46 46 46 46 46 45 44 43 43 42 42 41 40 40 40 39 39 38 37 36 35 35 34 34 33 32 31 31 31 30 30 29 29 28 27 26
37 39 40 40 41 43 45 46 45 45 45 45 46 47 48 48 48 47 47 46 46 45 44 44 43 42 42 41 41 41 40 39 38 37 36 35 35 34 34 33 32 32 31 31 30 30 29 28 28
37 39 39 39 41 42 45 46 46 46 47 47 47 48 49 49 49 49 48 48 48 47 46 45 45 44 43 42 42 42 42 41 40 39 38 37 37 36 35 35 34 33 32 31 31 31 30 30 29
36 37 38 38 39 41 44 45 46 47 48 48 48 48 49 49 48 49 49 49 49 48 48 47 47 46 46 45 44 44 44 43 42 41 40 39 38 38 38 37 36 35 34 33 32 32 32 32 31
35 36 37 37 37 39 42 44 45 46 47 48 48 48 48 48 48 49 49 50 50 49 49 49 49 48 48 48 47 47 46 46 45 43 42 41 40 40 39 38 38 36 35 35 34 33 32 32 32
32 34 35 35 36 37 39 42 44 46 46 47 48 48 48 48 48 48 49 49 50 50 50 50 50 50 50 49 48 48 47 47 46 45 44 43 42 41 40 40 39 38 37 35 35 35 35 34 33
31 32 33 34 34 35 36 38 41 44 45 46 48 49 49 49 50 50 50 50 50 50 50 51 52 52 51 50 49 49 48 48 48 47 45 44 44 43 42 40 39 39 39 37 36 36 36 35 35
29 30 32 32 32 33 34 36 36 39 42 44 46 48 49 49 50 51 51 51 51 51 51 52 53 53 52 52 51 51 50 48 47 47 47 46 45 43 42 41 40 40 40 39 38 37 37 36 36
26 27 28 29 30 32 33 35 35 36 38 41 43 46 47 49 49 50 51 52 52 53 53 53 53 53 53 53 52 52 51 50 48 48 48 47 47 44 43 42 42 40 40 39 38 38 37 37 37
24 25 25 27 28 30 31 34 36 36 36 38 40 43 45 48 49 50 51 51 52 53 54 54 54 54 54 54 54 54 52 51 51 49 49 48 47 46 45 44 43 43 41 40 39 38 38 38 37
23 23 23 25 27 30 30 32 35 35 36 37 38 40 43 45 47 49 50 51 52 52 53 54 54 53 54 55 56 55 55 53 53 52 50 49 48 47 46 46 45 44 43 42 41 40 39 39 39
22 22 22 24 26 28 29 30 32 33 35 37 38 39 41 43 45 47 49 49 51 52 53 53 54 54 54 54 55 56 56 55 54 53 52 50 49 48 48 47 47 46 46 45 44 42 41 40 40
20 21 22 23 25 26 28 29 31 32 34 35 37 39 40 42 43 45 47 48 49 51 52 53 54 55 55 55 55 56 56 56 56 56 54 53 52 50 49 48 47 47 46 46 46 45 43 42 42
20 20 22 22 24 25 27 28 30 32 33 35 37 38 38 40 41 42 45 47 49 51 52 53 53 54 55 55 56 56 56 56 56 56 56 55 54 53 51 49 48 48 48 47 47 47 45 44 43
20 21 23 24 24 26 27 27 29 31 33 35 36 37 37 38 38 40 42 44 46 48 51 52 53 53 54 54 55 56 57 57 57 56 56 55 54 54 53 52 50 49 48 48 48 47 47 45 45
20 20 22 24 24 25 28 29 28 30 32 34 35 36 38 38 39 40 41 42 44 46 48 49 51 53 53 54 55 56 57 57 57 57 57 57 56 55 54 53 52 51 50 49 49 48 47 47 47

GEFSSGP_500_meanwind_258.txt.gz
Wind_Speed
22 22 23 24 25 26 25 23 21 21 22 23 23 24 23 23 22 22 20 19 19 18 17 16 16 15 15 14 14 14 13 12 12 11 10 10 9 9 8 8 7 6 5 5 4 4 4 4 4
23 24 24 25 26 26 24 23 23 23 23 24 25 25 24 24 23 23 22 21 21 20 19 18 18 17 16 16 16 15 15 14 14 13 12 11 11 10 10 9 9 8 7 6 5 5 5 5 5
24 25 26 27 27 26 24 23 23 24 25 25 26 26 25 24 24 24 23 23 22 21 20 20 19 19 18 17 17 17 16 16 15 14 14 13 13 12 11 11 10 9 9 8 7 7 6 6 6
26 27 28 28 27 26 25 24 24 25 26 27 27 27 26 25 25 25 24 24 24 23 22 21 21 20 20 19 18 18 18 17 17 16 16 15 14 14 13 12 12 11 10 9 8 8 8 7 7
29 29 30 30 28 26 26 26 26 26 27 28 28 28 27 26 26 26 26 25 25 25 24 23 22 22 21 20 19 19 19 18 18 17 17 17 16 15 15 14 14 13 12 11 10 10 9 8 8
31 32 32 31 29 28 27 28 28 28 29 30 30 30 29 28 28 28 27 27 26 26 26 25 24 24 23 22 21 21 21 20 20 19 18 18 17 17 16 16 16 15 14 13 12 12 11 10 9
33 34 34 32 31 30 29 30 30 30 31 31 31 31 30 29 29 30 29 29 28 28 27 27 26 26 25 24 23 22 22 22 22 21 20 19 19 18 18 17 17 17 16 15 15 14 13 12 11
34 35 35 34 33 32 31 31 31 32 32 33 33 33 32 31 31 31 31 31 30 30 29 28 28 27 27 26 25 24 24 24 23 23 22 21 21 20 19 19 18 18 18 17 16 16 15 14 13
35 37 36 35 35 34 33 33 34 34 34 34 35 34 33 33 33 33 33 33 33 32 31 30 30 29 29 28 27 26 26 25 25 25 24 23 23 22 21 21 20 19 19 19 18 18 17 16 16
37 38 37 37 38 37 37 36 36 36 36 37 37 36 35 35 35 35 35 35 35 34 33 32 31 31 31 30 29 28 28 27 27 26 26 25 24 24 24 23 22 22 21 20 20 19 19 18 18
37 38 38 39 39 39 39 39 38 38 38 38 39 38 38 37 37 37 37 36 36 36 35 35 33 32 32 32 31 30 29 29 28 28 27 27 26 26 25 25 24 23 22 22 21 21 20 20 20
38 39 39 39 40 40 40 40 40 40 40 40 40 40 40 40 39 39 38 38 38 38 38 37 36 35 34 34 33 32 32 31 30 29 29 28 28 27 27 27 26 25 24 24 23 23 23 22 22
39 39 40 40 40 41 41 41 41 41 41 42 42 42 42 42 42 41 41 40 40 40 40 39 39 38 37 36 35 35 34 34 33 32 31 30 30 30 29 29 28 28 27 26 25 25 25 25 24
38 39 40 41 41 41 42 43 43 42 42 43 44 44 43 44 43 43 43 43 42 42 42 41 41 40 40 39 38 37 37 36 35 35 34 33 32 32 31 30 30 30 29 28 28 27 27 26 26
37 38 40 41 41 41 42 44 44 43 43 44 45 45 45 45 45 45 45 45 44 44 43 43 43 43 42 41 40 40 39 38 38 37 36 35 34 34 33 32 31 31 31 30 29 28 28 28 27
36 37 39 40 41 40 41 43 44 44 45 45 45 46 46 46 46 47 47 46 46 46 46 45 45 45 44 43 42 42 41 40 40 39 38 37 37 36 35 34 33 32 32 31 31 30 29 29 28
36 37 38 39 40 41 41 42 43 46 46 46 46 46 47 48 48 48 48 48 48 48 48 47 46 46 45 45 44 43 43 43 42 41 40 39 39 38 37 36 35 34 33 33 32 32 31 30 29
34 36 37 39 40 41 42 42 43 45 47 47 47 47 48 49 49 50 50 50 49 49 50 49 48 47 46 46 46 45 44 44 44 43 42 42 41 40 39 38 37 36 35 34 33 33 33 32 31
34 35 37 38 39 40 41 42 42 44 46 47 48 47 48 49 50 50 51 51 51 51 51 51 50 50 49 48 48 47 46 45 45 46 45 44 43 42 41 41 40 39 38 37 36 35 35 34 33
32 34 35 36 37 38 40 41 41 42 44 46 48 49 48 49 50 50 51 51 52 52 52 52 51 52 51 50 50 50 48 47 47 47 48 47 45 45 44 43 42 41 40 39 38 37 36 36 35
30 32 33 34 35 36 38 39 39 40 42 45 47 49 49 49 49 50 50 51 51 52 52 52 52 52 52 51 51 51 50 50 49 49 48 49 48 46 45 44 44 43 42 40 39 38 38 38 37
28 30 31 32 32 33 35 38 38 39 40 42 44 45 48 48 48 49 50 51 51 51 52 52 52 52 51 52 52 53 52 52 52 49 49 49 49 48 47 45 45 44 44 43 41 40 40 40 39
27 28 29 30 31 33 33 36 37 37 38 40 41 42 44 46 47 48 49 49 50 51 51 51 52 52 52 53 52 52 53 52 52 53 50 50 51 51 49 48 48 47 46 45 44 43 42 41 40
27 27 28 29 30 32 32 34 35 35 37 37 39 41 42 44 45 46 47 48 49 51 51 52 52 52 52 53 52 52 52 54 54 53 52 51 51 51 51 50 48 47 47 47 46 44 43 42 42
27 26 26 27 29 30 30 32 33 33 35 36 37 38 40 42 43 44 46 47 49 51 52 53 53 52 53 53 54 54 53 53 55 55 55 53 51 52 52 52 51 49 49 48 47 46 45 44 42
25 25 25 26 27 27 28 30 31 32 33 34 36 37 38 40 41 42 45 47 49 51 52 53 54 54 54 53 53 53 54 53 54 56 56 56 54 52 53 52 52 51 50 49 48 48 47 46 44
24 23 24 26 27 28 28 30 31 32 33 34 36 37 37 38 40 41 43 45 47 50 51 53 54 55 55 54 54 53 53 54 55 56 57 58 57 55 54 52 52 52 51 50 49 48 48 47 46
23 22 23 24 26 28 29 30 31 32 32 34 35 36 37 38 39 39 41 44 46 47 49 51 52 54 55 56 55 55 55 55 55 55 56 58 58 58 56 54 53 52 51 51 50 49 49 48 48
22 21 22 24 25 27 29 28 29 31 33 33 35 36 37 38 39 39 40 42 44 46 48 49 50 51 53 54 55 56 56 55 55 55 56 57 59 59 58 56 55 53 53 52 51 50 50 49 49
23 22 23 24 24 25 28 28 28 29 32 34 35 37 38 39 40 39 39 41 43 44 47 48 50 50 52 52 53 53 54 54 55 55 56 57 58 60 60 58 57 56 54 54 54 53 52 51 51

GEFSSGP_500_meanwind_264.txt.gz
Wind_Speed
21 21 21 22 23 23 23 22 21 22 22 23 23 23 22 22 22 22 21 20 20 20 19 18 18 17 16 17 16 16 15 15 15 15 15 14 13 12 11 10 9 8 7 6 6 6 6 6 5
21 22 23 23 24 23 23 22 22 22 23 24 24 24 23 23 23 23 22 21 21 22 21 20 20 19 18 18 18 17 17 17 17 17 16 15 15 14 13 11 11 10 8 7 7 7 7 6 6
22 23 24 25 25 24 23 22 22 23 24 25 25 25 25 24 24 24 23 23 23 23 23 22 21 21 21 20 19 19 19 18 18 18 18 17 16 15 14 13 12 11 10 9 8 8 7 7 7
24 25 26 26 26 24 24 24 23 24 24 26 26 26 26 25 25 25 24 24 24 24 24 24 23 23 22 22 21 21 20 20 20 20 19 18 18 17 16 15 14 13 12 11 10 9 9 8 8
25 26 27 27 26 25 26 25 25 25 26 26 27 27 26 26 26 26 26 26 25 25 25 25 25 25 24 24 23 22 22 21 21 21 21 20 19 19 18 17 16 14 13 12 11 11 10 10 9
27 28 29 28 27 27 27 27 27 27 27 28 28 28 28 28 28 28 28 27 27 26 26 26 26 26 26 25 24 24 23 23 22 22 22 22 21 21 20 19 18 17 15 14 13 12 12 11 11
29 30 30 29 29 29 28 28 28 28 29 29 30 30 30 29 29 29 29 29 29 28 28 28 28 27 27 27 26 26 25 24 24 23 23 23 22 22 22 21 20 19 18 17 15 15 14 13 13
30 31 31 31 32 31 30 30 30 30 30 31 32 32 31 31 31 31 31 31 31 30 30 29 30 29 29 28 28 27 27 26 25 25 24 24 24 23 23 23 22 21 20 19 18 17 16 15 15
32 33 32 33 33 33 32 32 32 32 32 33 33 33 33 33 33 33 33 34 33 32 31 31 31 31 31 30 30 29 29 28 27 26 26 26 25 24 24 24 24 23 22 21 20 19 18 18 17
34 35 33 34 34 34 34 34 34 35 35 35 35 35 36 36 36 35 35 36 35 35 34 34 32 32 33 33 32 32 31 31 30 29 28 27 27 26 26 25 25 25 24 23 22 21 20 20 19
35 35 35 35 36 36 36 36 36 37 37 37 38 38 38 38 38 38 38 38 37 37 36 37 35 34 34 35 34 34 33 33 32 31 30 29 29 28 27 27 26 26 26 25 24 23 22 22 21
36 36 37 37 37 37 37 37 37 38 38 39 39 40 40 40 40 40 40 40 39 39 39 39 38 37 36 36 36 36 35 35 34 33 32 32 31 30 29 28 28 27 27 26 26 25 25 24 24
36 37 38 38 39 39 39 39 39 39 39 39 40 41 42 42 42 43 43 42 41 41 41 41 41 40 39 38 37 37 37 37 36 35 34 33 33 32 31 31 30 29 29 28 27 27 26 26 25
35 36 37 38 39 39 39 40 40 40 40 40 41 42 43 43 44 44 44 44 44 43 43 42 42 42 42 41 40 39 39 39 38 38 37 36 35 34 33 33 32 32 31 30 29 28 28 27 27
34 36 37 37 38 38 39 40 41 41 41 41 42 42 44 45 45 45 45 45 45 45 45 44 44 44 44 44 43 43 42 41 41 40 39 38 37 36 35 35 35 34 33 32 31 30 29 29 28
32 34 36 37 38 38 39 40 40 41 42 42 43 43 44 45 46 46 47 47 47 47 47 46 46 46 46 46 46 46 45 43 43 43 42 41 40 39 38 37 37 36 35 34 33 32 31 31 30
30 32 34 35 36 37 39 40 40 41 42 42 42 44 45 45 46 47 48 48 48 48 48 48 48 48 48 48 48 47 46 46 45 46 45 44 43 42 40 39 39 38 37 37 35 34 33 32 31
29 31 32 33 34 36 37 39 40 41 42 42 42 43 45 46 46 47 48 49 49 50 50 50 50 49 49 49 49 49 48 47 47 47 47 46 45 44 43 42 41 40 40 39 38 36 36 34 33
28 29 30 31 32 34 35 37 39 40 41 42 42 42 44 46 47 47 48 49 50 50 51 51 51 51 51 51 51 51 50 49 48 48 48 48 48 47 46 45 43 42 42 41 40 39 38 37 36
27 28 28 29 31 32 33 34 36 38 39 40 41 42 43 45 46 47 47 48 49 50 50 51 51 51 51 51 52 52 52 51 51 49 50 49 48 48 48 47 46 45 44 43 42 41 40 38 38
26 26 27 27 29 30 32 34 35 36 38 39 40 40 41 42 44 45 46 47 48 49 50 51 51 51 51 51 52 53 53 53 53 53 50 49 50 49 50 49 48 48 47 45 44 43 42 41 40
26 26 26 28 28 29 30 32 33 34 35 37 38 39 39 40 42 43 45 46 47 48 48 49 50 50 51 51 52 53 54 54 54 53 53 52 51 50 51 51 49 48 48 48 47 46 45 43 42
25 25 25 26 27 28 29 31 32 33 33 35 36 37 38 39 40 42 43 45 46 47 47 48 50 50 50 50 51 53 53 54 55 54 53 53 51 50 51 51 51 51 50 50 49 48 47 46 45
23 24 23 23 24 25 27 30 31 32 33 34 35 36 38 39 40 41 43 45 46 46 47 48 49 50 50 50 51 52 53 54 55 55 56 55 54 52 51 51 51 51 50 50 50 50 49 48 46
23 22 23 23 23 24 24 28 30 30 31 33 34 35 37 38 39 40 42 44 45 46 47 48 48 49 50 51 52 52 52 53 55 56 56 56 55 54 53 52 52 53 52 51 51 50 50 50 49
22 22 22 24 24 24 24 25 27 29 30 31 33 35 36 37 38 40 41 43 44 45 47 48 49 49 50 51 52 53 54 54 55 55 55 55 55 55 54 53 53 54 54 53 52 52 51 51 51
21 22 22 23 25 25 25 24 26 28 29 30 31 33 35 36 37 39 41 42 43 44 46 48 49 50 50 50 51 53 54 54 55 55 55 55 55 56 55 55 55 55 54 55 54 54 53 53 53
21 21 22 23 24 25 26 26 25 25 27 29 30 31 33 34 36 38 40 42 44 45 45 47 49 50 51 51 52 53 54 55 55 55 55 56 55 56 57 59 57 57 56 56 56 55 54 54 53
21 21 22 23 24 25 27 26 25 25 26 28 29 31 32 33 35 37 39 40 42 44 45 47 48 49 51 52 52 52 53 54 54 54 55 56 57 56 56 57 58 57 57 56 56 56 55 55 54
22 21 21 22 23 24 26 26 24 26 26 27 28 30 32 33 35 37 38 39 40 41 43 45 47 49 50 52 52 51 52 53 54 54 54 55 55 57 57 57 57 57 58 57 57 57 57 55 54

GEFSSGP_500_meanwind_270.txt.gz
Wind_Speed
19 20 20 21 22 23 22 21 21 21 22 22 22 22 22 23 24 24 21 20 20 19 19 19 19 18 17 17 17 17 16 16 16 16 15 14 13 12 11 11 10 9 9 8 8 7 7 7 6
21 21 22 23 24 24 23 22 22 22 21 22 23 23 23 24 25 24 23 22 22 21 21 20 20 20 19 18 18 18 18 18 17 17 17 16 15 14 13 12 12 11 10 10 9 8 8 8 7
22 22 23 24 25 24 23 23 23 24 23 23 23 24 24 25 25 25 24 23 23 23 23 22 22 21 21 20 20 19 19 19 19 19 18 18 17 16 15 14 13 13 12 11 10 9 9 8 8
24 24 25 25 25 23 23 24 24 24 24 24 24 25 25 25 25 25 25 25 24 24 24 24 23 23 23 22 22 21 20 20 20 20 20 19 19 18 17 16 15 14 13 13 12 11 10 10 10
25 26 26 26 25 24 24 25 26 25 25 26 25 26 26 26 26 26 26 26 26 25 25 26 25 25 24 24 23 23 22 22 22 21 21 21 20 20 19 18 17 16 15 14 13 12 12 11 11
27 28 28 27 26 25 26 26 27 27 27 27 27 28 28 27 28 28 28 28 28 27 27 27 27 27 26 26 25 24 24 23 23 23 23 22 22 22 21 21 19 18 17 16 15 14 14 13 13
29 30 30 29 28 28 27 28 28 28 29 28 29 29 29 29 29 30 30 30 30 29 29 29 29 29 28 28 27 26 26 25 25 25 25 24 24 23 23 22 22 21 19 18 17 16 16 15 14
30 31 31 30 30 29 29 30 30 30 30 30 31 31 30 30 31 32 32 32 32 31 31 31 31 31 30 30 30 29 28 28 27 27 27 26 26 25 24 24 23 23 22 21 20 18 18 17 16
32 32 32 31 31 30 31 32 32 33 32 32 33 33 32 32 33 33 34 34 34 34 33 33 33 33 32 32 32 32 31 30 30 29 28 28 27 27 26 26 25 25 24 23 22 21 20 19 18
33 33 32 32 33 33 34 34 34 35 35 34 35 35 35 35 35 35 36 36 36 36 36 35 35 35 35 34 34 34 34 33 32 31 30 29 29 28 28 28 27 27 27 26 25 23 22 21 20
34 34 33 34 35 35 36 37 37 37 36 36 37 37 37 37 38 38 38 38 39 38 38 38 37 37 37 36 36 36 36 35 34 34 33 32 31 30 29 29 28 28 28 27 27 25 24 23 22
35 35 36 37 37 37 38 39 39 39 38 38 39 39 39 39 40 41 40 40 40 40 40 40 39 40 39 38 38 37 38 37 36 36 35 34 33 32 31 31 30 29 29 29 29 27 26 25 24
35 36 37 38 38 39 41 40 41 40 40 40 40 40 40 41 42 42 43 42 42 42 42 42 42 42 42 41 41 40 39 40 39 38 37 37 36 35 34 32 32 31 31 30 30 30 28 27 26
36 37 38 39 40 41 42 41 41 41 41 42 42 42 42 42 43 43 44 44 44 43 43 43 43 43 43 43 43 42 41 41 41 41 40 39 38 37 37 35 34 33 32 32 32 31 30 29 28
36 38 39 39 40 41 42 42 42 42 43 43 43 43 43 43 43 44 45 45 45 45 44 45 45 45 45 45 44 44 43 43 42 42 42 41 41 40 39 38 36 35 34 33 33 32 32 31 30
35 37 38 38 39 40 42 42 42 43 43 43 44 44 44 44 44 45 45 45 46 46 46 46 46 47 46 46 46 46 45 44 44 43 43 43 43 42 42 41 39 37 36 35 35 34 34 33 32
33 35 36 36 37 39 41 42 42 43 43 43 43 44 45 45 46 46 46 46 46 47 47 47 47 48 48 47 46 47 47 47 46 45 45 44 45 44 44 43 42 41 40 38 37 36 36 35 34
32 33 34 35 36 37 39 40 41 41 42 42 43 43 43 45 46 46 46 46 46 47 48 48 49 49 49 49 48 48 48 48 49 48 47 47 46 46 46 45 44 43 43 42 40 39 38 38 37
30 31 33 34 35 37 38 38 39 39 41 41 42 41 42 43 44 45 46 47 47 47 48 48 50 50 51 50 50 49 49 50 50 49 49 48 48 48 47 47 47 46 45 44 43 42 41 40 40
29 29 31 32 32 35 37 38 38 38 39 39 40 40 41 42 42 43 45 47 48 48 48 50 50 50 51 51 51 51 51 51 51 51 51 50 50 49 49 48 48 48 47 46 46 45 44 43 42
28 28 29 31 31 33 35 36 37 37 37 38 38 39 41 41 42 42 43 44 46 47 47 48 49 50 51 51 52 52 52 51 51 51 51 52 52 51 50 50 50 49 49 48 48 47 47 45 44
27 27 28 29 29 30 31 33 34 35 35 36 37 38 40 40 41 41 42 42 44 45 46 47 48 49 51 51 52 52 51 52 52 52 52 52 53 53 52 51 51 50 50 50 50 49 49 47 46
26 26 27 28 29 29 30 32 32 33 33 34 36 37 38 39 40 40 41 43 44 45 46 46 46 47 49 51 52 52 52 52 53 53 52 52 53 53 52 50 51 51 51 51 51 50 50 50 49
25 26 26 27 28 28 27 30 32 32 32 33 34 36 37 37 39 40 42 42 43 44 45 46 47 47 47 49 51 52 52 52 53 54 55 54 53 53 53 53 52 52 52 52 52 51 51 51 50
24 24 24 25 26 27 27 30 31 31 33 33 34 35 37 37 38 39 41 42 42 43 45 46 47 48 48 48 49 52 53 53 53 53 54 54 54 54 54 55 54 53 52 51 52 53 53 53 52
24 24 24 24 26 27 27 29 29 30 32 32 33 34 35 36 37 37 38 40 40 42 44 45 46 47 48 49 50 51 52 53 54 54 54 54 54 54 54 56 56 54 54 53 53 52 53 54 53
24 24 25 26 27 27 28 29 30 30 31 32 33 33 34 35 37 37 37 38 40 41 44 45 46 47 48 49 50 51 51 53 53 53 54 54 54 54 54 55 56 55 54 54 54 55 54 54 54
24 24 24 25 28 29 27 28 29 29 30 31 31 32 33 34 35 35 37 37 38 40 42 43 44 45 47 48 49 50 50 51 51 52 53 53 54 54 53 54 55 55 55 54 54 53 53 53 54
24 24 24 25 27 28 28 27 27 28 29 31 32 32 32 33 33 34 35 36 37 38 40 42 43 44 45 46 48 49 49 51 53 52 53 53 53 54 53 54 55 55 55 54 54 53 52 52 52
25 25 25 25 26 28 29 29 27 28 29 30 31 31 32 32 33 33 34 36 37 38 39 41 42 43 45 46 47 48 48 49 52 53 52 54 54 53 54 54 54 55 55 55 55 54 53 53 52

GEFSSGP_500_meanwind_276.txt.gz
Wind_Speed
19 19 19 20 21 21 20 18 18 18 19 20 20 20 20 21 21 20 18 18 18 17 17 17 16 16 16 16 15 15 15 15 15 14 14 14 13 12 12 11 11 10 10 9 8 7 7 7 6
20 20 20 21 21 21 20 18 18 18 19 20 21 22 22 22 21 21 20 19 19 19 19 18 18 18 18 17 17 17 17 17 17 17 16 16 15 15 14 13 13 12 11 11 10 9 8 8 8
22 22 22 22 22 22 20 19 19 20 21 22 22 22 23 23 22 22 22 21 21 21 21 21 20 20 19 19 19 19 19 19 19 19 18 18 17 17 16 16 15 14 13 12 12 11 10 10 9
23 23 24 24 23 22 21 20 20 21 22 23 23 23 24 24 24 23 23 23 23 23 22 22 22 22 21 21 20 20 21 21 21 20 20 20 19 19 18 17 16 15 14 14 13 13 12 12 11
24 24 25 25 24 23 22 22 22 22 24 24 24 24 24 24 24 24 24 24 24 24 24 24 23 23 23 23 22 21 22 22 22 22 22 21 21 21 20 19 18 17 16 15 15 14 14 13 13
25 26 26 26 26 25 24 23 23 24 25 25 26 26 26 26 26 26 26 26 26 26 26 26 26 25 25 25 25 24 24 24 23 23 23 23 23 22 22 21 20 19 18 18 17 16 15 15 14
27 27 28 27 27 27 26 26 25 25 27 27 27 28 27 28 28 28 28 28 29 29 28 28 28 28 27 27 27 27 26 26 26 25 25 25 24 24 23 23 22 21 20 20 19 18 17 17 16
27 28 29 29 29 28 28 27 27 27 28 29 29 29 29 29 30 30 30 30 30 30 30 30 29 29 29 29 29 29 28 28 28 28 27 26 26 26 25 25 24 23 22 22 21 20 19 18 17
28 30 30 30 30 29 29 29 28 29 29 30 31 31 31 31 31 32 32 32 32 32 32 32 31 31 32 32 31 31 31 31 30 30 29 29 28 27 27 26 26 25 24 23 23 22 21 20 20
29 30 30 31 31 31 31 30 30 31 31 32 32 32 33 33 34 34 34 34 34 34 34 34 34 34 34 34 34 33 33 33 32 32 31 31 31 30 29 29 28 28 27 26 25 24 23 23 22
30 30 31 32 32 33 32 32 32 33 33 34 33 34 35 35 35 36 37 36 36 35 36 36 36 36 36 36 36 36 36 35 35 34 34 33 33 32 31 30 30 30 29 29 28 27 26 25 24
30 31 32 33 34 34 34 33 33 34 35 35 35 35 36 36 37 37 38 38 38 38 38 38 39 38 38 38 38 38 38 38 37 37 36 36 35 34 34 33 32 32 32 31 31 30 29 28 27
31 32 33 34 35 35 36 35 35 35 36 37 36 36 37 38 38 39 39 40 40 40 40 40 40 41 40 40 40 40 40 40 40 39 39 38 37 37 36 35 35 34 34 34 34 33 32 31 29
31 32 33 34 35 36 37 36 36 36 37 38 38 38 38 39 40 40 41 41 41 41 42 42 42 43 43 43 42 42 42 41 41 41 41 40 40 39 39 38 37 36 36 35 35 35 34 33 32
31 32 33 35 36 36 37 37 36 36 37 38 39 39 39 40 41 42 42 43 43 42 43 43 43 44 44 45 44 44 43 43 42 42 42 42 41 41 40 39 39 38 38 37 37 37 36 35 34
30 31 32 33 35 35 37 37 36 37 37 38 39 39 39 40 41 42 42 44 45 44 44 44 44 44 45 45 45 45 45 45 44 45 45 44 43 42 42 41 41 40 40 39 39 39 37 37 36
29 30 31 32 34 34 36 37 36 37 38 38 39 40 40 41 41 42 43 43 45 46 45 45 45 46 46 46 46 46 47 47 47 46 47 46 46 46 45 44 43 43 43 42 41 40 39 39 38
29 30 30 31 32 33 35 36 36 37 38 39 39 40 41 42 42 43 43 44 45 46 46 46 46 47 48 48 48 48 48 49 49 49 48 48 48 47 47 47 46 45 45 45 44 44 42 41 40
29 29 29 30 30 32 33 34 34 36 37 39 39 40 41 42 43 43 44 45 46 46 47 47 48 49 49 49 49 50 49 50 50 50 50 50 49 49 49 49 48 47 47 46 46 45 45 44 42
27 28 28 28 29 31 33 33 32 34 36 37 38 40 40 42 43 43 44 45 46 47 48 48 49 49 50 51 51 50 51 50 51 51 50 51 51 51 51 52 51 50 49 48 48 48 47 46 45
25 26 27 28 28 29 30 31 31 33 35 35 37 38 39 41 42 43 44 45 45 46 47 49 49 49 50 51 51 51 51 51 52 52 52 52 52 52 51 52 52 51 50 49 49 49 49 48 47
23 23 25 26 27 27 28 30 30 31 33 35 35 36 37 39 41 42 43 44 45 46 46 48 48 48 49 50 50 51 51 51 51 52 52 52 52 52 52 51 52 51 51 51 51 51 51 50 50
21 22 23 24 25 26 27 28 28 30 31 33 34 35 36 38 40 41 42 43 44 45 46 47 47 47 48 49 49 50 50 51 51 52 52 53 53 53 53 53 53 53 52 52 52 52 52 52 52
21 21 22 23 25 26 26 28 28 28 29 31 33 34 35 36 38 40 41 42 43 44 45 45 47 47 47 48 49 49 49 49 50 50 52 53 53 52 53 54 54 54 54 54 53 53 53 53 53
19 20 21 22 24 25 25 27 29 29 29 30 32 33 35 36 36 38 40 40 42 43 44 45 46 47 47 47 48 48 49 49 50 50 50 51 52 52 53 54 54 54 54 55 54 54 53 53 53
19 20 21 22 23 24 25 26 27 27 28 30 31 32 33 33 33 35 37 39 40 42 43 44 44 45 46 47 47 48 49 49 49 50 51 51 52 53 53 53 54 55 55 54 55 55 55 54 53
20 21 21 23 25 25 26 27 28 27 28 29 30 30 32 32 33 34 35 37 39 40 41 43 45 45 46 47 47 49 49 49 50 50 50 51 53 54 54 54 55 56 55 55 55 55 54 55 54
22 22 21 23 25 26 26 26 28 29 29 30 30 30 31 32 33 34 35 36 38 39 40 42 44 45 45 46 47 48 49 48 49 51 51 52 52 53 54 53 53 54 55 55 55 55 55 55 54
23 23 23 24 25 26 27 26 27 29 30 31 31 32 32 32 33 34 35 36 37 38 40 41 43 44 45 45 46 48 49 50 50 51 51 52 53 53 53 54 54 54 54 54 54 53 54 55 56
23 24 24 25 26 26 27 27 28 29 30 31 32 33 33 33 33 34 35 36 36 37 38 40 41 43 44 44 46 47 48 49 50 51 52 53 53 52 53 54 54 54 54 55 55 54 54 56 56